<?xml version='1.0' encoding='UTF-8'?><gpx version="1.1" creator="JPX - https://github.com/jenetics/jpx" xmlns="http://www.topografix.com/GPX/1/1"><trk><trkseg><trkpt lat="45.4093841" lon="9.2713673"><ele>100.0</ele><time>2026-05-04T16:38:42.26Z</time></trkpt><trkpt lat="45.409446" lon="9.2713102"><ele>100.0</ele><time>2026-05-04T16:38:43.261Z</time></trkpt><trkpt lat="45.4094729" lon="9.2712276"><ele>100.0</ele><time>2026-05-04T16:38:44.257Z</time></trkpt><trkpt lat="45.4094175" lon="9.2710162"><ele>100.0</ele><time>2026-05-04T16:38:45.26Z</time></trkpt><trkpt lat="45.4090689" lon="9.2717351"><ele>100.0</ele><time>2026-05-04T16:38:50.262Z</time></trkpt><trkpt lat="45.4090722" lon="9.2719126"><ele>100.0</ele><time>2026-05-04T16:38:51.258Z</time></trkpt><trkpt lat="45.4091349" lon="9.2718807"><ele>100.0</ele><time>2026-05-04T16:38:57.254Z</time></trkpt><trkpt lat="45.4093296" lon="9.2715064"><ele>100.0</ele><time>2026-05-04T16:38:58.256Z</time></trkpt><trkpt lat="45.4094146" lon="9.2714836"><ele>100.0</ele><time>2026-05-04T16:38:59.269Z</time></trkpt><trkpt lat="45.4094265" lon="9.2716087"><ele>100.0</ele><time>2026-05-04T16:39:08.256Z</time></trkpt><trkpt lat="45.4091519" lon="9.2715435"><ele>100.0</ele><time>2026-05-04T16:39:09.257Z</time></trkpt><trkpt lat="45.4089981" lon="9.2718268"><ele>100.0</ele><time>2026-05-04T16:39:10.258Z</time></trkpt><trkpt lat="45.4090675" lon="9.2716398"><ele>100.0</ele><time>2026-05-04T16:39:34.254Z</time></trkpt><trkpt lat="45.4093241" lon="9.2716058"><ele>100.0</ele><time>2026-05-04T16:39:35.258Z</time></trkpt><trkpt lat="45.40932" lon="9.2717498"><ele>100.0</ele><time>2026-05-04T16:39:36.258Z</time></trkpt><trkpt lat="45.4092713" lon="9.271552"><ele>100.0</ele><time>2026-05-04T16:39:43.262Z</time></trkpt><trkpt lat="45.4091891" lon="9.2716365"><ele>100.0</ele><time>2026-05-04T16:39:46.262Z</time></trkpt><trkpt lat="45.4090937" lon="9.2716847"><ele>100.0</ele><time>2026-05-04T16:39:48.26Z</time></trkpt><trkpt lat="45.409019" lon="9.2716841"><ele>100.0</ele><time>2026-05-04T16:39:50.26Z</time></trkpt><trkpt lat="45.4089344" lon="9.2715852"><ele>100.0</ele><time>2026-05-04T16:39:51.264Z</time></trkpt><trkpt lat="45.4088239" lon="9.2715161"><ele>100.0</ele><time>2026-05-04T16:39:52.269Z</time></trkpt><trkpt lat="45.4087423" lon="9.2714048"><ele>100.0</ele><time>2026-05-04T16:39:54.268Z</time></trkpt><trkpt lat="45.4087542" lon="9.2712856"><ele>100.00000000000001</ele><time>2026-05-04T16:39:56.266Z</time></trkpt><trkpt lat="45.4087965" lon="9.2712075"><ele>100.0</ele><time>2026-05-04T16:39:58.265Z</time></trkpt><trkpt lat="45.4088562" lon="9.2711574"><ele>100.0</ele><time>2026-05-04T16:40:00.268Z</time></trkpt><trkpt lat="45.4089161" lon="9.2711062"><ele>100.0</ele><time>2026-05-04T16:40:02.271Z</time></trkpt><trkpt lat="45.4089784" lon="9.2710882"><ele>100.0</ele><time>2026-05-04T16:40:06.275Z</time></trkpt><trkpt lat="45.4090352" lon="9.2710071"><ele>100.00000000000001</ele><time>2026-05-04T16:40:24.268Z</time></trkpt><trkpt lat="45.409055" lon="9.2708868"><ele>100.0</ele><time>2026-05-04T16:40:27.268Z</time></trkpt><trkpt lat="45.4090885" lon="9.2708098"><ele>100.00000000000001</ele><time>2026-05-04T16:40:29.264Z</time></trkpt><trkpt lat="45.4091196" lon="9.2707221"><ele>100.0</ele><time>2026-05-04T16:40:32.267Z</time></trkpt><trkpt lat="45.4091349" lon="9.2706213"><ele>100.0</ele><time>2026-05-04T16:40:35.275Z</time></trkpt><trkpt lat="45.4091912" lon="9.2705565"><ele>100.0</ele><time>2026-05-04T16:40:38.276Z</time></trkpt><trkpt lat="45.4092571" lon="9.2706577"><ele>100.00000000000001</ele><time>2026-05-04T16:40:41.268Z</time></trkpt><trkpt lat="45.4093078" lon="9.2707611"><ele>100.0</ele><time>2026-05-04T16:40:43.279Z</time></trkpt><trkpt lat="45.4093539" lon="9.2708606"><ele>100.00000000000001</ele><time>2026-05-04T16:40:45.273Z</time></trkpt><trkpt lat="45.4093985" lon="9.2709476"><ele>100.0</ele><time>2026-05-04T16:40:47.272Z</time></trkpt><trkpt lat="45.4094449" lon="9.2710434"><ele>100.0</ele><time>2026-05-04T16:40:49.271Z</time></trkpt><trkpt lat="45.4094875" lon="9.2711263"><ele>100.0</ele><time>2026-05-04T16:40:51.272Z</time></trkpt><trkpt lat="45.4095491" lon="9.271155"><ele>100.00000000000001</ele><time>2026-05-04T16:40:53.272Z</time></trkpt><trkpt lat="45.4096304" lon="9.2711098"><ele>100.0</ele><time>2026-05-04T16:40:56.273Z</time></trkpt><trkpt lat="45.4096111" lon="9.2712158"><ele>100.0</ele><time>2026-05-04T16:40:59.279Z</time></trkpt><trkpt lat="45.4096263" lon="9.2713446"><ele>100.0</ele><time>2026-05-04T16:41:01.272Z</time></trkpt><trkpt lat="45.4096697" lon="9.2714862"><ele>100.0</ele><time>2026-05-04T16:41:03.269Z</time></trkpt><trkpt lat="45.4097264" lon="9.2715672"><ele>100.0</ele><time>2026-05-04T16:41:05.276Z</time></trkpt><trkpt lat="45.4098275" lon="9.2715483"><ele>100.0</ele><time>2026-05-04T16:41:07.269Z</time></trkpt><trkpt lat="45.4098782" lon="9.2714277"><ele>100.2</ele><time>2026-05-04T16:41:09.273Z</time></trkpt><trkpt lat="45.4099109" lon="9.271306"><ele>100.4</ele><time>2026-05-04T16:41:11.271Z</time></trkpt><trkpt lat="45.4099625" lon="9.271197"><ele>100.6</ele><time>2026-05-04T16:41:13.272Z</time></trkpt><trkpt lat="45.4100234" lon="9.2710987"><ele>100.8</ele><time>2026-05-04T16:41:15.273Z</time></trkpt><trkpt lat="45.4100963" lon="9.271024"><ele>101.0</ele><time>2026-05-04T16:41:17.274Z</time></trkpt><trkpt lat="45.4101714" lon="9.2709359"><ele>100.99999999999999</ele><time>2026-05-04T16:41:19.275Z</time></trkpt><trkpt lat="45.4102423" lon="9.2708546"><ele>101.0</ele><time>2026-05-04T16:41:21.272Z</time></trkpt><trkpt lat="45.410299" lon="9.2708023"><ele>101.0</ele><time>2026-05-04T16:41:23.272Z</time></trkpt><trkpt lat="45.4103785" lon="9.270808"><ele>101.0</ele><time>2026-05-04T16:41:26.269Z</time></trkpt><trkpt lat="45.4104161" lon="9.2708857"><ele>100.99999999999999</ele><time>2026-05-04T16:41:28.273Z</time></trkpt><trkpt lat="45.4104527" lon="9.2709835"><ele>101.0</ele><time>2026-05-04T16:41:30.271Z</time></trkpt><trkpt lat="45.4105153" lon="9.2711056"><ele>101.0</ele><time>2026-05-04T16:41:32.269Z</time></trkpt><trkpt lat="45.4105729" lon="9.271226"><ele>101.0</ele><time>2026-05-04T16:41:34.275Z</time></trkpt><trkpt lat="45.4106272" lon="9.2713389"><ele>101.0</ele><time>2026-05-04T16:41:36.272Z</time></trkpt><trkpt lat="45.4106788" lon="9.2714554"><ele>101.0</ele><time>2026-05-04T16:41:38.276Z</time></trkpt><trkpt lat="45.410742" lon="9.2715653"><ele>101.0</ele><time>2026-05-04T16:41:40.272Z</time></trkpt><trkpt lat="45.4107959" lon="9.2716802"><ele>101.4</ele><time>2026-05-04T16:41:42.27Z</time></trkpt><trkpt lat="45.4108554" lon="9.2717977"><ele>101.8</ele><time>2026-05-04T16:41:44.275Z</time></trkpt><trkpt lat="45.4109153" lon="9.2719097"><ele>102.2</ele><time>2026-05-04T16:41:46.275Z</time></trkpt><trkpt lat="45.4109719" lon="9.2720144"><ele>102.60000000000001</ele><time>2026-05-04T16:41:48.269Z</time></trkpt><trkpt lat="45.4110323" lon="9.2721242"><ele>103.0</ele><time>2026-05-04T16:41:50.272Z</time></trkpt><trkpt lat="45.4110687" lon="9.2722293"><ele>102.83333333333334</ele><time>2026-05-04T16:41:52.272Z</time></trkpt><trkpt lat="45.4111113" lon="9.272336"><ele>102.66666666666667</ele><time>2026-05-04T16:41:54.279Z</time></trkpt><trkpt lat="45.4111505" lon="9.2724178"><ele>102.5</ele><time>2026-05-04T16:41:56.267Z</time></trkpt><trkpt lat="45.4111882" lon="9.2725217"><ele>102.33333333333334</ele><time>2026-05-04T16:41:58.269Z</time></trkpt><trkpt lat="45.4112376" lon="9.2726138"><ele>102.16666666666667</ele><time>2026-05-04T16:42:00.268Z</time></trkpt><trkpt lat="45.4112922" lon="9.2727184"><ele>102.0</ele><time>2026-05-04T16:42:02.275Z</time></trkpt><trkpt lat="45.411339" lon="9.2728199"><ele>102.0</ele><time>2026-05-04T16:42:04.268Z</time></trkpt><trkpt lat="45.411397" lon="9.272933"><ele>102.0</ele><time>2026-05-04T16:42:06.273Z</time></trkpt><trkpt lat="45.4114608" lon="9.2730524"><ele>102.0</ele><time>2026-05-04T16:42:08.273Z</time></trkpt><trkpt lat="45.4115219" lon="9.2731634"><ele>102.0</ele><time>2026-05-04T16:42:10.271Z</time></trkpt><trkpt lat="45.4115737" lon="9.2732844"><ele>102.0</ele><time>2026-05-04T16:42:12.272Z</time></trkpt><trkpt lat="45.4116241" lon="9.2733995"><ele>102.19999999999999</ele><time>2026-05-04T16:42:14.274Z</time></trkpt><trkpt lat="45.4116903" lon="9.2735103"><ele>102.4</ele><time>2026-05-04T16:42:16.268Z</time></trkpt><trkpt lat="45.4117421" lon="9.2736158"><ele>102.6</ele><time>2026-05-04T16:42:18.278Z</time></trkpt><trkpt lat="45.4118066" lon="9.273717"><ele>102.80000000000001</ele><time>2026-05-04T16:42:20.271Z</time></trkpt><trkpt lat="45.4118624" lon="9.2738258"><ele>103.0</ele><time>2026-05-04T16:42:22.272Z</time></trkpt><trkpt lat="45.4119079" lon="9.273946"><ele>102.80000000000001</ele><time>2026-05-04T16:42:24.274Z</time></trkpt><trkpt lat="45.4119684" lon="9.2740687"><ele>102.6</ele><time>2026-05-04T16:42:26.272Z</time></trkpt><trkpt lat="45.4120322" lon="9.2741949"><ele>102.4</ele><time>2026-05-04T16:42:28.276Z</time></trkpt><trkpt lat="45.4120807" lon="9.2743221"><ele>102.19999999999999</ele><time>2026-05-04T16:42:30.278Z</time></trkpt><trkpt lat="45.4121302" lon="9.2744454"><ele>102.0</ele><time>2026-05-04T16:42:32.271Z</time></trkpt><trkpt lat="45.4121734" lon="9.2745641"><ele>102.0</ele><time>2026-05-04T16:42:34.27Z</time></trkpt><trkpt lat="45.4122163" lon="9.2746775"><ele>102.0</ele><time>2026-05-04T16:42:36.274Z</time></trkpt><trkpt lat="45.4122821" lon="9.2747907"><ele>102.0</ele><time>2026-05-04T16:42:38.279Z</time></trkpt><trkpt lat="45.4123322" lon="9.2749094"><ele>102.0</ele><time>2026-05-04T16:42:40.272Z</time></trkpt><trkpt lat="45.4123947" lon="9.2750261"><ele>102.0</ele><time>2026-05-04T16:42:42.277Z</time></trkpt><trkpt lat="45.4124457" lon="9.2751323"><ele>102.0</ele><time>2026-05-04T16:42:44.272Z</time></trkpt><trkpt lat="45.4125046" lon="9.2752501"><ele>102.0</ele><time>2026-05-04T16:42:46.269Z</time></trkpt><trkpt lat="45.4125528" lon="9.2753712"><ele>102.0</ele><time>2026-05-04T16:42:48.268Z</time></trkpt><trkpt lat="45.4125977" lon="9.2754866"><ele>102.0</ele><time>2026-05-04T16:42:50.269Z</time></trkpt><trkpt lat="45.4126571" lon="9.2756053"><ele>102.0</ele><time>2026-05-04T16:42:52.279Z</time></trkpt><trkpt lat="45.4127039" lon="9.275745"><ele>102.0</ele><time>2026-05-04T16:42:54.276Z</time></trkpt><trkpt lat="45.4127592" lon="9.275851"><ele>102.0</ele><time>2026-05-04T16:42:56.274Z</time></trkpt><trkpt lat="45.4128117" lon="9.2759668"><ele>102.0</ele><time>2026-05-04T16:42:58.272Z</time></trkpt><trkpt lat="45.4128799" lon="9.2760678"><ele>102.0</ele><time>2026-05-04T16:43:00.274Z</time></trkpt><trkpt lat="45.4129371" lon="9.2761868"><ele>102.0</ele><time>2026-05-04T16:43:02.271Z</time></trkpt><trkpt lat="45.4130153" lon="9.2762719"><ele>102.19999999999999</ele><time>2026-05-04T16:43:04.271Z</time></trkpt><trkpt lat="45.4130902" lon="9.2763587"><ele>102.4</ele><time>2026-05-04T16:43:06.272Z</time></trkpt><trkpt lat="45.4131629" lon="9.2764615"><ele>102.6</ele><time>2026-05-04T16:43:08.283Z</time></trkpt><trkpt lat="45.4132562" lon="9.2765339"><ele>102.80000000000001</ele><time>2026-05-04T16:43:10.272Z</time></trkpt><trkpt lat="45.4133231" lon="9.276622"><ele>103.0</ele><time>2026-05-04T16:43:12.271Z</time></trkpt><trkpt lat="45.4134073" lon="9.2767031"><ele>102.60000000000001</ele><time>2026-05-04T16:43:14.273Z</time></trkpt><trkpt lat="45.4134886" lon="9.2768015"><ele>102.2</ele><time>2026-05-04T16:43:16.274Z</time></trkpt><trkpt lat="45.4135643" lon="9.2769051"><ele>101.8</ele><time>2026-05-04T16:43:18.271Z</time></trkpt><trkpt lat="45.4136544" lon="9.2769694"><ele>101.4</ele><time>2026-05-04T16:43:20.267Z</time></trkpt><trkpt lat="45.4137455" lon="9.2770527"><ele>101.0</ele><time>2026-05-04T16:43:22.272Z</time></trkpt><trkpt lat="45.4138291" lon="9.2771499"><ele>101.0</ele><time>2026-05-04T16:43:24.279Z</time></trkpt><trkpt lat="45.4139064" lon="9.2772512"><ele>101.0</ele><time>2026-05-04T16:43:26.274Z</time></trkpt><trkpt lat="45.4139942" lon="9.2773423"><ele>101.0</ele><time>2026-05-04T16:43:28.267Z</time></trkpt><trkpt lat="45.4140723" lon="9.277441"><ele>101.0</ele><time>2026-05-04T16:43:30.27Z</time></trkpt><trkpt lat="45.4141529" lon="9.277526"><ele>101.0</ele><time>2026-05-04T16:43:32.275Z</time></trkpt><trkpt lat="45.4142306" lon="9.2776211"><ele>100.8</ele><time>2026-05-04T16:43:34.273Z</time></trkpt><trkpt lat="45.4143108" lon="9.2776989"><ele>100.6</ele><time>2026-05-04T16:43:36.272Z</time></trkpt><trkpt lat="45.4143881" lon="9.2778041"><ele>100.4</ele><time>2026-05-04T16:43:38.267Z</time></trkpt><trkpt lat="45.4144528" lon="9.2779042"><ele>100.2</ele><time>2026-05-04T16:43:40.267Z</time></trkpt><trkpt lat="45.4145318" lon="9.2779885"><ele>100.0</ele><time>2026-05-04T16:43:42.265Z</time></trkpt><trkpt lat="45.414613" lon="9.2780858"><ele>99.50000000000001</ele><time>2026-05-04T16:43:44.276Z</time></trkpt><trkpt lat="45.4146662" lon="9.2781984"><ele>99.0</ele><time>2026-05-04T16:43:46.275Z</time></trkpt><trkpt lat="45.4146736" lon="9.2783311"><ele>98.5</ele><time>2026-05-04T16:43:48.271Z</time></trkpt><trkpt lat="45.4146825" lon="9.2784246"><ele>98.0</ele><time>2026-05-04T16:43:51.273Z</time></trkpt><trkpt lat="45.414754" lon="9.2784634"><ele>97.50000000000001</ele><time>2026-05-04T16:43:54.278Z</time></trkpt><trkpt lat="45.4148328" lon="9.2785581"><ele>97.0</ele><time>2026-05-04T16:43:57.272Z</time></trkpt><trkpt lat="45.4149101" lon="9.2785304"><ele>97.0</ele><time>2026-05-04T16:43:59.274Z</time></trkpt><trkpt lat="45.4150129" lon="9.2785484"><ele>97.0</ele><time>2026-05-04T16:44:01.269Z</time></trkpt><trkpt lat="45.4150849" lon="9.2785998"><ele>97.0</ele><time>2026-05-04T16:44:03.275Z</time></trkpt><trkpt lat="45.4151508" lon="9.2786734"><ele>97.0</ele><time>2026-05-04T16:44:05.267Z</time></trkpt><trkpt lat="45.4152242" lon="9.2787568"><ele>97.0</ele><time>2026-05-04T16:44:07.274Z</time></trkpt><trkpt lat="45.4152902" lon="9.2788516"><ele>97.19999999999999</ele><time>2026-05-04T16:44:09.275Z</time></trkpt><trkpt lat="45.4153683" lon="9.2789385"><ele>97.4</ele><time>2026-05-04T16:44:11.273Z</time></trkpt><trkpt lat="45.4154419" lon="9.279029"><ele>97.6</ele><time>2026-05-04T16:44:13.267Z</time></trkpt><trkpt lat="45.4155221" lon="9.2791208"><ele>97.80000000000001</ele><time>2026-05-04T16:44:15.27Z</time></trkpt><trkpt lat="45.4155973" lon="9.2792153"><ele>98.0</ele><time>2026-05-04T16:44:17.271Z</time></trkpt><trkpt lat="45.4156688" lon="9.2793053"><ele>98.60000000000001</ele><time>2026-05-04T16:44:19.272Z</time></trkpt><trkpt lat="45.4157465" lon="9.279391"><ele>99.2</ele><time>2026-05-04T16:44:21.272Z</time></trkpt><trkpt lat="45.4158237" lon="9.2794894"><ele>99.8</ele><time>2026-05-04T16:44:23.272Z</time></trkpt><trkpt lat="45.4158955" lon="9.2795768"><ele>100.4</ele><time>2026-05-04T16:44:25.275Z</time></trkpt><trkpt lat="45.4159728" lon="9.2796598"><ele>101.0</ele><time>2026-05-04T16:44:27.271Z</time></trkpt><trkpt lat="45.4160528" lon="9.2797508"><ele>100.8</ele><time>2026-05-04T16:44:29.273Z</time></trkpt><trkpt lat="45.4161271" lon="9.2798451"><ele>100.6</ele><time>2026-05-04T16:44:31.279Z</time></trkpt><trkpt lat="45.4161955" lon="9.2799343"><ele>100.4</ele><time>2026-05-04T16:44:33.275Z</time></trkpt><trkpt lat="45.4162807" lon="9.2800163"><ele>100.2</ele><time>2026-05-04T16:44:35.27Z</time></trkpt><trkpt lat="45.4163587" lon="9.2801042"><ele>100.0</ele><time>2026-05-04T16:44:37.271Z</time></trkpt><trkpt lat="45.4164342" lon="9.280191"><ele>100.8</ele><time>2026-05-04T16:44:39.275Z</time></trkpt><trkpt lat="45.4165081" lon="9.2802856"><ele>101.6</ele><time>2026-05-04T16:44:41.274Z</time></trkpt><trkpt lat="45.4165596" lon="9.2804163"><ele>102.4</ele><time>2026-05-04T16:44:43.274Z</time></trkpt><trkpt lat="45.4165981" lon="9.2805273"><ele>103.2</ele><time>2026-05-04T16:44:45.271Z</time></trkpt><trkpt lat="45.4166562" lon="9.2806448"><ele>104.0</ele><time>2026-05-04T16:44:47.281Z</time></trkpt><trkpt lat="45.4167065" lon="9.2807664"><ele>104.4</ele><time>2026-05-04T16:44:49.271Z</time></trkpt><trkpt lat="45.4167482" lon="9.2808947"><ele>104.80000000000001</ele><time>2026-05-04T16:44:51.277Z</time></trkpt><trkpt lat="45.4167876" lon="9.2810289"><ele>105.19999999999999</ele><time>2026-05-04T16:44:53.273Z</time></trkpt><trkpt lat="45.4168305" lon="9.2811642"><ele>105.6</ele><time>2026-05-04T16:44:55.274Z</time></trkpt><trkpt lat="45.4168841" lon="9.2812964"><ele>106.0</ele><time>2026-05-04T16:44:57.271Z</time></trkpt><trkpt lat="45.4169603" lon="9.2814376"><ele>105.50000000000001</ele><time>2026-05-04T16:44:59.28Z</time></trkpt><trkpt lat="45.4170017" lon="9.2815087"><ele>105.0</ele><time>2026-05-04T16:45:00.277Z</time></trkpt><trkpt lat="45.4170947" lon="9.2816267"><ele>104.5</ele><time>2026-05-04T16:45:02.272Z</time></trkpt><trkpt lat="45.4171484" lon="9.281683"><ele>104.0</ele><time>2026-05-04T16:45:03.273Z</time></trkpt><trkpt lat="45.4172016" lon="9.281733"><ele>103.50000000000001</ele><time>2026-05-04T16:45:04.277Z</time></trkpt><trkpt lat="45.4173117" lon="9.2818232"><ele>103.0</ele><time>2026-05-04T16:45:06.271Z</time></trkpt><trkpt lat="45.4173678" lon="9.2818643"><ele>103.0</ele><time>2026-05-04T16:45:07.273Z</time></trkpt><trkpt lat="45.4174741" lon="9.2819498"><ele>103.0</ele><time>2026-05-04T16:45:09.281Z</time></trkpt><trkpt lat="45.4175836" lon="9.2820287"><ele>103.0</ele><time>2026-05-04T16:45:11.273Z</time></trkpt><trkpt lat="45.4176435" lon="9.2820614"><ele>103.0</ele><time>2026-05-04T16:45:12.274Z</time></trkpt><trkpt lat="45.4177556" lon="9.2821176"><ele>103.0</ele><time>2026-05-04T16:45:14.269Z</time></trkpt><trkpt lat="45.4178165" lon="9.2821448"><ele>103.0</ele><time>2026-05-04T16:45:15.27Z</time></trkpt><trkpt lat="45.4179259" lon="9.2821951"><ele>103.0</ele><time>2026-05-04T16:45:17.266Z</time></trkpt><trkpt lat="45.4180255" lon="9.282253"><ele>103.0</ele><time>2026-05-04T16:45:19.273Z</time></trkpt><trkpt lat="45.4181253" lon="9.2823102"><ele>103.0</ele><time>2026-05-04T16:45:21.271Z</time></trkpt><trkpt lat="45.4182259" lon="9.2823591"><ele>103.0</ele><time>2026-05-04T16:45:23.272Z</time></trkpt><trkpt lat="45.4183135" lon="9.2824237"><ele>102.0</ele><time>2026-05-04T16:45:25.271Z</time></trkpt><trkpt lat="45.4184187" lon="9.28243"><ele>101.0</ele><time>2026-05-04T16:45:27.271Z</time></trkpt><trkpt lat="45.4185212" lon="9.2824395"><ele>100.0</ele><time>2026-05-04T16:45:29.276Z</time></trkpt><trkpt lat="45.4186039" lon="9.2824951"><ele>99.0</ele><time>2026-05-04T16:45:31.274Z</time></trkpt><trkpt lat="45.4187031" lon="9.2825637"><ele>98.0</ele><time>2026-05-04T16:45:33.27Z</time></trkpt><trkpt lat="45.418806" lon="9.2826353"><ele>98.60000000000001</ele><time>2026-05-04T16:45:35.272Z</time></trkpt><trkpt lat="45.4189062" lon="9.2827113"><ele>99.2</ele><time>2026-05-04T16:45:37.277Z</time></trkpt><trkpt lat="45.4190063" lon="9.2827744"><ele>99.8</ele><time>2026-05-04T16:45:39.27Z</time></trkpt><trkpt lat="45.4191089" lon="9.2828385"><ele>100.4</ele><time>2026-05-04T16:45:41.274Z</time></trkpt><trkpt lat="45.4192046" lon="9.282902"><ele>101.0</ele><time>2026-05-04T16:45:43.272Z</time></trkpt><trkpt lat="45.4193075" lon="9.2829467"><ele>101.0</ele><time>2026-05-04T16:45:45.271Z</time></trkpt><trkpt lat="45.4194119" lon="9.2829988"><ele>101.0</ele><time>2026-05-04T16:45:47.277Z</time></trkpt><trkpt lat="45.4195077" lon="9.2830568"><ele>101.0</ele><time>2026-05-04T16:45:49.273Z</time></trkpt><trkpt lat="45.4196078" lon="9.2831123"><ele>101.0</ele><time>2026-05-04T16:45:51.277Z</time></trkpt><trkpt lat="45.419709" lon="9.2831668"><ele>101.0</ele><time>2026-05-04T16:45:53.269Z</time></trkpt><trkpt lat="45.4197736" lon="9.2833015"><ele>101.19999999999999</ele><time>2026-05-04T16:45:55.269Z</time></trkpt><trkpt lat="45.4197641" lon="9.2834634"><ele>101.39999999999999</ele><time>2026-05-04T16:45:57.268Z</time></trkpt><trkpt lat="45.4197584" lon="9.283623"><ele>101.6</ele><time>2026-05-04T16:45:59.278Z</time></trkpt><trkpt lat="45.4197522" lon="9.2837831"><ele>101.8</ele><time>2026-05-04T16:46:01.273Z</time></trkpt><trkpt lat="45.4197512" lon="9.2839374"><ele>102.0</ele><time>2026-05-04T16:46:03.278Z</time></trkpt><trkpt lat="45.4197587" lon="9.2840899"><ele>101.6</ele><time>2026-05-04T16:46:05.275Z</time></trkpt><trkpt lat="45.4197743" lon="9.2842389"><ele>101.19999999999999</ele><time>2026-05-04T16:46:07.271Z</time></trkpt><trkpt lat="45.419782" lon="9.2843772"><ele>100.8</ele><time>2026-05-04T16:46:09.276Z</time></trkpt><trkpt lat="45.4197835" lon="9.2845273"><ele>100.4</ele><time>2026-05-04T16:46:11.273Z</time></trkpt><trkpt lat="45.4197902" lon="9.2846735"><ele>100.0</ele><time>2026-05-04T16:46:13.268Z</time></trkpt><trkpt lat="45.4198461" lon="9.2847858"><ele>100.0</ele><time>2026-05-04T16:46:15.275Z</time></trkpt><trkpt lat="45.4199341" lon="9.2848182"><ele>100.0</ele><time>2026-05-04T16:46:17.277Z</time></trkpt><trkpt lat="45.4200266" lon="9.2848926"><ele>100.0</ele><time>2026-05-04T16:46:19.28Z</time></trkpt><trkpt lat="45.4200867" lon="9.2850185"><ele>100.0</ele><time>2026-05-04T16:46:21.28Z</time></trkpt><trkpt lat="45.4201788" lon="9.2851038"><ele>100.0</ele><time>2026-05-04T16:46:23.271Z</time></trkpt><trkpt lat="45.4202831" lon="9.285062"><ele>100.0</ele><time>2026-05-04T16:46:25.273Z</time></trkpt><trkpt lat="45.4203693" lon="9.2849994"><ele>100.0</ele><time>2026-05-04T16:46:27.274Z</time></trkpt><trkpt lat="45.4204651" lon="9.2849316"><ele>100.0</ele><time>2026-05-04T16:46:29.273Z</time></trkpt><trkpt lat="45.42055" lon="9.2848656"><ele>100.0</ele><time>2026-05-04T16:46:31.269Z</time></trkpt><trkpt lat="45.4206455" lon="9.2849218"><ele>100.0</ele><time>2026-05-04T16:46:33.272Z</time></trkpt><trkpt lat="45.4207157" lon="9.2850366"><ele>100.2</ele><time>2026-05-04T16:46:35.274Z</time></trkpt><trkpt lat="45.4207792" lon="9.2851609"><ele>100.4</ele><time>2026-05-04T16:46:37.273Z</time></trkpt><trkpt lat="45.4208283" lon="9.2852847"><ele>100.6</ele><time>2026-05-04T16:46:39.272Z</time></trkpt><trkpt lat="45.420852" lon="9.2854259"><ele>100.8</ele><time>2026-05-04T16:46:41.281Z</time></trkpt><trkpt lat="45.4208805" lon="9.2855506"><ele>101.0</ele><time>2026-05-04T16:46:43.268Z</time></trkpt><trkpt lat="45.4209113" lon="9.2856744"><ele>100.99999999999999</ele><time>2026-05-04T16:46:45.279Z</time></trkpt><trkpt lat="45.4209298" lon="9.2858061"><ele>101.0</ele><time>2026-05-04T16:46:47.267Z</time></trkpt><trkpt lat="45.4209494" lon="9.2859397"><ele>101.0</ele><time>2026-05-04T16:46:49.281Z</time></trkpt><trkpt lat="45.4209823" lon="9.2860507"><ele>101.0</ele><time>2026-05-04T16:46:51.27Z</time></trkpt><trkpt lat="45.4210379" lon="9.2861348"><ele>100.99999999999999</ele><time>2026-05-04T16:46:53.271Z</time></trkpt><trkpt lat="45.4211135" lon="9.2861884"><ele>101.0</ele><time>2026-05-04T16:46:55.268Z</time></trkpt><trkpt lat="45.4212103" lon="9.2862301"><ele>101.0</ele><time>2026-05-04T16:46:57.271Z</time></trkpt><trkpt lat="45.4213085" lon="9.2862287"><ele>101.0</ele><time>2026-05-04T16:46:59.275Z</time></trkpt><trkpt lat="45.4213952" lon="9.2861998"><ele>101.0</ele><time>2026-05-04T16:47:01.27Z</time></trkpt><trkpt lat="45.4214828" lon="9.2861614"><ele>101.0</ele><time>2026-05-04T16:47:03.273Z</time></trkpt><trkpt lat="45.4215758" lon="9.2861195"><ele>101.0</ele><time>2026-05-04T16:47:05.266Z</time></trkpt><trkpt lat="45.4216696" lon="9.2860762"><ele>100.4</ele><time>2026-05-04T16:47:07.265Z</time></trkpt><trkpt lat="45.4217665" lon="9.2860354"><ele>99.8</ele><time>2026-05-04T16:47:09.269Z</time></trkpt><trkpt lat="45.4218681" lon="9.2859949"><ele>99.2</ele><time>2026-05-04T16:47:11.277Z</time></trkpt><trkpt lat="45.4219696" lon="9.285953"><ele>98.60000000000001</ele><time>2026-05-04T16:47:13.268Z</time></trkpt><trkpt lat="45.4220703" lon="9.2859136"><ele>98.0</ele><time>2026-05-04T16:47:15.274Z</time></trkpt><trkpt lat="45.4221781" lon="9.2858874"><ele>98.0</ele><time>2026-05-04T16:47:17.274Z</time></trkpt><trkpt lat="45.4222786" lon="9.2858485"><ele>98.0</ele><time>2026-05-04T16:47:19.274Z</time></trkpt><trkpt lat="45.4223869" lon="9.2858079"><ele>98.0</ele><time>2026-05-04T16:47:21.273Z</time></trkpt><trkpt lat="45.4224865" lon="9.2857768"><ele>98.0</ele><time>2026-05-04T16:47:23.271Z</time></trkpt><trkpt lat="45.4225831" lon="9.2857933"><ele>98.0</ele><time>2026-05-04T16:47:25.275Z</time></trkpt><trkpt lat="45.4226502" lon="9.285886"><ele>97.99999999999999</ele><time>2026-05-04T16:47:27.272Z</time></trkpt><trkpt lat="45.4226716" lon="9.2859972"><ele>98.0</ele><time>2026-05-04T16:47:29.277Z</time></trkpt><trkpt lat="45.422683" lon="9.286129"><ele>98.0</ele><time>2026-05-04T16:47:31.278Z</time></trkpt><trkpt lat="45.4227008" lon="9.2862564"><ele>98.0</ele><time>2026-05-04T16:47:33.274Z</time></trkpt><trkpt lat="45.4227117" lon="9.2863798"><ele>97.99999999999999</ele><time>2026-05-04T16:47:35.278Z</time></trkpt><trkpt lat="45.4227276" lon="9.2865083"><ele>98.0</ele><time>2026-05-04T16:47:37.274Z</time></trkpt><trkpt lat="45.4227473" lon="9.2866379"><ele>97.99999999999999</ele><time>2026-05-04T16:47:39.285Z</time></trkpt><trkpt lat="45.4227741" lon="9.2867553"><ele>98.0</ele><time>2026-05-04T16:47:41.281Z</time></trkpt><trkpt lat="45.4227833" lon="9.2868764"><ele>98.0</ele><time>2026-05-04T16:47:43.27Z</time></trkpt><trkpt lat="45.4227941" lon="9.2869971"><ele>98.0</ele><time>2026-05-04T16:47:45.273Z</time></trkpt><trkpt lat="45.4228136" lon="9.287101"><ele>97.99999999999999</ele><time>2026-05-04T16:47:47.267Z</time></trkpt><trkpt lat="45.4228334" lon="9.2872034"><ele>98.0</ele><time>2026-05-04T16:47:49.27Z</time></trkpt><trkpt lat="45.422848" lon="9.2872917"><ele>97.99999999999999</ele><time>2026-05-04T16:47:51.28Z</time></trkpt><trkpt lat="45.4228657" lon="9.2873846"><ele>98.0</ele><time>2026-05-04T16:47:53.272Z</time></trkpt><trkpt lat="45.4228925" lon="9.287497"><ele>98.0</ele><time>2026-05-04T16:47:55.273Z</time></trkpt><trkpt lat="45.422916" lon="9.2876119"><ele>98.0</ele><time>2026-05-04T16:47:57.271Z</time></trkpt><trkpt lat="45.4229422" lon="9.2877318"><ele>97.99999999999999</ele><time>2026-05-04T16:47:59.27Z</time></trkpt><trkpt lat="45.4229579" lon="9.287858"><ele>98.0</ele><time>2026-05-04T16:48:01.275Z</time></trkpt><trkpt lat="45.4229813" lon="9.2879772"><ele>98.33333333333333</ele><time>2026-05-04T16:48:03.279Z</time></trkpt><trkpt lat="45.4230061" lon="9.2880979"><ele>98.66666666666666</ele><time>2026-05-04T16:48:05.265Z</time></trkpt><trkpt lat="45.4230288" lon="9.2882266"><ele>99.0</ele><time>2026-05-04T16:48:07.269Z</time></trkpt><trkpt lat="45.4230467" lon="9.2883477"><ele>99.33333333333334</ele><time>2026-05-04T16:48:09.268Z</time></trkpt><trkpt lat="45.4230611" lon="9.2884722"><ele>99.66666666666667</ele><time>2026-05-04T16:48:11.271Z</time></trkpt><trkpt lat="45.4230712" lon="9.2886026"><ele>100.0</ele><time>2026-05-04T16:48:13.272Z</time></trkpt><trkpt lat="45.4230854" lon="9.2887252"><ele>100.0</ele><time>2026-05-04T16:48:15.271Z</time></trkpt><trkpt lat="45.4230944" lon="9.2888467"><ele>100.0</ele><time>2026-05-04T16:48:17.27Z</time></trkpt><trkpt lat="45.4231082" lon="9.2889721"><ele>100.0</ele><time>2026-05-04T16:48:19.279Z</time></trkpt><trkpt lat="45.4231196" lon="9.2891106"><ele>100.0</ele><time>2026-05-04T16:48:21.277Z</time></trkpt><trkpt lat="45.4231402" lon="9.2892693"><ele>100.0</ele><time>2026-05-04T16:48:23.275Z</time></trkpt><trkpt lat="45.4231555" lon="9.2894394"><ele>100.14285714285715</ele><time>2026-05-04T16:48:25.272Z</time></trkpt><trkpt lat="45.423164" lon="9.2895306"><ele>100.28571428571429</ele><time>2026-05-04T16:48:26.27Z</time></trkpt><trkpt lat="45.4231759" lon="9.2896236"><ele>100.42857142857143</ele><time>2026-05-04T16:48:27.275Z</time></trkpt><trkpt lat="45.4231853" lon="9.2897225"><ele>100.57142857142858</ele><time>2026-05-04T16:48:28.273Z</time></trkpt><trkpt lat="45.4231958" lon="9.2898159"><ele>100.71428571428571</ele><time>2026-05-04T16:48:29.269Z</time></trkpt><trkpt lat="45.4231876" lon="9.2899118"><ele>100.85714285714286</ele><time>2026-05-04T16:48:30.273Z</time></trkpt><trkpt lat="45.4231695" lon="9.290007"><ele>101.0</ele><time>2026-05-04T16:48:31.286Z</time></trkpt><trkpt lat="45.4231404" lon="9.290101"><ele>101.0</ele><time>2026-05-04T16:48:32.272Z</time></trkpt><trkpt lat="45.4231107" lon="9.2901857"><ele>101.0</ele><time>2026-05-04T16:48:33.277Z</time></trkpt><trkpt lat="45.4230308" lon="9.2903246"><ele>101.0</ele><time>2026-05-04T16:48:35.272Z</time></trkpt><trkpt lat="45.422945" lon="9.290423"><ele>101.0</ele><time>2026-05-04T16:48:37.269Z</time></trkpt><trkpt lat="45.4228521" lon="9.2905014"><ele>101.0</ele><time>2026-05-04T16:48:39.276Z</time></trkpt><trkpt lat="45.4227553" lon="9.290558"><ele>100.49999999999999</ele><time>2026-05-04T16:48:41.276Z</time></trkpt><trkpt lat="45.4226756" lon="9.2906014"><ele>100.0</ele><time>2026-05-04T16:48:43.277Z</time></trkpt><trkpt lat="45.4226568" lon="9.2907138"><ele>99.5</ele><time>2026-05-04T16:48:46.267Z</time></trkpt><trkpt lat="45.4226863" lon="9.2908068"><ele>99.0</ele><time>2026-05-04T16:48:48.268Z</time></trkpt><trkpt lat="45.4227179" lon="9.2908996"><ele>98.49999999999999</ele><time>2026-05-04T16:48:50.268Z</time></trkpt><trkpt lat="45.4227921" lon="9.2908965"><ele>98.0</ele><time>2026-05-04T16:48:52.27Z</time></trkpt><trkpt lat="45.4228581" lon="9.2908337"><ele>97.99999999999999</ele><time>2026-05-04T16:48:54.27Z</time></trkpt><trkpt lat="45.4229264" lon="9.2907842"><ele>98.0</ele><time>2026-05-04T16:48:56.274Z</time></trkpt><trkpt lat="45.4229943" lon="9.2907326"><ele>98.0</ele><time>2026-05-04T16:48:58.269Z</time></trkpt><trkpt lat="45.4230667" lon="9.2907057"><ele>98.0</ele><time>2026-05-04T16:49:00.281Z</time></trkpt><trkpt lat="45.4231396" lon="9.2907008"><ele>97.99999999999999</ele><time>2026-05-04T16:49:02.268Z</time></trkpt><trkpt lat="45.4232113" lon="9.2907055"><ele>98.0</ele><time>2026-05-04T16:49:04.268Z</time></trkpt><trkpt lat="45.4232881" lon="9.2906926"><ele>98.57142857142857</ele><time>2026-05-04T16:49:07.272Z</time></trkpt><trkpt lat="45.4233451" lon="9.2906362"><ele>99.14285714285714</ele><time>2026-05-04T16:49:10.269Z</time></trkpt><trkpt lat="45.4234051" lon="9.2906763"><ele>99.71428571428572</ele><time>2026-05-04T16:49:13.273Z</time></trkpt><trkpt lat="45.4234691" lon="9.2907064"><ele>100.28571428571428</ele><time>2026-05-04T16:49:19.272Z</time></trkpt><trkpt lat="45.4235343" lon="9.2907525"><ele>100.85714285714286</ele><time>2026-05-04T16:49:21.273Z</time></trkpt><trkpt lat="45.4236099" lon="9.2907414"><ele>101.42857142857143</ele><time>2026-05-04T16:49:23.265Z</time></trkpt><trkpt lat="45.4236866" lon="9.2907292"><ele>102.0</ele><time>2026-05-04T16:49:25.261Z</time></trkpt><trkpt lat="45.423764" lon="9.2907119"><ele>102.16666666666667</ele><time>2026-05-04T16:49:27.268Z</time></trkpt><trkpt lat="45.4238202" lon="9.2907669"><ele>102.33333333333334</ele><time>2026-05-04T16:49:29.278Z</time></trkpt><trkpt lat="45.4238794" lon="9.2908445"><ele>102.5</ele><time>2026-05-04T16:49:31.275Z</time></trkpt><trkpt lat="45.4239198" lon="9.2909148"><ele>102.66666666666667</ele><time>2026-05-04T16:49:33.27Z</time></trkpt><trkpt lat="45.4240174" lon="9.2909146"><ele>102.83333333333334</ele><time>2026-05-04T16:49:36.268Z</time></trkpt><trkpt lat="45.4240814" lon="9.2909623"><ele>103.0</ele><time>2026-05-04T16:49:38.27Z</time></trkpt><trkpt lat="45.4240939" lon="9.2910778"><ele>103.00000000000001</ele><time>2026-05-04T16:49:40.272Z</time></trkpt><trkpt lat="45.4241115" lon="9.2911839"><ele>103.0</ele><time>2026-05-04T16:49:42.272Z</time></trkpt><trkpt lat="45.4241196" lon="9.2912985"><ele>103.0</ele><time>2026-05-04T16:49:44.275Z</time></trkpt><trkpt lat="45.4241318" lon="9.291434"><ele>103.0</ele><time>2026-05-04T16:49:46.268Z</time></trkpt><trkpt lat="45.4241468" lon="9.2915631"><ele>103.00000000000001</ele><time>2026-05-04T16:49:48.271Z</time></trkpt><trkpt lat="45.42416" lon="9.2916869"><ele>103.0</ele><time>2026-05-04T16:49:50.267Z</time></trkpt><trkpt lat="45.4241664" lon="9.2918077"><ele>102.83333333333334</ele><time>2026-05-04T16:49:52.275Z</time></trkpt><trkpt lat="45.4241756" lon="9.2919196"><ele>102.66666666666667</ele><time>2026-05-04T16:49:54.274Z</time></trkpt><trkpt lat="45.4242338" lon="9.291955"><ele>102.5</ele><time>2026-05-04T16:49:57.272Z</time></trkpt><trkpt lat="45.4243088" lon="9.2919217"><ele>102.33333333333334</ele><time>2026-05-04T16:49:59.269Z</time></trkpt><trkpt lat="45.4243924" lon="9.2918768"><ele>102.16666666666667</ele><time>2026-05-04T16:50:01.274Z</time></trkpt><trkpt lat="45.4244758" lon="9.291837"><ele>102.0</ele><time>2026-05-04T16:50:03.281Z</time></trkpt><trkpt lat="45.4245677" lon="9.2918492"><ele>102.0</ele><time>2026-05-04T16:50:05.265Z</time></trkpt><trkpt lat="45.4246233" lon="9.2919779"><ele>102.0</ele><time>2026-05-04T16:50:07.276Z</time></trkpt><trkpt lat="45.4246626" lon="9.2920922"><ele>102.0</ele><time>2026-05-04T16:50:09.269Z</time></trkpt><trkpt lat="45.4247076" lon="9.2922003"><ele>102.0</ele><time>2026-05-04T16:50:11.275Z</time></trkpt><trkpt lat="45.4247503" lon="9.2923115"><ele>102.0</ele><time>2026-05-04T16:50:13.269Z</time></trkpt><trkpt lat="45.4248033" lon="9.292432"><ele>102.39999999999999</ele><time>2026-05-04T16:50:15.263Z</time></trkpt><trkpt lat="45.4248468" lon="9.2925505"><ele>102.8</ele><time>2026-05-04T16:50:17.271Z</time></trkpt><trkpt lat="45.4248837" lon="9.2926772"><ele>103.2</ele><time>2026-05-04T16:50:19.278Z</time></trkpt><trkpt lat="45.4249258" lon="9.2928163"><ele>103.6</ele><time>2026-05-04T16:50:21.27Z</time></trkpt><trkpt lat="45.424965" lon="9.2929518"><ele>104.0</ele><time>2026-05-04T16:50:23.271Z</time></trkpt><trkpt lat="45.425014" lon="9.2930753"><ele>103.6</ele><time>2026-05-04T16:50:25.276Z</time></trkpt><trkpt lat="45.4250671" lon="9.2932147"><ele>103.2</ele><time>2026-05-04T16:50:27.273Z</time></trkpt><trkpt lat="45.4251288" lon="9.2933404"><ele>102.8</ele><time>2026-05-04T16:50:29.274Z</time></trkpt><trkpt lat="45.4251862" lon="9.2934691"><ele>102.39999999999999</ele><time>2026-05-04T16:50:31.269Z</time></trkpt><trkpt lat="45.4252312" lon="9.293591"><ele>102.0</ele><time>2026-05-04T16:50:33.274Z</time></trkpt><trkpt lat="45.4252679" lon="9.2937175"><ele>102.0</ele><time>2026-05-04T16:50:35.268Z</time></trkpt><trkpt lat="45.4252985" lon="9.293852"><ele>102.0</ele><time>2026-05-04T16:50:37.273Z</time></trkpt><trkpt lat="45.4253302" lon="9.2939951"><ele>102.0</ele><time>2026-05-04T16:50:39.268Z</time></trkpt><trkpt lat="45.4253613" lon="9.294145"><ele>102.0</ele><time>2026-05-04T16:50:41.271Z</time></trkpt><trkpt lat="45.4253806" lon="9.2942881"><ele>102.0</ele><time>2026-05-04T16:50:43.27Z</time></trkpt><trkpt lat="45.4254138" lon="9.2943996"><ele>102.0</ele><time>2026-05-04T16:50:45.273Z</time></trkpt><trkpt lat="45.4254541" lon="9.2944965"><ele>102.0</ele><time>2026-05-04T16:50:47.264Z</time></trkpt><trkpt lat="45.4255304" lon="9.2945325"><ele>102.0</ele><time>2026-05-04T16:50:49.271Z</time></trkpt><trkpt lat="45.4256101" lon="9.2944521"><ele>102.0</ele><time>2026-05-04T16:50:51.272Z</time></trkpt><trkpt lat="45.4256716" lon="9.2943864"><ele>102.0</ele><time>2026-05-04T16:50:53.268Z</time></trkpt><trkpt lat="45.4257454" lon="9.2943399"><ele>102.0</ele><time>2026-05-04T16:50:55.271Z</time></trkpt><trkpt lat="45.4258187" lon="9.2943002"><ele>102.0</ele><time>2026-05-04T16:50:57.274Z</time></trkpt><trkpt lat="45.4259175" lon="9.2943033"><ele>102.0</ele><time>2026-05-04T16:50:59.272Z</time></trkpt><trkpt lat="45.4260228" lon="9.2943466"><ele>102.0</ele><time>2026-05-04T16:51:01.278Z</time></trkpt><trkpt lat="45.4261242" lon="9.2943266"><ele>102.0</ele><time>2026-05-04T16:51:03.279Z</time></trkpt><trkpt lat="45.4262215" lon="9.2942669"><ele>102.0</ele><time>2026-05-04T16:51:05.272Z</time></trkpt><trkpt lat="45.426311" lon="9.2942214"><ele>101.8</ele><time>2026-05-04T16:51:07.279Z</time></trkpt><trkpt lat="45.4264033" lon="9.2941679"><ele>101.6</ele><time>2026-05-04T16:51:09.267Z</time></trkpt><trkpt lat="45.4264947" lon="9.2941154"><ele>101.39999999999999</ele><time>2026-05-04T16:51:11.266Z</time></trkpt><trkpt lat="45.4265783" lon="9.2940577"><ele>101.19999999999999</ele><time>2026-05-04T16:51:13.27Z</time></trkpt><trkpt lat="45.4266677" lon="9.2940043"><ele>101.0</ele><time>2026-05-04T16:51:15.263Z</time></trkpt><trkpt lat="45.4267661" lon="9.2939466"><ele>101.19999999999999</ele><time>2026-05-04T16:51:17.267Z</time></trkpt><trkpt lat="45.4268703" lon="9.2939075"><ele>101.39999999999999</ele><time>2026-05-04T16:51:19.272Z</time></trkpt><trkpt lat="45.4269625" lon="9.2938511"><ele>101.6</ele><time>2026-05-04T16:51:21.272Z</time></trkpt><trkpt lat="45.4270462" lon="9.2937973"><ele>101.8</ele><time>2026-05-04T16:51:23.279Z</time></trkpt><trkpt lat="45.4271446" lon="9.2937534"><ele>102.0</ele><time>2026-05-04T16:51:25.271Z</time></trkpt><trkpt lat="45.4272315" lon="9.2937015"><ele>102.19999999999999</ele><time>2026-05-04T16:51:27.272Z</time></trkpt><trkpt lat="45.4273246" lon="9.2936621"><ele>102.4</ele><time>2026-05-04T16:51:29.274Z</time></trkpt><trkpt lat="45.4274225" lon="9.2936543"><ele>102.6</ele><time>2026-05-04T16:51:31.271Z</time></trkpt><trkpt lat="45.4274829" lon="9.2938045"><ele>102.80000000000001</ele><time>2026-05-04T16:51:33.272Z</time></trkpt><trkpt lat="45.4275111" lon="9.2939751"><ele>103.0</ele><time>2026-05-04T16:51:35.275Z</time></trkpt><trkpt lat="45.4275299" lon="9.2941018"><ele>102.60000000000001</ele><time>2026-05-04T16:51:37.267Z</time></trkpt><trkpt lat="45.4275548" lon="9.2942329"><ele>102.2</ele><time>2026-05-04T16:51:39.275Z</time></trkpt><trkpt lat="45.427588" lon="9.294366"><ele>101.8</ele><time>2026-05-04T16:51:41.27Z</time></trkpt><trkpt lat="45.4276188" lon="9.2945029"><ele>101.4</ele><time>2026-05-04T16:51:43.278Z</time></trkpt><trkpt lat="45.4276566" lon="9.2946335"><ele>101.0</ele><time>2026-05-04T16:51:45.265Z</time></trkpt><trkpt lat="45.4276938" lon="9.2947708"><ele>100.83333333333333</ele><time>2026-05-04T16:51:47.277Z</time></trkpt><trkpt lat="45.4277236" lon="9.2949011"><ele>100.66666666666666</ele><time>2026-05-04T16:51:49.278Z</time></trkpt><trkpt lat="45.4277549" lon="9.2950218"><ele>100.5</ele><time>2026-05-04T16:51:51.274Z</time></trkpt><trkpt lat="45.4277767" lon="9.2951359"><ele>100.33333333333334</ele><time>2026-05-04T16:51:53.278Z</time></trkpt><trkpt lat="45.42779" lon="9.2952491"><ele>100.16666666666667</ele><time>2026-05-04T16:51:55.266Z</time></trkpt><trkpt lat="45.4278162" lon="9.2953593"><ele>100.0</ele><time>2026-05-04T16:51:57.277Z</time></trkpt><trkpt lat="45.4278529" lon="9.2954708"><ele>100.16666666666667</ele><time>2026-05-04T16:51:59.269Z</time></trkpt><trkpt lat="45.4278853" lon="9.295594"><ele>100.33333333333334</ele><time>2026-05-04T16:52:02.269Z</time></trkpt><trkpt lat="45.4279205" lon="9.2956891"><ele>100.5</ele><time>2026-05-04T16:52:05.269Z</time></trkpt><trkpt lat="45.4279908" lon="9.2956513"><ele>100.66666666666666</ele><time>2026-05-04T16:52:08.273Z</time></trkpt><trkpt lat="45.4280744" lon="9.2956364"><ele>100.83333333333333</ele><time>2026-05-04T16:52:11.273Z</time></trkpt><trkpt lat="45.4281381" lon="9.2956987"><ele>101.0</ele><time>2026-05-04T16:52:14.271Z</time></trkpt><trkpt lat="45.4282002" lon="9.2957416"><ele>100.99999999999999</ele><time>2026-05-04T16:52:18.27Z</time></trkpt><trkpt lat="45.4282295" lon="9.2958545"><ele>101.0</ele><time>2026-05-04T16:52:25.27Z</time></trkpt><trkpt lat="45.4282084" lon="9.295972"><ele>101.0</ele><time>2026-05-04T16:52:28.268Z</time></trkpt><trkpt lat="45.4281743" lon="9.2960654"><ele>101.0</ele><time>2026-05-04T16:52:31.271Z</time></trkpt><trkpt lat="45.4281777" lon="9.2961705"><ele>100.99999999999999</ele><time>2026-05-04T16:52:33.282Z</time></trkpt><trkpt lat="45.4281795" lon="9.2962899"><ele>101.0</ele><time>2026-05-04T16:52:35.268Z</time></trkpt><trkpt lat="45.4281847" lon="9.2963917"><ele>101.33333333333333</ele><time>2026-05-04T16:52:37.272Z</time></trkpt><trkpt lat="45.4281926" lon="9.2964877"><ele>101.66666666666666</ele><time>2026-05-04T16:52:39.276Z</time></trkpt><trkpt lat="45.4282027" lon="9.2966095"><ele>102.0</ele><time>2026-05-04T16:52:41.268Z</time></trkpt><trkpt lat="45.4282132" lon="9.296725"><ele>102.33333333333334</ele><time>2026-05-04T16:52:43.271Z</time></trkpt><trkpt lat="45.4282313" lon="9.296855"><ele>102.66666666666667</ele><time>2026-05-04T16:52:45.281Z</time></trkpt><trkpt lat="45.4282474" lon="9.2969793"><ele>103.0</ele><time>2026-05-04T16:52:47.274Z</time></trkpt><trkpt lat="45.4282574" lon="9.2970959"><ele>103.0</ele><time>2026-05-04T16:52:49.272Z</time></trkpt><trkpt lat="45.4282671" lon="9.297222"><ele>103.0</ele><time>2026-05-04T16:52:51.268Z</time></trkpt><trkpt lat="45.4282256" lon="9.297343"><ele>103.0</ele><time>2026-05-04T16:52:53.272Z</time></trkpt><trkpt lat="45.4282316" lon="9.2974797"><ele>103.0</ele><time>2026-05-04T16:52:55.277Z</time></trkpt><trkpt lat="45.4282546" lon="9.2976015"><ele>103.0</ele><time>2026-05-04T16:52:57.277Z</time></trkpt><trkpt lat="45.4282648" lon="9.297733"><ele>102.60000000000001</ele><time>2026-05-04T16:52:59.272Z</time></trkpt><trkpt lat="45.4282799" lon="9.2978675"><ele>102.2</ele><time>2026-05-04T16:53:01.274Z</time></trkpt><trkpt lat="45.4282895" lon="9.2980065"><ele>101.8</ele><time>2026-05-04T16:53:03.271Z</time></trkpt><trkpt lat="45.4283019" lon="9.2981444"><ele>101.4</ele><time>2026-05-04T16:53:05.271Z</time></trkpt><trkpt lat="45.4283198" lon="9.298289"><ele>101.0</ele><time>2026-05-04T16:53:07.267Z</time></trkpt><trkpt lat="45.4283436" lon="9.298414"><ele>101.4</ele><time>2026-05-04T16:53:09.273Z</time></trkpt><trkpt lat="45.428373" lon="9.2985402"><ele>101.8</ele><time>2026-05-04T16:53:11.272Z</time></trkpt><trkpt lat="45.428388" lon="9.2986659"><ele>102.2</ele><time>2026-05-04T16:53:13.263Z</time></trkpt><trkpt lat="45.4284038" lon="9.2987978"><ele>102.60000000000001</ele><time>2026-05-04T16:53:15.272Z</time></trkpt><trkpt lat="45.4284116" lon="9.2989371"><ele>103.0</ele><time>2026-05-04T16:53:17.269Z</time></trkpt><trkpt lat="45.4284357" lon="9.2990764"><ele>103.0</ele><time>2026-05-04T16:53:19.269Z</time></trkpt><trkpt lat="45.4284513" lon="9.2991966"><ele>103.0</ele><time>2026-05-04T16:53:21.279Z</time></trkpt><trkpt lat="45.4284646" lon="9.2993422"><ele>103.0</ele><time>2026-05-04T16:53:23.283Z</time></trkpt><trkpt lat="45.4284849" lon="9.2994963"><ele>103.0</ele><time>2026-05-04T16:53:25.273Z</time></trkpt><trkpt lat="45.4284975" lon="9.299641"><ele>103.0</ele><time>2026-05-04T16:53:27.268Z</time></trkpt><trkpt lat="45.4285116" lon="9.2997891"><ele>103.2</ele><time>2026-05-04T16:53:29.274Z</time></trkpt><trkpt lat="45.4285271" lon="9.299927"><ele>103.4</ele><time>2026-05-04T16:53:31.273Z</time></trkpt><trkpt lat="45.4285473" lon="9.3000655"><ele>103.60000000000001</ele><time>2026-05-04T16:53:33.269Z</time></trkpt><trkpt lat="45.4285675" lon="9.300207"><ele>103.80000000000001</ele><time>2026-05-04T16:53:35.265Z</time></trkpt><trkpt lat="45.4285853" lon="9.300343"><ele>104.0</ele><time>2026-05-04T16:53:37.275Z</time></trkpt><trkpt lat="45.4286031" lon="9.3004796"><ele>104.4</ele><time>2026-05-04T16:53:39.277Z</time></trkpt><trkpt lat="45.4286248" lon="9.3006142"><ele>104.80000000000001</ele><time>2026-05-04T16:53:41.284Z</time></trkpt><trkpt lat="45.4286333" lon="9.3007503"><ele>105.19999999999999</ele><time>2026-05-04T16:53:43.267Z</time></trkpt><trkpt lat="45.4286562" lon="9.3008817"><ele>105.6</ele><time>2026-05-04T16:53:45.277Z</time></trkpt><trkpt lat="45.4286737" lon="9.3010219"><ele>106.0</ele><time>2026-05-04T16:53:47.278Z</time></trkpt><trkpt lat="45.4286933" lon="9.3011453"><ele>106.0</ele><time>2026-05-04T16:53:49.28Z</time></trkpt><trkpt lat="45.4287058" lon="9.3012835"><ele>106.0</ele><time>2026-05-04T16:53:51.274Z</time></trkpt><trkpt lat="45.4287297" lon="9.3014201"><ele>106.0</ele><time>2026-05-04T16:53:53.275Z</time></trkpt><trkpt lat="45.428761" lon="9.3015767"><ele>106.0</ele><time>2026-05-04T16:53:55.287Z</time></trkpt><trkpt lat="45.428787" lon="9.3017372"><ele>106.0</ele><time>2026-05-04T16:53:57.273Z</time></trkpt><trkpt lat="45.4287772" lon="9.3018782"><ele>106.0</ele><time>2026-05-04T16:53:59.278Z</time></trkpt><trkpt lat="45.4287994" lon="9.302023"><ele>106.0</ele><time>2026-05-04T16:54:01.271Z</time></trkpt><trkpt lat="45.4288404" lon="9.3021553"><ele>106.0</ele><time>2026-05-04T16:54:03.276Z</time></trkpt><trkpt lat="45.4288714" lon="9.3022939"><ele>106.0</ele><time>2026-05-04T16:54:05.278Z</time></trkpt><trkpt lat="45.4288846" lon="9.3024126"><ele>106.0</ele><time>2026-05-04T16:54:07.272Z</time></trkpt><trkpt lat="45.4289468" lon="9.3024296"><ele>105.6</ele><time>2026-05-04T16:54:11.285Z</time></trkpt><trkpt lat="45.4289046" lon="9.3025579"><ele>105.19999999999999</ele><time>2026-05-04T16:54:15.268Z</time></trkpt><trkpt lat="45.4288884" lon="9.3027007"><ele>104.80000000000001</ele><time>2026-05-04T16:54:17.273Z</time></trkpt><trkpt lat="45.4288818" lon="9.3028271"><ele>104.4</ele><time>2026-05-04T16:54:19.276Z</time></trkpt><trkpt lat="45.4288828" lon="9.3029556"><ele>104.0</ele><time>2026-05-04T16:54:21.276Z</time></trkpt><trkpt lat="45.4289022" lon="9.303059"><ele>103.80000000000001</ele><time>2026-05-04T16:54:23.269Z</time></trkpt><trkpt lat="45.4289106" lon="9.30319"><ele>103.60000000000001</ele><time>2026-05-04T16:54:25.273Z</time></trkpt><trkpt lat="45.4289234" lon="9.3033425"><ele>103.4</ele><time>2026-05-04T16:54:27.273Z</time></trkpt><trkpt lat="45.4289327" lon="9.3034819"><ele>103.2</ele><time>2026-05-04T16:54:29.276Z</time></trkpt><trkpt lat="45.4289394" lon="9.3036126"><ele>103.0</ele><time>2026-05-04T16:54:31.272Z</time></trkpt><trkpt lat="45.4289487" lon="9.3037476"><ele>103.0</ele><time>2026-05-04T16:54:33.273Z</time></trkpt><trkpt lat="45.4289664" lon="9.3038926"><ele>103.0</ele><time>2026-05-04T16:54:35.272Z</time></trkpt><trkpt lat="45.4289728" lon="9.3040222"><ele>103.0</ele><time>2026-05-04T16:54:37.272Z</time></trkpt><trkpt lat="45.4289751" lon="9.304165"><ele>103.0</ele><time>2026-05-04T16:54:39.272Z</time></trkpt><trkpt lat="45.42898" lon="9.3043021"><ele>103.0</ele><time>2026-05-04T16:54:41.269Z</time></trkpt><trkpt lat="45.4289837" lon="9.3044478"><ele>103.2</ele><time>2026-05-04T16:54:43.271Z</time></trkpt><trkpt lat="45.4289942" lon="9.3045829"><ele>103.4</ele><time>2026-05-04T16:54:45.283Z</time></trkpt><trkpt lat="45.4290055" lon="9.3047124"><ele>103.60000000000001</ele><time>2026-05-04T16:54:47.275Z</time></trkpt><trkpt lat="45.4290202" lon="9.3048542"><ele>103.80000000000001</ele><time>2026-05-04T16:54:49.273Z</time></trkpt><trkpt lat="45.4290277" lon="9.3050007"><ele>104.0</ele><time>2026-05-04T16:54:51.277Z</time></trkpt><trkpt lat="45.4290405" lon="9.3051363"><ele>104.0</ele><time>2026-05-04T16:54:53.269Z</time></trkpt><trkpt lat="45.4290492" lon="9.3052811"><ele>104.0</ele><time>2026-05-04T16:54:55.279Z</time></trkpt><trkpt lat="45.4290527" lon="9.3054186"><ele>104.0</ele><time>2026-05-04T16:54:57.267Z</time></trkpt><trkpt lat="45.4290613" lon="9.3055605"><ele>104.0</ele><time>2026-05-04T16:54:59.27Z</time></trkpt><trkpt lat="45.4290608" lon="9.3057091"><ele>104.0</ele><time>2026-05-04T16:55:01.274Z</time></trkpt><trkpt lat="45.4290771" lon="9.3058454"><ele>104.0</ele><time>2026-05-04T16:55:03.276Z</time></trkpt><trkpt lat="45.4290925" lon="9.3059932"><ele>104.0</ele><time>2026-05-04T16:55:05.273Z</time></trkpt><trkpt lat="45.429097" lon="9.3061217"><ele>104.0</ele><time>2026-05-04T16:55:07.273Z</time></trkpt><trkpt lat="45.4291008" lon="9.3062526"><ele>104.0</ele><time>2026-05-04T16:55:09.274Z</time></trkpt><trkpt lat="45.4291065" lon="9.3063869"><ele>104.0</ele><time>2026-05-04T16:55:11.28Z</time></trkpt><trkpt lat="45.4291061" lon="9.3065242"><ele>104.0</ele><time>2026-05-04T16:55:13.271Z</time></trkpt><trkpt lat="45.4291033" lon="9.306656"><ele>104.0</ele><time>2026-05-04T16:55:15.276Z</time></trkpt><trkpt lat="45.4291035" lon="9.3067929"><ele>104.0</ele><time>2026-05-04T16:55:17.275Z</time></trkpt><trkpt lat="45.429104" lon="9.3069183"><ele>104.0</ele><time>2026-05-04T16:55:19.27Z</time></trkpt><trkpt lat="45.4291215" lon="9.3070686"><ele>104.0</ele><time>2026-05-04T16:55:21.275Z</time></trkpt><trkpt lat="45.42918" lon="9.3071753"><ele>103.99999999999999</ele><time>2026-05-04T16:55:23.265Z</time></trkpt><trkpt lat="45.4292348" lon="9.3072304"><ele>104.0</ele><time>2026-05-04T16:55:25.271Z</time></trkpt><trkpt lat="45.4293262" lon="9.3071968"><ele>104.0</ele><time>2026-05-04T16:55:27.276Z</time></trkpt><trkpt lat="45.4294228" lon="9.3071665"><ele>104.0</ele><time>2026-05-04T16:55:29.274Z</time></trkpt><trkpt lat="45.4295218" lon="9.3071382"><ele>103.99999999999999</ele><time>2026-05-04T16:55:31.267Z</time></trkpt><trkpt lat="45.429605" lon="9.3071081"><ele>104.0</ele><time>2026-05-04T16:55:33.272Z</time></trkpt><trkpt lat="45.4297028" lon="9.3070738"><ele>104.6</ele><time>2026-05-04T16:55:35.265Z</time></trkpt><trkpt lat="45.4297974" lon="9.3070362"><ele>105.2</ele><time>2026-05-04T16:55:37.273Z</time></trkpt><trkpt lat="45.4298852" lon="9.3070116"><ele>105.79999999999998</ele><time>2026-05-04T16:55:39.274Z</time></trkpt><trkpt lat="45.4299809" lon="9.3069974"><ele>106.39999999999999</ele><time>2026-05-04T16:55:41.274Z</time></trkpt><trkpt lat="45.4300709" lon="9.3069572"><ele>107.0</ele><time>2026-05-04T16:55:43.269Z</time></trkpt><trkpt lat="45.4301635" lon="9.306942"><ele>107.0</ele><time>2026-05-04T16:55:45.268Z</time></trkpt><trkpt lat="45.4302561" lon="9.3069225"><ele>106.99999999999999</ele><time>2026-05-04T16:55:47.263Z</time></trkpt><trkpt lat="45.4303564" lon="9.3069068"><ele>106.99999999999999</ele><time>2026-05-04T16:55:49.269Z</time></trkpt><trkpt lat="45.4304621" lon="9.3068951"><ele>107.0</ele><time>2026-05-04T16:55:51.274Z</time></trkpt><trkpt lat="45.4305694" lon="9.3068613"><ele>107.0</ele><time>2026-05-04T16:55:53.273Z</time></trkpt><trkpt lat="45.43068" lon="9.3068254"><ele>106.0</ele><time>2026-05-04T16:55:55.28Z</time></trkpt><trkpt lat="45.4307712" lon="9.3067992"><ele>104.99999999999999</ele><time>2026-05-04T16:55:57.264Z</time></trkpt><trkpt lat="45.4308575" lon="9.3067806"><ele>104.0</ele><time>2026-05-04T16:55:59.27Z</time></trkpt><trkpt lat="45.4309576" lon="9.3067741"><ele>103.0</ele><time>2026-05-04T16:56:01.272Z</time></trkpt><trkpt lat="45.4310589" lon="9.3067303"><ele>102.0</ele><time>2026-05-04T16:56:03.269Z</time></trkpt><trkpt lat="45.4311581" lon="9.3066785"><ele>102.0</ele><time>2026-05-04T16:56:05.272Z</time></trkpt><trkpt lat="45.4312536" lon="9.3066656"><ele>102.0</ele><time>2026-05-04T16:56:07.27Z</time></trkpt><trkpt lat="45.4313475" lon="9.3067099"><ele>102.0</ele><time>2026-05-04T16:56:09.274Z</time></trkpt><trkpt lat="45.4314426" lon="9.3067195"><ele>102.0</ele><time>2026-05-04T16:56:11.266Z</time></trkpt><trkpt lat="45.4315492" lon="9.3067203"><ele>102.0</ele><time>2026-05-04T16:56:13.269Z</time></trkpt><trkpt lat="45.431643" lon="9.3067252"><ele>102.19999999999999</ele><time>2026-05-04T16:56:15.274Z</time></trkpt><trkpt lat="45.4317449" lon="9.3067278"><ele>102.4</ele><time>2026-05-04T16:56:17.271Z</time></trkpt><trkpt lat="45.431837" lon="9.3067345"><ele>102.6</ele><time>2026-05-04T16:56:19.268Z</time></trkpt><trkpt lat="45.4319299" lon="9.3067514"><ele>102.80000000000001</ele><time>2026-05-04T16:56:21.267Z</time></trkpt><trkpt lat="45.4320317" lon="9.3067588"><ele>103.0</ele><time>2026-05-04T16:56:23.273Z</time></trkpt><trkpt lat="45.432127" lon="9.3067646"><ele>103.4</ele><time>2026-05-04T16:56:25.268Z</time></trkpt><trkpt lat="45.4322248" lon="9.3067687"><ele>103.80000000000001</ele><time>2026-05-04T16:56:27.273Z</time></trkpt><trkpt lat="45.4323193" lon="9.306772"><ele>104.2</ele><time>2026-05-04T16:56:29.267Z</time></trkpt><trkpt lat="45.4324114" lon="9.3067798"><ele>104.6</ele><time>2026-05-04T16:56:31.275Z</time></trkpt><trkpt lat="45.4325218" lon="9.3067743"><ele>105.0</ele><time>2026-05-04T16:56:33.27Z</time></trkpt><trkpt lat="45.4326233" lon="9.3067733"><ele>105.0</ele><time>2026-05-04T16:56:35.269Z</time></trkpt><trkpt lat="45.4327191" lon="9.306784"><ele>105.0</ele><time>2026-05-04T16:56:37.267Z</time></trkpt><trkpt lat="45.4328186" lon="9.3068022"><ele>105.0</ele><time>2026-05-04T16:56:39.271Z</time></trkpt><trkpt lat="45.4329076" lon="9.3068179"><ele>105.0</ele><time>2026-05-04T16:56:41.269Z</time></trkpt><trkpt lat="45.4329965" lon="9.3068191"><ele>105.0</ele><time>2026-05-04T16:56:43.269Z</time></trkpt><trkpt lat="45.4330848" lon="9.3068072"><ele>104.33333333333333</ele><time>2026-05-04T16:56:45.268Z</time></trkpt><trkpt lat="45.4331594" lon="9.306773"><ele>103.66666666666666</ele><time>2026-05-04T16:56:47.271Z</time></trkpt><trkpt lat="45.4332253" lon="9.3067228"><ele>103.0</ele><time>2026-05-04T16:56:50.273Z</time></trkpt><trkpt lat="45.4333057" lon="9.306707"><ele>102.33333333333333</ele><time>2026-05-04T16:56:54.27Z</time></trkpt><trkpt lat="45.4333676" lon="9.3067934"><ele>101.66666666666666</ele><time>2026-05-04T16:56:57.27Z</time></trkpt><trkpt lat="45.4334211" lon="9.3067269"><ele>101.0</ele><time>2026-05-04T16:56:59.272Z</time></trkpt><trkpt lat="45.4334403" lon="9.3066165"><ele>100.99999999999999</ele><time>2026-05-04T16:57:01.28Z</time></trkpt><trkpt lat="45.4334732" lon="9.3065018"><ele>101.0</ele><time>2026-05-04T16:57:03.27Z</time></trkpt><trkpt lat="45.4334942" lon="9.3063924"><ele>101.0</ele><time>2026-05-04T16:57:05.268Z</time></trkpt><trkpt lat="45.4335184" lon="9.3062794"><ele>101.0</ele><time>2026-05-04T16:57:07.273Z</time></trkpt><trkpt lat="45.4335548" lon="9.3061747"><ele>100.99999999999999</ele><time>2026-05-04T16:57:09.27Z</time></trkpt><trkpt lat="45.4335909" lon="9.3060717"><ele>101.0</ele><time>2026-05-04T16:57:11.269Z</time></trkpt><trkpt lat="45.4336243" lon="9.3059645"><ele>101.16666666666666</ele><time>2026-05-04T16:57:13.273Z</time></trkpt><trkpt lat="45.4336543" lon="9.3058493"><ele>101.33333333333333</ele><time>2026-05-04T16:57:15.266Z</time></trkpt><trkpt lat="45.4336891" lon="9.3057315"><ele>101.5</ele><time>2026-05-04T16:57:17.269Z</time></trkpt><trkpt lat="45.4337187" lon="9.3056156"><ele>101.66666666666666</ele><time>2026-05-04T16:57:19.271Z</time></trkpt><trkpt lat="45.4337537" lon="9.3055005"><ele>101.83333333333333</ele><time>2026-05-04T16:57:21.27Z</time></trkpt><trkpt lat="45.4337906" lon="9.305383"><ele>102.0</ele><time>2026-05-04T16:57:23.277Z</time></trkpt><trkpt lat="45.4338271" lon="9.3052623"><ele>102.0</ele><time>2026-05-04T16:57:25.272Z</time></trkpt><trkpt lat="45.4338664" lon="9.3051507"><ele>102.0</ele><time>2026-05-04T16:57:27.271Z</time></trkpt><trkpt lat="45.4338966" lon="9.3050286"><ele>102.0</ele><time>2026-05-04T16:57:29.271Z</time></trkpt><trkpt lat="45.4339263" lon="9.3049104"><ele>102.0</ele><time>2026-05-04T16:57:31.263Z</time></trkpt><trkpt lat="45.4339607" lon="9.3047993"><ele>102.0</ele><time>2026-05-04T16:57:33.278Z</time></trkpt><trkpt lat="45.4339975" lon="9.3046767"><ele>102.0</ele><time>2026-05-04T16:57:35.271Z</time></trkpt><trkpt lat="45.434033" lon="9.3045562"><ele>102.0</ele><time>2026-05-04T16:57:37.285Z</time></trkpt><trkpt lat="45.4340658" lon="9.3044283"><ele>102.0</ele><time>2026-05-04T16:57:39.274Z</time></trkpt><trkpt lat="45.4341013" lon="9.3043026"><ele>102.0</ele><time>2026-05-04T16:57:41.275Z</time></trkpt><trkpt lat="45.4341271" lon="9.3041846"><ele>102.0</ele><time>2026-05-04T16:57:43.277Z</time></trkpt><trkpt lat="45.4341654" lon="9.3040728"><ele>102.0</ele><time>2026-05-04T16:57:45.268Z</time></trkpt><trkpt lat="45.4341991" lon="9.3039435"><ele>102.0</ele><time>2026-05-04T16:57:47.272Z</time></trkpt><trkpt lat="45.4342304" lon="9.3038255"><ele>102.0</ele><time>2026-05-04T16:57:49.279Z</time></trkpt><trkpt lat="45.4342641" lon="9.3037034"><ele>102.0</ele><time>2026-05-04T16:57:51.264Z</time></trkpt><trkpt lat="45.4343019" lon="9.3035807"><ele>102.0</ele><time>2026-05-04T16:57:53.276Z</time></trkpt><trkpt lat="45.4343403" lon="9.30346"><ele>102.0</ele><time>2026-05-04T16:57:55.263Z</time></trkpt><trkpt lat="45.4343761" lon="9.3033239"><ele>102.0</ele><time>2026-05-04T16:57:57.27Z</time></trkpt><trkpt lat="45.4344106" lon="9.303192"><ele>102.0</ele><time>2026-05-04T16:57:59.271Z</time></trkpt><trkpt lat="45.4344446" lon="9.3030516"><ele>102.0</ele><time>2026-05-04T16:58:01.275Z</time></trkpt><trkpt lat="45.4344818" lon="9.3029188"><ele>102.0</ele><time>2026-05-04T16:58:03.275Z</time></trkpt><trkpt lat="45.4345162" lon="9.3027619"><ele>102.0</ele><time>2026-05-04T16:58:05.269Z</time></trkpt><trkpt lat="45.4345651" lon="9.3026294"><ele>101.8</ele><time>2026-05-04T16:58:07.267Z</time></trkpt><trkpt lat="45.4346074" lon="9.3024889"><ele>101.6</ele><time>2026-05-04T16:58:09.273Z</time></trkpt><trkpt lat="45.4346457" lon="9.3023502"><ele>101.39999999999999</ele><time>2026-05-04T16:58:11.272Z</time></trkpt><trkpt lat="45.4346866" lon="9.3022138"><ele>101.19999999999999</ele><time>2026-05-04T16:58:13.279Z</time></trkpt><trkpt lat="45.4347182" lon="9.3020777"><ele>101.0</ele><time>2026-05-04T16:58:15.273Z</time></trkpt><trkpt lat="45.4347531" lon="9.3019515"><ele>101.33333333333333</ele><time>2026-05-04T16:58:17.265Z</time></trkpt><trkpt lat="45.4347852" lon="9.3018312"><ele>101.66666666666666</ele><time>2026-05-04T16:58:19.271Z</time></trkpt><trkpt lat="45.4348088" lon="9.3017222"><ele>102.0</ele><time>2026-05-04T16:58:21.268Z</time></trkpt><trkpt lat="45.4348151" lon="9.3016069"><ele>102.33333333333334</ele><time>2026-05-04T16:58:23.27Z</time></trkpt><trkpt lat="45.4348586" lon="9.3015094"><ele>102.66666666666667</ele><time>2026-05-04T16:58:25.275Z</time></trkpt><trkpt lat="45.4349052" lon="9.3014085"><ele>103.0</ele><time>2026-05-04T16:58:27.273Z</time></trkpt><trkpt lat="45.4349363" lon="9.3013002"><ele>103.00000000000001</ele><time>2026-05-04T16:58:29.261Z</time></trkpt><trkpt lat="45.434969" lon="9.3011907"><ele>103.0</ele><time>2026-05-04T16:58:31.27Z</time></trkpt><trkpt lat="45.4349968" lon="9.3010725"><ele>103.0</ele><time>2026-05-04T16:58:33.268Z</time></trkpt><trkpt lat="45.435029" lon="9.3009555"><ele>103.0</ele><time>2026-05-04T16:58:35.267Z</time></trkpt><trkpt lat="45.435064" lon="9.3008395"><ele>103.00000000000001</ele><time>2026-05-04T16:58:37.275Z</time></trkpt><trkpt lat="45.4350942" lon="9.3007168"><ele>103.0</ele><time>2026-05-04T16:58:39.272Z</time></trkpt><trkpt lat="45.4351243" lon="9.3006055"><ele>103.33333333333334</ele><time>2026-05-04T16:58:41.272Z</time></trkpt><trkpt lat="45.4351916" lon="9.3005225"><ele>103.66666666666667</ele><time>2026-05-04T16:58:43.274Z</time></trkpt><trkpt lat="45.4352698" lon="9.30049"><ele>104.0</ele><time>2026-05-04T16:58:45.265Z</time></trkpt><trkpt lat="45.4353154" lon="9.300386"><ele>104.33333333333334</ele><time>2026-05-04T16:58:48.274Z</time></trkpt><trkpt lat="45.4352544" lon="9.3002896"><ele>104.66666666666667</ele><time>2026-05-04T16:58:50.274Z</time></trkpt><trkpt lat="45.4352286" lon="9.3001894"><ele>105.0</ele><time>2026-05-04T16:58:52.272Z</time></trkpt><trkpt lat="45.4352717" lon="9.3000782"><ele>105.0</ele><time>2026-05-04T16:58:54.268Z</time></trkpt><trkpt lat="45.4353073" lon="9.2999712"><ele>105.0</ele><time>2026-05-04T16:58:56.27Z</time></trkpt><trkpt lat="45.4353364" lon="9.2998531"><ele>105.0</ele><time>2026-05-04T16:58:58.262Z</time></trkpt><trkpt lat="45.4353713" lon="9.2997403"><ele>105.0</ele><time>2026-05-04T16:59:00.265Z</time></trkpt><trkpt lat="45.435409" lon="9.2996274"><ele>105.0</ele><time>2026-05-04T16:59:02.275Z</time></trkpt><trkpt lat="45.4354414" lon="9.2995097"><ele>105.0</ele><time>2026-05-04T16:59:04.274Z</time></trkpt><trkpt lat="45.4354536" lon="9.2993989"><ele>105.0</ele><time>2026-05-04T16:59:06.263Z</time></trkpt><trkpt lat="45.4354392" lon="9.299285"><ele>105.0</ele><time>2026-05-04T16:59:08.273Z</time></trkpt><trkpt lat="45.4354696" lon="9.2991544"><ele>105.0</ele><time>2026-05-04T16:59:10.271Z</time></trkpt><trkpt lat="45.4355153" lon="9.2990328"><ele>105.0</ele><time>2026-05-04T16:59:12.271Z</time></trkpt><trkpt lat="45.4355482" lon="9.2989076"><ele>105.0</ele><time>2026-05-04T16:59:14.275Z</time></trkpt><trkpt lat="45.4355856" lon="9.2987915"><ele>105.0</ele><time>2026-05-04T16:59:16.273Z</time></trkpt><trkpt lat="45.4356189" lon="9.2986717"><ele>105.0</ele><time>2026-05-04T16:59:18.279Z</time></trkpt><trkpt lat="45.4356543" lon="9.29855"><ele>105.0</ele><time>2026-05-04T16:59:20.272Z</time></trkpt><trkpt lat="45.4356891" lon="9.2984357"><ele>105.0</ele><time>2026-05-04T16:59:22.273Z</time></trkpt><trkpt lat="45.4357205" lon="9.2983207"><ele>105.0</ele><time>2026-05-04T16:59:24.27Z</time></trkpt><trkpt lat="45.4357575" lon="9.2982058"><ele>105.0</ele><time>2026-05-04T16:59:26.273Z</time></trkpt><trkpt lat="45.4357903" lon="9.2980891"><ele>105.0</ele><time>2026-05-04T16:59:28.266Z</time></trkpt><trkpt lat="45.4358201" lon="9.2979739"><ele>105.0</ele><time>2026-05-04T16:59:30.272Z</time></trkpt><trkpt lat="45.4358455" lon="9.2978599"><ele>105.0</ele><time>2026-05-04T16:59:32.267Z</time></trkpt><trkpt lat="45.4358773" lon="9.2977333"><ele>105.0</ele><time>2026-05-04T16:59:34.265Z</time></trkpt><trkpt lat="45.4359126" lon="9.2976103"><ele>105.0</ele><time>2026-05-04T16:59:36.27Z</time></trkpt><trkpt lat="45.4359454" lon="9.2974888"><ele>105.0</ele><time>2026-05-04T16:59:38.268Z</time></trkpt><trkpt lat="45.4359808" lon="9.2973772"><ele>105.0</ele><time>2026-05-04T16:59:40.268Z</time></trkpt><trkpt lat="45.4360108" lon="9.2972584"><ele>105.0</ele><time>2026-05-04T16:59:42.277Z</time></trkpt><trkpt lat="45.4360452" lon="9.2971474"><ele>105.0</ele><time>2026-05-04T16:59:44.274Z</time></trkpt><trkpt lat="45.4360757" lon="9.2970373"><ele>105.0</ele><time>2026-05-04T16:59:46.274Z</time></trkpt><trkpt lat="45.4360964" lon="9.2969238"><ele>105.0</ele><time>2026-05-04T16:59:48.27Z</time></trkpt><trkpt lat="45.4361227" lon="9.2968141"><ele>105.0</ele><time>2026-05-04T16:59:50.267Z</time></trkpt><trkpt lat="45.4361484" lon="9.2966998"><ele>104.83333333333333</ele><time>2026-05-04T16:59:52.268Z</time></trkpt><trkpt lat="45.4361756" lon="9.2965841"><ele>104.66666666666666</ele><time>2026-05-04T16:59:54.268Z</time></trkpt><trkpt lat="45.4362105" lon="9.2964753"><ele>104.5</ele><time>2026-05-04T16:59:56.267Z</time></trkpt><trkpt lat="45.4362459" lon="9.2963644"><ele>104.33333333333333</ele><time>2026-05-04T16:59:58.271Z</time></trkpt><trkpt lat="45.4362851" lon="9.2962592"><ele>104.16666666666666</ele><time>2026-05-04T17:00:00.275Z</time></trkpt><trkpt lat="45.436321" lon="9.2961521"><ele>104.0</ele><time>2026-05-04T17:00:02.274Z</time></trkpt><trkpt lat="45.4363559" lon="9.2960396"><ele>103.99999999999999</ele><time>2026-05-04T17:00:04.264Z</time></trkpt><trkpt lat="45.4363796" lon="9.2959262"><ele>104.0</ele><time>2026-05-04T17:00:06.269Z</time></trkpt><trkpt lat="45.4364069" lon="9.2958293"><ele>104.0</ele><time>2026-05-04T17:00:08.271Z</time></trkpt><trkpt lat="45.43644" lon="9.2957483"><ele>104.0</ele><time>2026-05-04T17:00:10.271Z</time></trkpt><trkpt lat="45.4364785" lon="9.2956729"><ele>103.99999999999999</ele><time>2026-05-04T17:00:13.273Z</time></trkpt><trkpt lat="45.4364993" lon="9.2955453"><ele>104.0</ele><time>2026-05-04T17:00:17.271Z</time></trkpt><trkpt lat="45.436559" lon="9.2954458"><ele>104.16666666666666</ele><time>2026-05-04T17:00:20.267Z</time></trkpt><trkpt lat="45.4365962" lon="9.2953468"><ele>104.33333333333333</ele><time>2026-05-04T17:00:22.271Z</time></trkpt><trkpt lat="45.4366264" lon="9.2952567"><ele>104.5</ele><time>2026-05-04T17:00:24.272Z</time></trkpt><trkpt lat="45.4366485" lon="9.2951587"><ele>104.66666666666666</ele><time>2026-05-04T17:00:26.272Z</time></trkpt><trkpt lat="45.4366556" lon="9.2950477"><ele>104.83333333333333</ele><time>2026-05-04T17:00:28.276Z</time></trkpt><trkpt lat="45.4366736" lon="9.2949249"><ele>105.0</ele><time>2026-05-04T17:00:30.269Z</time></trkpt><trkpt lat="45.4366995" lon="9.2947988"><ele>104.66666666666667</ele><time>2026-05-04T17:00:32.265Z</time></trkpt><trkpt lat="45.4367309" lon="9.294692"><ele>104.33333333333334</ele><time>2026-05-04T17:00:34.271Z</time></trkpt><trkpt lat="45.4367624" lon="9.2945826"><ele>104.0</ele><time>2026-05-04T17:00:36.266Z</time></trkpt><trkpt lat="45.4367904" lon="9.2944739"><ele>103.66666666666667</ele><time>2026-05-04T17:00:38.273Z</time></trkpt><trkpt lat="45.4368068" lon="9.2943544"><ele>103.33333333333334</ele><time>2026-05-04T17:00:40.274Z</time></trkpt><trkpt lat="45.4368326" lon="9.2942297"><ele>103.0</ele><time>2026-05-04T17:00:42.268Z</time></trkpt><trkpt lat="45.4368469" lon="9.294109"><ele>103.0</ele><time>2026-05-04T17:00:44.269Z</time></trkpt><trkpt lat="45.4368518" lon="9.2939759"><ele>103.0</ele><time>2026-05-04T17:00:46.267Z</time></trkpt><trkpt lat="45.4368855" lon="9.2938403"><ele>103.0</ele><time>2026-05-04T17:00:48.27Z</time></trkpt><trkpt lat="45.4369281" lon="9.2936909"><ele>103.0</ele><time>2026-05-04T17:00:50.27Z</time></trkpt><trkpt lat="45.4369762" lon="9.2935494"><ele>103.0</ele><time>2026-05-04T17:00:52.27Z</time></trkpt><trkpt lat="45.4370192" lon="9.2934056"><ele>102.75</ele><time>2026-05-04T17:00:54.268Z</time></trkpt><trkpt lat="45.4370545" lon="9.2932518"><ele>102.5</ele><time>2026-05-04T17:00:56.273Z</time></trkpt><trkpt lat="45.4370951" lon="9.2931022"><ele>102.25</ele><time>2026-05-04T17:00:58.272Z</time></trkpt><trkpt lat="45.4371427" lon="9.2929394"><ele>102.0</ele><time>2026-05-04T17:01:00.273Z</time></trkpt><trkpt lat="45.4371877" lon="9.2927839"><ele>102.25</ele><time>2026-05-04T17:01:02.265Z</time></trkpt><trkpt lat="45.4372275" lon="9.2926236"><ele>102.5</ele><time>2026-05-04T17:01:04.266Z</time></trkpt><trkpt lat="45.4372771" lon="9.2924715"><ele>102.75</ele><time>2026-05-04T17:01:06.271Z</time></trkpt><trkpt lat="45.4373301" lon="9.2923197"><ele>103.0</ele><time>2026-05-04T17:01:08.275Z</time></trkpt><trkpt lat="45.437374" lon="9.2921689"><ele>103.0</ele><time>2026-05-04T17:01:10.274Z</time></trkpt><trkpt lat="45.4374139" lon="9.2920224"><ele>103.0</ele><time>2026-05-04T17:01:12.272Z</time></trkpt><trkpt lat="45.4374601" lon="9.2918815"><ele>103.0</ele><time>2026-05-04T17:01:14.268Z</time></trkpt><trkpt lat="45.4375017" lon="9.291735"><ele>103.0</ele><time>2026-05-04T17:01:16.266Z</time></trkpt><trkpt lat="45.437539" lon="9.2915863"><ele>103.0</ele><time>2026-05-04T17:01:18.273Z</time></trkpt><trkpt lat="45.4375757" lon="9.291429"><ele>103.25</ele><time>2026-05-04T17:01:20.277Z</time></trkpt><trkpt lat="45.4376187" lon="9.2912797"><ele>103.5</ele><time>2026-05-04T17:01:22.276Z</time></trkpt><trkpt lat="45.4376635" lon="9.2911274"><ele>103.75</ele><time>2026-05-04T17:01:24.268Z</time></trkpt><trkpt lat="45.437709" lon="9.290974"><ele>104.0</ele><time>2026-05-04T17:01:26.262Z</time></trkpt><trkpt lat="45.4377468" lon="9.2908126"><ele>104.0</ele><time>2026-05-04T17:01:28.275Z</time></trkpt><trkpt lat="45.4377906" lon="9.2906672"><ele>104.0</ele><time>2026-05-04T17:01:30.268Z</time></trkpt><trkpt lat="45.437824" lon="9.2905144"><ele>104.0</ele><time>2026-05-04T17:01:32.267Z</time></trkpt><trkpt lat="45.4378653" lon="9.2903706"><ele>104.0</ele><time>2026-05-04T17:01:34.275Z</time></trkpt><trkpt lat="45.4379074" lon="9.2902194"><ele>104.0</ele><time>2026-05-04T17:01:36.264Z</time></trkpt><trkpt lat="45.4379741" lon="9.2900836"><ele>104.0</ele><time>2026-05-04T17:01:38.269Z</time></trkpt><trkpt lat="45.4380234" lon="9.2899475"><ele>104.0</ele><time>2026-05-04T17:01:40.267Z</time></trkpt><trkpt lat="45.4380703" lon="9.2898169"><ele>104.0</ele><time>2026-05-04T17:01:42.273Z</time></trkpt><trkpt lat="45.4381196" lon="9.2896849"><ele>104.0</ele><time>2026-05-04T17:01:44.272Z</time></trkpt><trkpt lat="45.4381771" lon="9.2895625"><ele>104.0</ele><time>2026-05-04T17:01:46.271Z</time></trkpt><trkpt lat="45.4382259" lon="9.2894475"><ele>104.0</ele><time>2026-05-04T17:01:48.271Z</time></trkpt><trkpt lat="45.4382854" lon="9.2893259"><ele>104.0</ele><time>2026-05-04T17:01:50.271Z</time></trkpt><trkpt lat="45.438354" lon="9.2892055"><ele>104.0</ele><time>2026-05-04T17:01:52.272Z</time></trkpt><trkpt lat="45.4384321" lon="9.2890831"><ele>104.0</ele><time>2026-05-04T17:01:54.269Z</time></trkpt><trkpt lat="45.4385126" lon="9.2889657"><ele>104.0</ele><time>2026-05-04T17:01:56.272Z</time></trkpt><trkpt lat="45.4385971" lon="9.2888589"><ele>104.2</ele><time>2026-05-04T17:01:58.271Z</time></trkpt><trkpt lat="45.4386838" lon="9.2887645"><ele>104.4</ele><time>2026-05-04T17:02:00.269Z</time></trkpt><trkpt lat="45.4387836" lon="9.2887093"><ele>104.6</ele><time>2026-05-04T17:02:02.267Z</time></trkpt><trkpt lat="45.4388849" lon="9.2886513"><ele>104.8</ele><time>2026-05-04T17:02:04.27Z</time></trkpt><trkpt lat="45.4389733" lon="9.2885949"><ele>105.0</ele><time>2026-05-04T17:02:06.27Z</time></trkpt><trkpt lat="45.4390624" lon="9.288527"><ele>105.0</ele><time>2026-05-04T17:02:08.272Z</time></trkpt><trkpt lat="45.4391287" lon="9.2884263"><ele>105.0</ele><time>2026-05-04T17:02:10.272Z</time></trkpt><trkpt lat="45.4392162" lon="9.2883516"><ele>105.0</ele><time>2026-05-04T17:02:12.266Z</time></trkpt><trkpt lat="45.4392879" lon="9.2882915"><ele>105.0</ele><time>2026-05-04T17:02:14.269Z</time></trkpt><trkpt lat="45.4393686" lon="9.2882441"><ele>105.0</ele><time>2026-05-04T17:02:16.271Z</time></trkpt><trkpt lat="45.4394517" lon="9.2881937"><ele>105.0</ele><time>2026-05-04T17:02:18.273Z</time></trkpt><trkpt lat="45.4395318" lon="9.2881432"><ele>105.0</ele><time>2026-05-04T17:02:20.272Z</time></trkpt><trkpt lat="45.439625" lon="9.2881086"><ele>105.0</ele><time>2026-05-04T17:02:22.265Z</time></trkpt><trkpt lat="45.4397138" lon="9.2880733"><ele>105.0</ele><time>2026-05-04T17:02:24.272Z</time></trkpt><trkpt lat="45.4398042" lon="9.2880443"><ele>105.0</ele><time>2026-05-04T17:02:26.271Z</time></trkpt><trkpt lat="45.4398993" lon="9.2880163"><ele>105.2</ele><time>2026-05-04T17:02:28.265Z</time></trkpt><trkpt lat="45.4399868" lon="9.2879903"><ele>105.4</ele><time>2026-05-04T17:02:30.267Z</time></trkpt><trkpt lat="45.4400798" lon="9.2879548"><ele>105.6</ele><time>2026-05-04T17:02:32.267Z</time></trkpt><trkpt lat="45.4401715" lon="9.2879162"><ele>105.8</ele><time>2026-05-04T17:02:34.271Z</time></trkpt><trkpt lat="45.4402649" lon="9.2878825"><ele>106.0</ele><time>2026-05-04T17:02:36.269Z</time></trkpt><trkpt lat="45.440353" lon="9.2878499"><ele>106.0</ele><time>2026-05-04T17:02:38.273Z</time></trkpt><trkpt lat="45.4404357" lon="9.2878209"><ele>106.0</ele><time>2026-05-04T17:02:40.265Z</time></trkpt><trkpt lat="45.4405311" lon="9.2877854"><ele>106.0</ele><time>2026-05-04T17:02:42.266Z</time></trkpt><trkpt lat="45.4406217" lon="9.2877546"><ele>106.0</ele><time>2026-05-04T17:02:44.27Z</time></trkpt><trkpt lat="45.4407089" lon="9.2877258"><ele>106.0</ele><time>2026-05-04T17:02:46.276Z</time></trkpt><trkpt lat="45.4407933" lon="9.287696"><ele>105.66666666666667</ele><time>2026-05-04T17:02:48.268Z</time></trkpt><trkpt lat="45.4408791" lon="9.2876703"><ele>105.33333333333334</ele><time>2026-05-04T17:02:50.269Z</time></trkpt><trkpt lat="45.4409626" lon="9.2876384"><ele>105.0</ele><time>2026-05-04T17:02:52.269Z</time></trkpt><trkpt lat="45.4410496" lon="9.2876142"><ele>104.66666666666666</ele><time>2026-05-04T17:02:54.267Z</time></trkpt><trkpt lat="45.4411366" lon="9.2875798"><ele>104.33333333333333</ele><time>2026-05-04T17:02:56.275Z</time></trkpt><trkpt lat="45.4412233" lon="9.2875545"><ele>104.0</ele><time>2026-05-04T17:02:58.27Z</time></trkpt><trkpt lat="45.441312" lon="9.2875371"><ele>103.99999999999999</ele><time>2026-05-04T17:03:00.271Z</time></trkpt><trkpt lat="45.4413962" lon="9.2875132"><ele>104.0</ele><time>2026-05-04T17:03:02.27Z</time></trkpt><trkpt lat="45.4414784" lon="9.2874902"><ele>104.0</ele><time>2026-05-04T17:03:04.263Z</time></trkpt><trkpt lat="45.4415728" lon="9.2874671"><ele>104.0</ele><time>2026-05-04T17:03:06.274Z</time></trkpt><trkpt lat="45.4416594" lon="9.2874443"><ele>103.99999999999999</ele><time>2026-05-04T17:03:08.269Z</time></trkpt><trkpt lat="45.4417445" lon="9.2874339"><ele>104.0</ele><time>2026-05-04T17:03:10.274Z</time></trkpt><trkpt lat="45.441825" lon="9.287421"><ele>104.0</ele><time>2026-05-04T17:03:12.266Z</time></trkpt><trkpt lat="45.4419115" lon="9.2874165"><ele>104.0</ele><time>2026-05-04T17:03:14.268Z</time></trkpt><trkpt lat="45.4419976" lon="9.2874146"><ele>104.0</ele><time>2026-05-04T17:03:16.273Z</time></trkpt><trkpt lat="45.4420827" lon="9.2874132"><ele>104.0</ele><time>2026-05-04T17:03:18.267Z</time></trkpt><trkpt lat="45.4421805" lon="9.2874125"><ele>104.0</ele><time>2026-05-04T17:03:20.268Z</time></trkpt><trkpt lat="45.4422768" lon="9.2874195"><ele>104.0</ele><time>2026-05-04T17:03:22.267Z</time></trkpt><trkpt lat="45.4423608" lon="9.2874215"><ele>104.0</ele><time>2026-05-04T17:03:24.274Z</time></trkpt><trkpt lat="45.4424492" lon="9.2874505"><ele>104.0</ele><time>2026-05-04T17:03:26.278Z</time></trkpt><trkpt lat="45.4425427" lon="9.2874977"><ele>104.0</ele><time>2026-05-04T17:03:28.267Z</time></trkpt><trkpt lat="45.4426346" lon="9.2874992"><ele>104.0</ele><time>2026-05-04T17:03:30.271Z</time></trkpt><trkpt lat="45.4427288" lon="9.2875127"><ele>104.0</ele><time>2026-05-04T17:03:32.267Z</time></trkpt><trkpt lat="45.4428214" lon="9.2875153"><ele>104.0</ele><time>2026-05-04T17:03:34.272Z</time></trkpt><trkpt lat="45.4429133" lon="9.2875159"><ele>104.0</ele><time>2026-05-04T17:03:36.266Z</time></trkpt><trkpt lat="45.4430021" lon="9.2875343"><ele>104.0</ele><time>2026-05-04T17:03:38.272Z</time></trkpt><trkpt lat="45.4430899" lon="9.2875414"><ele>104.0</ele><time>2026-05-04T17:03:40.271Z</time></trkpt><trkpt lat="45.4431816" lon="9.2875554"><ele>103.83333333333333</ele><time>2026-05-04T17:03:42.271Z</time></trkpt><trkpt lat="45.4432687" lon="9.2875649"><ele>103.66666666666666</ele><time>2026-05-04T17:03:44.269Z</time></trkpt><trkpt lat="45.4433562" lon="9.2875786"><ele>103.5</ele><time>2026-05-04T17:03:46.273Z</time></trkpt><trkpt lat="45.4434472" lon="9.2875816"><ele>103.33333333333334</ele><time>2026-05-04T17:03:48.266Z</time></trkpt><trkpt lat="45.4435367" lon="9.2875865"><ele>103.16666666666667</ele><time>2026-05-04T17:03:50.269Z</time></trkpt><trkpt lat="45.4436238" lon="9.2875906"><ele>103.0</ele><time>2026-05-04T17:03:52.267Z</time></trkpt><trkpt lat="45.4437134" lon="9.2875934"><ele>103.16666666666667</ele><time>2026-05-04T17:03:54.266Z</time></trkpt><trkpt lat="45.4437978" lon="9.2876261"><ele>103.33333333333334</ele><time>2026-05-04T17:03:56.269Z</time></trkpt><trkpt lat="45.443876" lon="9.2877089"><ele>103.5</ele><time>2026-05-04T17:03:58.267Z</time></trkpt><trkpt lat="45.4439307" lon="9.2878006"><ele>103.66666666666666</ele><time>2026-05-04T17:04:00.264Z</time></trkpt><trkpt lat="45.4439784" lon="9.2878807"><ele>103.83333333333333</ele><time>2026-05-04T17:04:02.27Z</time></trkpt><trkpt lat="45.444031" lon="9.2879346"><ele>104.0</ele><time>2026-05-04T17:04:07.271Z</time></trkpt><trkpt lat="45.4441052" lon="9.287924"><ele>104.0</ele><time>2026-05-04T17:04:10.267Z</time></trkpt><trkpt lat="45.44414" lon="9.2878427"><ele>104.0</ele><time>2026-05-04T17:04:12.266Z</time></trkpt><trkpt lat="45.4441735" lon="9.2877367"><ele>104.0</ele><time>2026-05-04T17:04:14.275Z</time></trkpt><trkpt lat="45.444222" lon="9.2876474"><ele>104.0</ele><time>2026-05-04T17:04:16.269Z</time></trkpt><trkpt lat="45.4442862" lon="9.2875906"><ele>104.0</ele><time>2026-05-04T17:04:18.272Z</time></trkpt><trkpt lat="45.4443492" lon="9.2875295"><ele>104.0</ele><time>2026-05-04T17:04:22.265Z</time></trkpt><trkpt lat="45.4443369" lon="9.2874319"><ele>104.0</ele><time>2026-05-04T17:04:45.271Z</time></trkpt><trkpt lat="45.4443563" lon="9.2873319"><ele>103.99999999999999</ele><time>2026-05-04T17:04:47.273Z</time></trkpt><trkpt lat="45.4444274" lon="9.2873221"><ele>104.0</ele><time>2026-05-04T17:04:49.273Z</time></trkpt><trkpt lat="45.4445043" lon="9.2873385"><ele>104.0</ele><time>2026-05-04T17:04:51.269Z</time></trkpt><trkpt lat="45.4445764" lon="9.2873433"><ele>104.0</ele><time>2026-05-04T17:04:53.268Z</time></trkpt><trkpt lat="45.4446558" lon="9.2873495"><ele>103.99999999999999</ele><time>2026-05-04T17:04:55.268Z</time></trkpt><trkpt lat="45.4447338" lon="9.2873586"><ele>104.0</ele><time>2026-05-04T17:04:57.27Z</time></trkpt><trkpt lat="45.4448141" lon="9.2873692"><ele>104.33333333333333</ele><time>2026-05-04T17:04:59.27Z</time></trkpt><trkpt lat="45.4448942" lon="9.287378"><ele>104.66666666666666</ele><time>2026-05-04T17:05:01.269Z</time></trkpt><trkpt lat="45.4449764" lon="9.2873832"><ele>105.0</ele><time>2026-05-04T17:05:03.277Z</time></trkpt><trkpt lat="45.4450553" lon="9.2873828"><ele>105.33333333333334</ele><time>2026-05-04T17:05:05.267Z</time></trkpt><trkpt lat="45.4451383" lon="9.2873899"><ele>105.66666666666667</ele><time>2026-05-04T17:05:07.27Z</time></trkpt><trkpt lat="45.4452307" lon="9.2874035"><ele>106.0</ele><time>2026-05-04T17:05:09.273Z</time></trkpt><trkpt lat="45.4453263" lon="9.2874197"><ele>106.0</ele><time>2026-05-04T17:05:11.263Z</time></trkpt><trkpt lat="45.4454199" lon="9.2874305"><ele>106.0</ele><time>2026-05-04T17:05:13.27Z</time></trkpt><trkpt lat="45.4455176" lon="9.287442"><ele>106.0</ele><time>2026-05-04T17:05:15.274Z</time></trkpt><trkpt lat="45.4456129" lon="9.2874466"><ele>106.0</ele><time>2026-05-04T17:05:17.266Z</time></trkpt><trkpt lat="45.4457062" lon="9.287456"><ele>106.0</ele><time>2026-05-04T17:05:19.277Z</time></trkpt><trkpt lat="45.4458038" lon="9.2874786"><ele>106.0</ele><time>2026-05-04T17:05:21.272Z</time></trkpt><trkpt lat="45.4458994" lon="9.2874909"><ele>106.0</ele><time>2026-05-04T17:05:23.273Z</time></trkpt><trkpt lat="45.4459896" lon="9.2875013"><ele>106.0</ele><time>2026-05-04T17:05:25.281Z</time></trkpt><trkpt lat="45.446082" lon="9.2875039"><ele>106.0</ele><time>2026-05-04T17:05:27.269Z</time></trkpt><trkpt lat="45.4461747" lon="9.2875079"><ele>106.0</ele><time>2026-05-04T17:05:29.271Z</time></trkpt><trkpt lat="45.4462628" lon="9.287524"><ele>106.19999999999999</ele><time>2026-05-04T17:05:31.268Z</time></trkpt><trkpt lat="45.44636" lon="9.2875331"><ele>106.39999999999999</ele><time>2026-05-04T17:05:33.27Z</time></trkpt><trkpt lat="45.4464452" lon="9.2875353"><ele>106.6</ele><time>2026-05-04T17:05:35.276Z</time></trkpt><trkpt lat="45.4465326" lon="9.2875391"><ele>106.8</ele><time>2026-05-04T17:05:37.269Z</time></trkpt><trkpt lat="45.4466312" lon="9.2875452"><ele>107.0</ele><time>2026-05-04T17:05:39.277Z</time></trkpt><trkpt lat="45.4467317" lon="9.2875535"><ele>107.0</ele><time>2026-05-04T17:05:41.276Z</time></trkpt><trkpt lat="45.4468228" lon="9.2875738"><ele>106.99999999999999</ele><time>2026-05-04T17:05:43.27Z</time></trkpt><trkpt lat="45.4469162" lon="9.2875826"><ele>106.99999999999999</ele><time>2026-05-04T17:05:45.268Z</time></trkpt><trkpt lat="45.4470139" lon="9.2875888"><ele>107.0</ele><time>2026-05-04T17:05:47.268Z</time></trkpt><trkpt lat="45.4471044" lon="9.287597"><ele>107.0</ele><time>2026-05-04T17:05:49.272Z</time></trkpt><trkpt lat="45.4471941" lon="9.2876029"><ele>106.8</ele><time>2026-05-04T17:05:51.263Z</time></trkpt><trkpt lat="45.4472903" lon="9.2876173"><ele>106.6</ele><time>2026-05-04T17:05:53.266Z</time></trkpt><trkpt lat="45.4473779" lon="9.2876177"><ele>106.39999999999999</ele><time>2026-05-04T17:05:55.264Z</time></trkpt><trkpt lat="45.447466" lon="9.2876364"><ele>106.19999999999999</ele><time>2026-05-04T17:05:57.275Z</time></trkpt><trkpt lat="45.4475622" lon="9.2876601"><ele>106.0</ele><time>2026-05-04T17:05:59.274Z</time></trkpt><trkpt lat="45.4476688" lon="9.2876873"><ele>106.0</ele><time>2026-05-04T17:06:01.265Z</time></trkpt><trkpt lat="45.4477727" lon="9.2877045"><ele>106.0</ele><time>2026-05-04T17:06:03.272Z</time></trkpt><trkpt lat="45.4478735" lon="9.2877168"><ele>106.0</ele><time>2026-05-04T17:06:05.278Z</time></trkpt><trkpt lat="45.4479602" lon="9.2877231"><ele>106.0</ele><time>2026-05-04T17:06:07.264Z</time></trkpt><trkpt lat="45.4480579" lon="9.2877349"><ele>106.0</ele><time>2026-05-04T17:06:09.264Z</time></trkpt><trkpt lat="45.4481637" lon="9.2877399"><ele>105.19999999999999</ele><time>2026-05-04T17:06:11.265Z</time></trkpt><trkpt lat="45.448262" lon="9.2877573"><ele>104.39999999999999</ele><time>2026-05-04T17:06:13.269Z</time></trkpt><trkpt lat="45.4483532" lon="9.2877717"><ele>103.6</ele><time>2026-05-04T17:06:15.269Z</time></trkpt><trkpt lat="45.4484516" lon="9.2877826"><ele>102.8</ele><time>2026-05-04T17:06:17.269Z</time></trkpt><trkpt lat="45.4485554" lon="9.2877929"><ele>102.0</ele><time>2026-05-04T17:06:19.276Z</time></trkpt><trkpt lat="45.4486435" lon="9.2878004"><ele>102.0</ele><time>2026-05-04T17:06:21.267Z</time></trkpt><trkpt lat="45.4487386" lon="9.2878053"><ele>102.0</ele><time>2026-05-04T17:06:23.271Z</time></trkpt><trkpt lat="45.4488343" lon="9.2878079"><ele>102.0</ele><time>2026-05-04T17:06:25.275Z</time></trkpt><trkpt lat="45.4489325" lon="9.2878122"><ele>102.0</ele><time>2026-05-04T17:06:27.271Z</time></trkpt><trkpt lat="45.4490245" lon="9.2878152"><ele>102.0</ele><time>2026-05-04T17:06:29.273Z</time></trkpt><trkpt lat="45.4491209" lon="9.2878183"><ele>102.39999999999999</ele><time>2026-05-04T17:06:31.27Z</time></trkpt><trkpt lat="45.4492107" lon="9.2878235"><ele>102.8</ele><time>2026-05-04T17:06:33.268Z</time></trkpt><trkpt lat="45.4492987" lon="9.2878262"><ele>103.2</ele><time>2026-05-04T17:06:35.27Z</time></trkpt><trkpt lat="45.4493914" lon="9.287838"><ele>103.6</ele><time>2026-05-04T17:06:37.266Z</time></trkpt><trkpt lat="45.4494882" lon="9.2878527"><ele>104.0</ele><time>2026-05-04T17:06:39.278Z</time></trkpt><trkpt lat="45.4495834" lon="9.2878485"><ele>104.4</ele><time>2026-05-04T17:06:41.27Z</time></trkpt><trkpt lat="45.4496766" lon="9.28784"><ele>104.80000000000001</ele><time>2026-05-04T17:06:43.272Z</time></trkpt><trkpt lat="45.4497668" lon="9.2878239"><ele>105.19999999999999</ele><time>2026-05-04T17:06:45.271Z</time></trkpt><trkpt lat="45.4498619" lon="9.2877998"><ele>105.6</ele><time>2026-05-04T17:06:47.269Z</time></trkpt><trkpt lat="45.4499552" lon="9.2877738"><ele>106.0</ele><time>2026-05-04T17:06:49.275Z</time></trkpt><trkpt lat="45.4500427" lon="9.2877675"><ele>106.0</ele><time>2026-05-04T17:06:51.272Z</time></trkpt><trkpt lat="45.4501323" lon="9.2877401"><ele>106.0</ele><time>2026-05-04T17:06:53.271Z</time></trkpt><trkpt lat="45.4502218" lon="9.2877119"><ele>106.0</ele><time>2026-05-04T17:06:55.269Z</time></trkpt><trkpt lat="45.4503144" lon="9.2876849"><ele>106.0</ele><time>2026-05-04T17:06:57.269Z</time></trkpt><trkpt lat="45.4504092" lon="9.2876668"><ele>106.0</ele><time>2026-05-04T17:06:59.272Z</time></trkpt><trkpt lat="45.4504941" lon="9.2876541"><ele>106.6</ele><time>2026-05-04T17:07:01.27Z</time></trkpt><trkpt lat="45.4505782" lon="9.2876489"><ele>107.19999999999999</ele><time>2026-05-04T17:07:03.273Z</time></trkpt><trkpt lat="45.4506753" lon="9.2876754"><ele>107.80000000000001</ele><time>2026-05-04T17:07:05.269Z</time></trkpt><trkpt lat="45.4507684" lon="9.2877121"><ele>108.4</ele><time>2026-05-04T17:07:07.267Z</time></trkpt><trkpt lat="45.4508598" lon="9.2877503"><ele>109.0</ele><time>2026-05-04T17:07:09.266Z</time></trkpt><trkpt lat="45.4509486" lon="9.2877912"><ele>109.0</ele><time>2026-05-04T17:07:11.275Z</time></trkpt><trkpt lat="45.4510366" lon="9.2878129"><ele>109.0</ele><time>2026-05-04T17:07:13.27Z</time></trkpt><trkpt lat="45.4511209" lon="9.2877265"><ele>109.0</ele><time>2026-05-04T17:07:15.272Z</time></trkpt><trkpt lat="45.4511605" lon="9.2875966"><ele>109.0</ele><time>2026-05-04T17:07:17.262Z</time></trkpt><trkpt lat="45.4511675" lon="9.287476"><ele>109.0</ele><time>2026-05-04T17:07:19.27Z</time></trkpt><trkpt lat="45.4511755" lon="9.2873428"><ele>109.00000000000001</ele><time>2026-05-04T17:07:21.272Z</time></trkpt><trkpt lat="45.4511862" lon="9.2872116"><ele>109.0</ele><time>2026-05-04T17:07:23.274Z</time></trkpt><trkpt lat="45.4511945" lon="9.2870942"><ele>109.0</ele><time>2026-05-04T17:07:25.272Z</time></trkpt><trkpt lat="45.4512657" lon="9.287034"><ele>109.0</ele><time>2026-05-04T17:07:27.264Z</time></trkpt><trkpt lat="45.4513571" lon="9.2870391"><ele>109.00000000000001</ele><time>2026-05-04T17:07:29.266Z</time></trkpt><trkpt lat="45.4514301" lon="9.2870463"><ele>109.0</ele><time>2026-05-04T17:07:31.271Z</time></trkpt><trkpt lat="45.4515152" lon="9.2870492"><ele>109.0</ele><time>2026-05-04T17:07:33.27Z</time></trkpt><trkpt lat="45.4516084" lon="9.2870683"><ele>109.0</ele><time>2026-05-04T17:07:35.268Z</time></trkpt><trkpt lat="45.4517031" lon="9.2870847"><ele>109.0</ele><time>2026-05-04T17:07:37.268Z</time></trkpt><trkpt lat="45.4517965" lon="9.2870965"><ele>109.0</ele><time>2026-05-04T17:07:39.271Z</time></trkpt><trkpt lat="45.4518879" lon="9.2871168"><ele>109.0</ele><time>2026-05-04T17:07:41.274Z</time></trkpt><trkpt lat="45.4519823" lon="9.2871287"><ele>109.00000000000001</ele><time>2026-05-04T17:07:43.271Z</time></trkpt><trkpt lat="45.4520676" lon="9.2871304"><ele>109.0</ele><time>2026-05-04T17:07:45.277Z</time></trkpt><trkpt lat="45.4521225" lon="9.287177"><ele>109.0</ele><time>2026-05-04T17:07:47.272Z</time></trkpt><trkpt lat="45.4521454" lon="9.2872842"><ele>109.0</ele><time>2026-05-04T17:07:49.272Z</time></trkpt><trkpt lat="45.4521371" lon="9.2874303"><ele>109.00000000000001</ele><time>2026-05-04T17:07:51.267Z</time></trkpt><trkpt lat="45.4521402" lon="9.2875714"><ele>109.0</ele><time>2026-05-04T17:07:53.27Z</time></trkpt><trkpt lat="45.4521313" lon="9.2877004"><ele>109.00000000000001</ele><time>2026-05-04T17:07:55.269Z</time></trkpt><trkpt lat="45.4521297" lon="9.2878354"><ele>109.0</ele><time>2026-05-04T17:07:57.273Z</time></trkpt><trkpt lat="45.4521226" lon="9.287931"><ele>109.0</ele><time>2026-05-04T17:07:59.27Z</time></trkpt><trkpt lat="45.4520844" lon="9.2880097"><ele>109.0</ele><time>2026-05-04T17:08:02.263Z</time></trkpt><trkpt lat="45.4521542" lon="9.2880479"><ele>109.00000000000001</ele><time>2026-05-04T17:08:05.264Z</time></trkpt><trkpt lat="45.4522468" lon="9.2880439"><ele>109.0</ele><time>2026-05-04T17:08:08.268Z</time></trkpt><trkpt lat="45.452325" lon="9.2880611"><ele>109.0</ele><time>2026-05-04T17:08:11.266Z</time></trkpt><trkpt lat="45.452401" lon="9.2880716"><ele>109.0</ele><time>2026-05-04T17:08:14.277Z</time></trkpt><trkpt lat="45.4524711" lon="9.2880654"><ele>109.0</ele><time>2026-05-04T17:08:17.273Z</time></trkpt><trkpt lat="45.4525317" lon="9.2880949"><ele>109.0</ele><time>2026-05-04T17:08:20.269Z</time></trkpt><trkpt lat="45.4525548" lon="9.2881811"><ele>109.0</ele><time>2026-05-04T17:08:23.265Z</time></trkpt><trkpt lat="45.4525617" lon="9.2882715"><ele>109.0</ele><time>2026-05-04T17:08:26.266Z</time></trkpt><trkpt lat="45.4525656" lon="9.2883916"><ele>109.0</ele><time>2026-05-04T17:08:29.261Z</time></trkpt><trkpt lat="45.4525509" lon="9.2885171"><ele>109.0</ele><time>2026-05-04T17:08:32.265Z</time></trkpt><trkpt lat="45.452541" lon="9.2886177"><ele>109.0</ele><time>2026-05-04T17:08:34.27Z</time></trkpt><trkpt lat="45.452526" lon="9.2887477"><ele>109.0</ele><time>2026-05-04T17:08:37.276Z</time></trkpt><trkpt lat="45.4525154" lon="9.2888505"><ele>109.0</ele><time>2026-05-04T17:08:39.268Z</time></trkpt><trkpt lat="45.452507" lon="9.2889474"><ele>109.0</ele><time>2026-05-04T17:08:41.281Z</time></trkpt><trkpt lat="45.4525063" lon="9.2890419"><ele>109.0</ele><time>2026-05-04T17:08:43.269Z</time></trkpt><trkpt lat="45.4525071" lon="9.2891374"><ele>109.0</ele><time>2026-05-04T17:08:45.266Z</time></trkpt><trkpt lat="45.4525062" lon="9.2892277"><ele>109.14285714285714</ele><time>2026-05-04T17:08:47.269Z</time></trkpt><trkpt lat="45.4525052" lon="9.2893247"><ele>109.28571428571429</ele><time>2026-05-04T17:08:49.271Z</time></trkpt><trkpt lat="45.4524925" lon="9.2894251"><ele>109.42857142857142</ele><time>2026-05-04T17:08:51.268Z</time></trkpt><trkpt lat="45.4524846" lon="9.2895171"><ele>109.57142857142857</ele><time>2026-05-04T17:08:53.267Z</time></trkpt><trkpt lat="45.4524825" lon="9.2896193"><ele>109.71428571428571</ele><time>2026-05-04T17:08:55.267Z</time></trkpt><trkpt lat="45.4524642" lon="9.2897117"><ele>109.85714285714285</ele><time>2026-05-04T17:08:57.273Z</time></trkpt><trkpt lat="45.4524477" lon="9.2898456"><ele>110.0</ele><time>2026-05-04T17:08:59.273Z</time></trkpt><trkpt lat="45.4524411" lon="9.2899883"><ele>110.0</ele><time>2026-05-04T17:09:01.27Z</time></trkpt><trkpt lat="45.4524345" lon="9.2901156"><ele>110.0</ele><time>2026-05-04T17:09:03.269Z</time></trkpt><trkpt lat="45.4524493" lon="9.2902473"><ele>110.0</ele><time>2026-05-04T17:09:05.267Z</time></trkpt><trkpt lat="45.4524466" lon="9.290377"><ele>110.0</ele><time>2026-05-04T17:09:07.268Z</time></trkpt><trkpt lat="45.452424" lon="9.2905078"><ele>110.0</ele><time>2026-05-04T17:09:09.268Z</time></trkpt><trkpt lat="45.4524099" lon="9.2906297"><ele>109.99999999999999</ele><time>2026-05-04T17:09:11.266Z</time></trkpt><trkpt lat="45.4524152" lon="9.2907486"><ele>110.0</ele><time>2026-05-04T17:09:13.275Z</time></trkpt><trkpt lat="45.4524541" lon="9.290842"><ele>110.0</ele><time>2026-05-04T17:09:15.284Z</time></trkpt><trkpt lat="45.4525187" lon="9.2909102"><ele>110.0</ele><time>2026-05-04T17:09:17.271Z</time></trkpt><trkpt lat="45.4525851" lon="9.2909559"><ele>109.99999999999999</ele><time>2026-05-04T17:09:19.265Z</time></trkpt><trkpt lat="45.4526563" lon="9.2909896"><ele>110.0</ele><time>2026-05-04T17:09:21.276Z</time></trkpt><trkpt lat="45.4527232" lon="9.291022"><ele>109.99999999999999</ele><time>2026-05-04T17:09:23.267Z</time></trkpt><trkpt lat="45.4527876" lon="9.2910622"><ele>110.0</ele><time>2026-05-04T17:09:25.269Z</time></trkpt><trkpt lat="45.4528566" lon="9.2911021"><ele>110.0</ele><time>2026-05-04T17:09:27.276Z</time></trkpt><trkpt lat="45.4529303" lon="9.2911466"><ele>110.0</ele><time>2026-05-04T17:09:29.266Z</time></trkpt><trkpt lat="45.4530048" lon="9.2911836"><ele>109.99999999999999</ele><time>2026-05-04T17:09:31.271Z</time></trkpt><trkpt lat="45.4530776" lon="9.2912048"><ele>110.0</ele><time>2026-05-04T17:09:33.268Z</time></trkpt><trkpt lat="45.4531495" lon="9.2912187"><ele>109.66666666666666</ele><time>2026-05-04T17:09:35.269Z</time></trkpt><trkpt lat="45.4532154" lon="9.2912302"><ele>109.33333333333333</ele><time>2026-05-04T17:09:37.275Z</time></trkpt><trkpt lat="45.4533031" lon="9.2912394"><ele>109.0</ele><time>2026-05-04T17:09:40.267Z</time></trkpt><trkpt lat="45.4533924" lon="9.2912574"><ele>108.66666666666666</ele><time>2026-05-04T17:09:43.265Z</time></trkpt><trkpt lat="45.4534592" lon="9.2912593"><ele>108.33333333333333</ele><time>2026-05-04T17:09:45.268Z</time></trkpt><trkpt lat="45.453525" lon="9.2912708"><ele>108.0</ele><time>2026-05-04T17:09:47.267Z</time></trkpt><trkpt lat="45.4536005" lon="9.2912781"><ele>108.0</ele><time>2026-05-04T17:09:50.273Z</time></trkpt><trkpt lat="45.4536778" lon="9.2912984"><ele>108.0</ele><time>2026-05-04T17:09:54.269Z</time></trkpt><trkpt lat="45.4537506" lon="9.2913102"><ele>108.0</ele><time>2026-05-04T17:09:58.268Z</time></trkpt><trkpt lat="45.4538181" lon="9.2913353"><ele>108.0</ele><time>2026-05-04T17:10:02.265Z</time></trkpt><trkpt lat="45.4538954" lon="9.2913638"><ele>108.0</ele><time>2026-05-04T17:10:06.266Z</time></trkpt><trkpt lat="45.4539742" lon="9.2913818"><ele>108.0</ele><time>2026-05-04T17:10:09.274Z</time></trkpt><trkpt lat="45.45405" lon="9.291381"><ele>108.0</ele><time>2026-05-04T17:10:12.27Z</time></trkpt><trkpt lat="45.4541373" lon="9.2913969"><ele>108.0</ele><time>2026-05-04T17:10:15.266Z</time></trkpt><trkpt lat="45.4542266" lon="9.2914089"><ele>108.0</ele><time>2026-05-04T17:10:18.267Z</time></trkpt><trkpt lat="45.4542961" lon="9.2914238"><ele>108.0</ele><time>2026-05-04T17:10:20.272Z</time></trkpt><trkpt lat="45.4543681" lon="9.2914321"><ele>108.0</ele><time>2026-05-04T17:10:22.271Z</time></trkpt><trkpt lat="45.4544407" lon="9.2914655"><ele>108.0</ele><time>2026-05-04T17:10:24.269Z</time></trkpt><trkpt lat="45.4545093" lon="9.2914832"><ele>108.0</ele><time>2026-05-04T17:10:26.268Z</time></trkpt><trkpt lat="45.4545824" lon="9.291495"><ele>108.0</ele><time>2026-05-04T17:10:28.268Z</time></trkpt><trkpt lat="45.4546661" lon="9.2915096"><ele>108.0</ele><time>2026-05-04T17:10:30.269Z</time></trkpt><trkpt lat="45.454736" lon="9.2915224"><ele>108.0</ele><time>2026-05-04T17:10:32.27Z</time></trkpt><trkpt lat="45.4548119" lon="9.2915345"><ele>108.0</ele><time>2026-05-04T17:10:34.269Z</time></trkpt><trkpt lat="45.4548815" lon="9.2915458"><ele>108.0</ele><time>2026-05-04T17:10:36.267Z</time></trkpt><trkpt lat="45.4549516" lon="9.2915515"><ele>108.0</ele><time>2026-05-04T17:10:38.265Z</time></trkpt><trkpt lat="45.4550273" lon="9.2915599"><ele>108.14285714285714</ele><time>2026-05-04T17:10:40.271Z</time></trkpt><trkpt lat="45.455098" lon="9.2915661"><ele>108.28571428571428</ele><time>2026-05-04T17:10:42.271Z</time></trkpt><trkpt lat="45.4551733" lon="9.2915746"><ele>108.42857142857143</ele><time>2026-05-04T17:10:44.273Z</time></trkpt><trkpt lat="45.4552479" lon="9.2915958"><ele>108.57142857142857</ele><time>2026-05-04T17:10:46.271Z</time></trkpt><trkpt lat="45.4553217" lon="9.2915961"><ele>108.71428571428572</ele><time>2026-05-04T17:10:48.269Z</time></trkpt><trkpt lat="45.4553921" lon="9.2915992"><ele>108.85714285714286</ele><time>2026-05-04T17:10:50.268Z</time></trkpt><trkpt lat="45.4554584" lon="9.2915978"><ele>109.0</ele><time>2026-05-04T17:10:52.271Z</time></trkpt><trkpt lat="45.4555326" lon="9.2915972"><ele>109.28571428571429</ele><time>2026-05-04T17:10:54.268Z</time></trkpt><trkpt lat="45.4556001" lon="9.2915961"><ele>109.57142857142858</ele><time>2026-05-04T17:10:56.269Z</time></trkpt><trkpt lat="45.4556642" lon="9.2915873"><ele>109.85714285714286</ele><time>2026-05-04T17:10:58.267Z</time></trkpt><trkpt lat="45.4557307" lon="9.2915748"><ele>110.14285714285714</ele><time>2026-05-04T17:11:00.268Z</time></trkpt><trkpt lat="45.4557983" lon="9.2915553"><ele>110.42857142857143</ele><time>2026-05-04T17:11:02.267Z</time></trkpt><trkpt lat="45.4558668" lon="9.2915293"><ele>110.71428571428571</ele><time>2026-05-04T17:11:04.267Z</time></trkpt><trkpt lat="45.4559314" lon="9.2915112"><ele>111.0</ele><time>2026-05-04T17:11:06.264Z</time></trkpt><trkpt lat="45.4559997" lon="9.2915"><ele>111.0</ele><time>2026-05-04T17:11:08.266Z</time></trkpt><trkpt lat="45.4560708" lon="9.2914703"><ele>111.0</ele><time>2026-05-04T17:11:10.265Z</time></trkpt><trkpt lat="45.4561429" lon="9.2914351"><ele>111.0</ele><time>2026-05-04T17:11:12.268Z</time></trkpt><trkpt lat="45.4562115" lon="9.2914102"><ele>111.0</ele><time>2026-05-04T17:11:14.278Z</time></trkpt><trkpt lat="45.4562777" lon="9.2913837"><ele>111.0</ele><time>2026-05-04T17:11:16.28Z</time></trkpt><trkpt lat="45.4563447" lon="9.2913421"><ele>111.0</ele><time>2026-05-04T17:11:18.267Z</time></trkpt><trkpt lat="45.4564057" lon="9.2913144"><ele>111.0</ele><time>2026-05-04T17:11:20.27Z</time></trkpt><trkpt lat="45.4564725" lon="9.2912694"><ele>111.28571428571428</ele><time>2026-05-04T17:11:22.272Z</time></trkpt><trkpt lat="45.4565399" lon="9.2912372"><ele>111.57142857142858</ele><time>2026-05-04T17:11:24.267Z</time></trkpt><trkpt lat="45.4566062" lon="9.29119"><ele>111.85714285714286</ele><time>2026-05-04T17:11:26.273Z</time></trkpt><trkpt lat="45.4566677" lon="9.2911393"><ele>112.14285714285714</ele><time>2026-05-04T17:11:28.271Z</time></trkpt><trkpt lat="45.4567311" lon="9.2911151"><ele>112.42857142857142</ele><time>2026-05-04T17:11:30.268Z</time></trkpt><trkpt lat="45.4567989" lon="9.2910994"><ele>112.71428571428572</ele><time>2026-05-04T17:11:32.264Z</time></trkpt><trkpt lat="45.4568698" lon="9.2910798"><ele>113.0</ele><time>2026-05-04T17:11:34.266Z</time></trkpt><trkpt lat="45.4569356" lon="9.29106"><ele>113.0</ele><time>2026-05-04T17:11:36.267Z</time></trkpt><trkpt lat="45.4570023" lon="9.2910445"><ele>113.0</ele><time>2026-05-04T17:11:38.271Z</time></trkpt><trkpt lat="45.457068" lon="9.2910318"><ele>113.0</ele><time>2026-05-04T17:11:40.268Z</time></trkpt><trkpt lat="45.457136" lon="9.291013"><ele>113.0</ele><time>2026-05-04T17:11:42.265Z</time></trkpt><trkpt lat="45.4572019" lon="9.2909847"><ele>113.0</ele><time>2026-05-04T17:11:44.269Z</time></trkpt><trkpt lat="45.4572702" lon="9.2909484"><ele>113.0</ele><time>2026-05-04T17:11:46.266Z</time></trkpt><trkpt lat="45.4573401" lon="9.290905"><ele>113.0</ele><time>2026-05-04T17:11:48.27Z</time></trkpt><trkpt lat="45.4574198" lon="9.2908818"><ele>113.16666666666666</ele><time>2026-05-04T17:11:50.268Z</time></trkpt><trkpt lat="45.4574984" lon="9.2908783"><ele>113.33333333333333</ele><time>2026-05-04T17:11:52.263Z</time></trkpt><trkpt lat="45.4575805" lon="9.2908687"><ele>113.5</ele><time>2026-05-04T17:11:54.272Z</time></trkpt><trkpt lat="45.4576582" lon="9.2908801"><ele>113.66666666666666</ele><time>2026-05-04T17:11:56.268Z</time></trkpt><trkpt lat="45.4577328" lon="9.2909083"><ele>113.83333333333333</ele><time>2026-05-04T17:11:58.269Z</time></trkpt><trkpt lat="45.4578016" lon="9.2909472"><ele>114.0</ele><time>2026-05-04T17:12:00.264Z</time></trkpt><trkpt lat="45.457866" lon="9.2909823"><ele>114.0</ele><time>2026-05-04T17:12:02.277Z</time></trkpt><trkpt lat="45.4579357" lon="9.2910269"><ele>113.99999999999999</ele><time>2026-05-04T17:12:04.268Z</time></trkpt><trkpt lat="45.4580043" lon="9.2910764"><ele>114.0</ele><time>2026-05-04T17:12:06.265Z</time></trkpt><trkpt lat="45.4580661" lon="9.2911172"><ele>114.0</ele><time>2026-05-04T17:12:08.271Z</time></trkpt><trkpt lat="45.4581321" lon="9.2911622"><ele>113.99999999999999</ele><time>2026-05-04T17:12:10.272Z</time></trkpt><trkpt lat="45.458201" lon="9.2912142"><ele>114.0</ele><time>2026-05-04T17:12:12.265Z</time></trkpt><trkpt lat="45.4582648" lon="9.2912612"><ele>114.0</ele><time>2026-05-04T17:12:14.267Z</time></trkpt><trkpt lat="45.458328" lon="9.2913111"><ele>114.33333333333333</ele><time>2026-05-04T17:12:16.271Z</time></trkpt><trkpt lat="45.4583956" lon="9.2913645"><ele>114.66666666666666</ele><time>2026-05-04T17:12:18.268Z</time></trkpt><trkpt lat="45.4584682" lon="9.291417"><ele>115.0</ele><time>2026-05-04T17:12:20.269Z</time></trkpt><trkpt lat="45.4585411" lon="9.2914755"><ele>115.33333333333333</ele><time>2026-05-04T17:12:22.276Z</time></trkpt><trkpt lat="45.4586194" lon="9.2915403"><ele>115.66666666666666</ele><time>2026-05-04T17:12:24.273Z</time></trkpt><trkpt lat="45.4587108" lon="9.2916293"><ele>116.0</ele><time>2026-05-04T17:12:26.275Z</time></trkpt><trkpt lat="45.4587923" lon="9.2917172"><ele>116.19999999999999</ele><time>2026-05-04T17:12:28.267Z</time></trkpt><trkpt lat="45.4588782" lon="9.291787"><ele>116.39999999999999</ele><time>2026-05-04T17:12:30.268Z</time></trkpt><trkpt lat="45.4589649" lon="9.2918679"><ele>116.6</ele><time>2026-05-04T17:12:32.276Z</time></trkpt><trkpt lat="45.4590536" lon="9.2919387"><ele>116.8</ele><time>2026-05-04T17:12:34.273Z</time></trkpt><trkpt lat="45.4591532" lon="9.2919885"><ele>117.0</ele><time>2026-05-04T17:12:36.267Z</time></trkpt><trkpt lat="45.4592566" lon="9.2920345"><ele>117.0</ele><time>2026-05-04T17:12:38.275Z</time></trkpt><trkpt lat="45.4593604" lon="9.2920624"><ele>116.99999999999999</ele><time>2026-05-04T17:12:40.272Z</time></trkpt><trkpt lat="45.4594693" lon="9.2920772"><ele>116.99999999999999</ele><time>2026-05-04T17:12:42.269Z</time></trkpt><trkpt lat="45.4595763" lon="9.2920956"><ele>117.0</ele><time>2026-05-04T17:12:44.27Z</time></trkpt><trkpt lat="45.4596713" lon="9.2921173"><ele>117.0</ele><time>2026-05-04T17:12:46.273Z</time></trkpt><trkpt lat="45.4597798" lon="9.2921297"><ele>117.39999999999999</ele><time>2026-05-04T17:12:48.27Z</time></trkpt><trkpt lat="45.4598854" lon="9.2921523"><ele>117.79999999999998</ele><time>2026-05-04T17:12:50.273Z</time></trkpt><trkpt lat="45.4599887" lon="9.2921701"><ele>118.2</ele><time>2026-05-04T17:12:52.27Z</time></trkpt><trkpt lat="45.4600865" lon="9.2921842"><ele>118.6</ele><time>2026-05-04T17:12:54.27Z</time></trkpt><trkpt lat="45.4601838" lon="9.292186"><ele>119.0</ele><time>2026-05-04T17:12:56.268Z</time></trkpt><trkpt lat="45.4602754" lon="9.292193"><ele>118.99999999999999</ele><time>2026-05-04T17:12:58.271Z</time></trkpt><trkpt lat="45.4603653" lon="9.2921871"><ele>119.0</ele><time>2026-05-04T17:13:00.271Z</time></trkpt><trkpt lat="45.4604501" lon="9.2921713"><ele>119.0</ele><time>2026-05-04T17:13:02.272Z</time></trkpt><trkpt lat="45.4605316" lon="9.2921333"><ele>119.0</ele><time>2026-05-04T17:13:04.273Z</time></trkpt><trkpt lat="45.4606101" lon="9.2920738"><ele>118.99999999999999</ele><time>2026-05-04T17:13:06.271Z</time></trkpt><trkpt lat="45.4606921" lon="9.2920183"><ele>119.0</ele><time>2026-05-04T17:13:08.268Z</time></trkpt><trkpt lat="45.4607639" lon="9.2919773"><ele>118.80000000000001</ele><time>2026-05-04T17:13:10.267Z</time></trkpt><trkpt lat="45.4608531" lon="9.2919179"><ele>118.60000000000001</ele><time>2026-05-04T17:13:12.271Z</time></trkpt><trkpt lat="45.4609398" lon="9.2918606"><ele>118.4</ele><time>2026-05-04T17:13:14.272Z</time></trkpt><trkpt lat="45.4610105" lon="9.2917961"><ele>118.2</ele><time>2026-05-04T17:13:16.272Z</time></trkpt><trkpt lat="45.461098" lon="9.2917303"><ele>118.0</ele><time>2026-05-04T17:13:18.276Z</time></trkpt><trkpt lat="45.4611747" lon="9.2916702"><ele>118.00000000000001</ele><time>2026-05-04T17:13:20.266Z</time></trkpt><trkpt lat="45.4612583" lon="9.2916174"><ele>118.0</ele><time>2026-05-04T17:13:22.269Z</time></trkpt><trkpt lat="45.4613443" lon="9.2915594"><ele>118.0</ele><time>2026-05-04T17:13:24.271Z</time></trkpt><trkpt lat="45.4614283" lon="9.2915174"><ele>118.0</ele><time>2026-05-04T17:13:26.275Z</time></trkpt><trkpt lat="45.461511" lon="9.2915009"><ele>118.00000000000001</ele><time>2026-05-04T17:13:28.271Z</time></trkpt><trkpt lat="45.4615837" lon="9.2914879"><ele>118.0</ele><time>2026-05-04T17:13:30.269Z</time></trkpt><trkpt lat="45.4616695" lon="9.2914707"><ele>117.83333333333334</ele><time>2026-05-04T17:13:32.273Z</time></trkpt><trkpt lat="45.4617551" lon="9.2914536"><ele>117.66666666666667</ele><time>2026-05-04T17:13:34.268Z</time></trkpt><trkpt lat="45.4618328" lon="9.2914468"><ele>117.5</ele><time>2026-05-04T17:13:36.27Z</time></trkpt><trkpt lat="45.461917" lon="9.2914485"><ele>117.33333333333334</ele><time>2026-05-04T17:13:38.269Z</time></trkpt><trkpt lat="45.4620051" lon="9.2914592"><ele>117.16666666666667</ele><time>2026-05-04T17:13:40.262Z</time></trkpt><trkpt lat="45.4620797" lon="9.2914848"><ele>117.0</ele><time>2026-05-04T17:13:42.273Z</time></trkpt><trkpt lat="45.4621585" lon="9.2915122"><ele>117.0</ele><time>2026-05-04T17:13:44.269Z</time></trkpt><trkpt lat="45.4622369" lon="9.2915674"><ele>116.99999999999999</ele><time>2026-05-04T17:13:46.267Z</time></trkpt><trkpt lat="45.4623253" lon="9.2916384"><ele>116.99999999999999</ele><time>2026-05-04T17:13:48.279Z</time></trkpt><trkpt lat="45.4623984" lon="9.2917015"><ele>117.0</ele><time>2026-05-04T17:13:50.268Z</time></trkpt><trkpt lat="45.4624704" lon="9.2917761"><ele>117.0</ele><time>2026-05-04T17:13:52.271Z</time></trkpt><trkpt lat="45.4625438" lon="9.2918422"><ele>117.0</ele><time>2026-05-04T17:13:54.265Z</time></trkpt><trkpt lat="45.4626126" lon="9.2918915"><ele>117.0</ele><time>2026-05-04T17:13:56.268Z</time></trkpt><trkpt lat="45.4626868" lon="9.2919462"><ele>117.0</ele><time>2026-05-04T17:13:58.272Z</time></trkpt><trkpt lat="45.4627559" lon="9.2919946"><ele>117.0</ele><time>2026-05-04T17:14:00.265Z</time></trkpt><trkpt lat="45.462824" lon="9.2920758"><ele>117.0</ele><time>2026-05-04T17:14:02.268Z</time></trkpt><trkpt lat="45.4628894" lon="9.2921595"><ele>117.0</ele><time>2026-05-04T17:14:04.267Z</time></trkpt><trkpt lat="45.4629608" lon="9.2922248"><ele>116.5</ele><time>2026-05-04T17:14:06.267Z</time></trkpt><trkpt lat="45.4630359" lon="9.2922966"><ele>116.0</ele><time>2026-05-04T17:14:08.269Z</time></trkpt><trkpt lat="45.46311" lon="9.2923572"><ele>115.5</ele><time>2026-05-04T17:14:10.268Z</time></trkpt><trkpt lat="45.4631841" lon="9.292426"><ele>115.0</ele><time>2026-05-04T17:14:12.271Z</time></trkpt><trkpt lat="45.4632475" lon="9.2924845"><ele>114.5</ele><time>2026-05-04T17:14:14.266Z</time></trkpt><trkpt lat="45.4633242" lon="9.2925304"><ele>114.0</ele><time>2026-05-04T17:14:16.271Z</time></trkpt><trkpt lat="45.4633939" lon="9.2925875"><ele>114.0</ele><time>2026-05-04T17:14:18.267Z</time></trkpt><trkpt lat="45.4634635" lon="9.2926557"><ele>114.0</ele><time>2026-05-04T17:14:20.265Z</time></trkpt><trkpt lat="45.4635341" lon="9.292718"><ele>114.0</ele><time>2026-05-04T17:14:22.274Z</time></trkpt><trkpt lat="45.4636026" lon="9.2927782"><ele>114.0</ele><time>2026-05-04T17:14:24.265Z</time></trkpt><trkpt lat="45.4636788" lon="9.2928186"><ele>114.0</ele><time>2026-05-04T17:14:26.263Z</time></trkpt><trkpt lat="45.4637536" lon="9.2928264"><ele>114.0</ele><time>2026-05-04T17:14:28.266Z</time></trkpt><trkpt lat="45.463826" lon="9.2927992"><ele>114.6</ele><time>2026-05-04T17:14:30.265Z</time></trkpt><trkpt lat="45.4639047" lon="9.2927266"><ele>115.2</ele><time>2026-05-04T17:14:33.267Z</time></trkpt><trkpt lat="45.4639685" lon="9.2926519"><ele>115.79999999999998</ele><time>2026-05-04T17:14:35.264Z</time></trkpt><trkpt lat="45.4640488" lon="9.2925762"><ele>116.39999999999999</ele><time>2026-05-04T17:14:37.263Z</time></trkpt><trkpt lat="45.4641282" lon="9.2925209"><ele>117.0</ele><time>2026-05-04T17:14:39.272Z</time></trkpt><trkpt lat="45.4642165" lon="9.2924694"><ele>117.0</ele><time>2026-05-04T17:14:41.269Z</time></trkpt><trkpt lat="45.4642809" lon="9.2924207"><ele>117.0</ele><time>2026-05-04T17:14:43.267Z</time></trkpt><trkpt lat="45.4643574" lon="9.2923657"><ele>117.0</ele><time>2026-05-04T17:14:45.266Z</time></trkpt><trkpt lat="45.4644315" lon="9.2923157"><ele>117.0</ele><time>2026-05-04T17:14:47.27Z</time></trkpt><trkpt lat="45.4645078" lon="9.2922677"><ele>117.0</ele><time>2026-05-04T17:14:49.27Z</time></trkpt><trkpt lat="45.4645868" lon="9.2922441"><ele>117.0</ele><time>2026-05-04T17:14:51.27Z</time></trkpt><trkpt lat="45.4646717" lon="9.2922381"><ele>116.66666666666667</ele><time>2026-05-04T17:14:53.262Z</time></trkpt><trkpt lat="45.4647469" lon="9.29223"><ele>116.33333333333334</ele><time>2026-05-04T17:14:55.27Z</time></trkpt><trkpt lat="45.464823" lon="9.2922294"><ele>116.0</ele><time>2026-05-04T17:14:57.268Z</time></trkpt><trkpt lat="45.4649067" lon="9.292231"><ele>115.66666666666667</ele><time>2026-05-04T17:14:59.267Z</time></trkpt><trkpt lat="45.4649963" lon="9.2922302"><ele>115.33333333333334</ele><time>2026-05-04T17:15:01.265Z</time></trkpt><trkpt lat="45.4650846" lon="9.2922328"><ele>115.0</ele><time>2026-05-04T17:15:03.269Z</time></trkpt><trkpt lat="45.4651709" lon="9.2922524"><ele>115.33333333333334</ele><time>2026-05-04T17:15:05.268Z</time></trkpt><trkpt lat="45.465258" lon="9.2922656"><ele>115.66666666666667</ele><time>2026-05-04T17:15:07.265Z</time></trkpt><trkpt lat="45.4653423" lon="9.2922878"><ele>116.0</ele><time>2026-05-04T17:15:09.268Z</time></trkpt><trkpt lat="45.4654266" lon="9.2923146"><ele>116.33333333333334</ele><time>2026-05-04T17:15:11.273Z</time></trkpt><trkpt lat="45.4655053" lon="9.2923405"><ele>116.66666666666667</ele><time>2026-05-04T17:15:13.276Z</time></trkpt><trkpt lat="45.4655903" lon="9.2923535"><ele>117.0</ele><time>2026-05-04T17:15:15.268Z</time></trkpt><trkpt lat="45.4656753" lon="9.2923678"><ele>117.33333333333333</ele><time>2026-05-04T17:15:17.274Z</time></trkpt><trkpt lat="45.465762" lon="9.2924079"><ele>117.66666666666666</ele><time>2026-05-04T17:15:19.265Z</time></trkpt><trkpt lat="45.4658496" lon="9.2924378"><ele>118.0</ele><time>2026-05-04T17:15:21.267Z</time></trkpt><trkpt lat="45.465936" lon="9.2924773"><ele>118.33333333333333</ele><time>2026-05-04T17:15:23.274Z</time></trkpt><trkpt lat="45.4660091" lon="9.2924985"><ele>118.66666666666666</ele><time>2026-05-04T17:15:25.268Z</time></trkpt><trkpt lat="45.4660956" lon="9.292528"><ele>119.0</ele><time>2026-05-04T17:15:27.269Z</time></trkpt><trkpt lat="45.4661735" lon="9.2925589"><ele>118.99999999999999</ele><time>2026-05-04T17:15:29.265Z</time></trkpt><trkpt lat="45.4662454" lon="9.2925855"><ele>119.0</ele><time>2026-05-04T17:15:31.268Z</time></trkpt><trkpt lat="45.466316" lon="9.2926156"><ele>119.0</ele><time>2026-05-04T17:15:33.273Z</time></trkpt><trkpt lat="45.4663887" lon="9.2926447"><ele>119.0</ele><time>2026-05-04T17:15:35.264Z</time></trkpt><trkpt lat="45.4664626" lon="9.2926668"><ele>118.99999999999999</ele><time>2026-05-04T17:15:37.271Z</time></trkpt><trkpt lat="45.46655" lon="9.2927046"><ele>119.0</ele><time>2026-05-04T17:15:39.265Z</time></trkpt><trkpt lat="45.466648" lon="9.2927451"><ele>119.16666666666666</ele><time>2026-05-04T17:15:41.273Z</time></trkpt><trkpt lat="45.4667404" lon="9.2927577"><ele>119.33333333333333</ele><time>2026-05-04T17:15:43.272Z</time></trkpt><trkpt lat="45.4668073" lon="9.2927612"><ele>119.5</ele><time>2026-05-04T17:15:45.264Z</time></trkpt><trkpt lat="45.4668878" lon="9.2927979"><ele>119.66666666666666</ele><time>2026-05-04T17:15:47.267Z</time></trkpt><trkpt lat="45.4669726" lon="9.2928387"><ele>119.83333333333333</ele><time>2026-05-04T17:15:49.267Z</time></trkpt><trkpt lat="45.4670606" lon="9.2928742"><ele>120.0</ele><time>2026-05-04T17:15:51.268Z</time></trkpt><trkpt lat="45.4671398" lon="9.2929559"><ele>119.5</ele><time>2026-05-04T17:15:53.265Z</time></trkpt><trkpt lat="45.4672091" lon="9.2930523"><ele>119.0</ele><time>2026-05-04T17:15:55.268Z</time></trkpt><trkpt lat="45.4672763" lon="9.2931405"><ele>118.5</ele><time>2026-05-04T17:15:57.269Z</time></trkpt><trkpt lat="45.4673358" lon="9.2932215"><ele>118.0</ele><time>2026-05-04T17:15:59.265Z</time></trkpt><trkpt lat="45.4674042" lon="9.2932823"><ele>117.5</ele><time>2026-05-04T17:16:01.269Z</time></trkpt><trkpt lat="45.4674735" lon="9.2933752"><ele>117.0</ele><time>2026-05-04T17:16:03.267Z</time></trkpt><trkpt lat="45.4675387" lon="9.2934563"><ele>116.66666666666667</ele><time>2026-05-04T17:16:05.269Z</time></trkpt><trkpt lat="45.4676032" lon="9.2935248"><ele>116.33333333333334</ele><time>2026-05-04T17:16:07.266Z</time></trkpt><trkpt lat="45.4676714" lon="9.2935701"><ele>116.0</ele><time>2026-05-04T17:16:09.263Z</time></trkpt><trkpt lat="45.4677433" lon="9.2936252"><ele>115.66666666666667</ele><time>2026-05-04T17:16:11.273Z</time></trkpt><trkpt lat="45.467815" lon="9.2936644"><ele>115.33333333333334</ele><time>2026-05-04T17:16:13.267Z</time></trkpt><trkpt lat="45.4678873" lon="9.2936932"><ele>115.0</ele><time>2026-05-04T17:16:15.267Z</time></trkpt><trkpt lat="45.4679608" lon="9.2937364"><ele>114.83333333333334</ele><time>2026-05-04T17:16:17.27Z</time></trkpt><trkpt lat="45.468033" lon="9.2937456"><ele>114.66666666666667</ele><time>2026-05-04T17:16:19.27Z</time></trkpt><trkpt lat="45.4681055" lon="9.2937284"><ele>114.5</ele><time>2026-05-04T17:16:21.267Z</time></trkpt><trkpt lat="45.4681887" lon="9.2936853"><ele>114.33333333333334</ele><time>2026-05-04T17:16:24.271Z</time></trkpt><trkpt lat="45.4682248" lon="9.2935833"><ele>114.16666666666667</ele><time>2026-05-04T17:16:27.273Z</time></trkpt><trkpt lat="45.4682363" lon="9.2934806"><ele>114.0</ele><time>2026-05-04T17:16:29.266Z</time></trkpt><trkpt lat="45.4682479" lon="9.293367"><ele>114.0</ele><time>2026-05-04T17:16:31.27Z</time></trkpt><trkpt lat="45.4682434" lon="9.293259"><ele>114.0</ele><time>2026-05-04T17:16:33.263Z</time></trkpt><trkpt lat="45.4682397" lon="9.2931445"><ele>114.0</ele><time>2026-05-04T17:16:35.27Z</time></trkpt><trkpt lat="45.4682426" lon="9.2930352"><ele>114.0</ele><time>2026-05-04T17:16:37.271Z</time></trkpt><trkpt lat="45.4682538" lon="9.2929078"><ele>114.0</ele><time>2026-05-04T17:16:39.272Z</time></trkpt><trkpt lat="45.4682631" lon="9.2927772"><ele>114.0</ele><time>2026-05-04T17:16:41.272Z</time></trkpt><trkpt lat="45.4682725" lon="9.2926547"><ele>113.66666666666667</ele><time>2026-05-04T17:16:43.272Z</time></trkpt><trkpt lat="45.4682854" lon="9.2925346"><ele>113.33333333333334</ele><time>2026-05-04T17:16:45.268Z</time></trkpt><trkpt lat="45.4682954" lon="9.2924114"><ele>113.0</ele><time>2026-05-04T17:16:47.27Z</time></trkpt><trkpt lat="45.4683126" lon="9.2922854"><ele>112.66666666666667</ele><time>2026-05-04T17:16:49.269Z</time></trkpt><trkpt lat="45.4683225" lon="9.2921703"><ele>112.33333333333334</ele><time>2026-05-04T17:16:51.27Z</time></trkpt><trkpt lat="45.4683343" lon="9.292054"><ele>112.0</ele><time>2026-05-04T17:16:53.269Z</time></trkpt><trkpt lat="45.4683512" lon="9.2919426"><ele>111.50000000000001</ele><time>2026-05-04T17:16:55.267Z</time></trkpt><trkpt lat="45.4683611" lon="9.2918479"><ele>111.0</ele><time>2026-05-04T17:16:57.267Z</time></trkpt><trkpt lat="45.4683702" lon="9.2917547"><ele>110.5</ele><time>2026-05-04T17:16:59.276Z</time></trkpt><trkpt lat="45.4683833" lon="9.2916345"><ele>110.0</ele><time>2026-05-04T17:17:02.27Z</time></trkpt><trkpt lat="45.46845" lon="9.2915636"><ele>109.50000000000001</ele><time>2026-05-04T17:17:05.275Z</time></trkpt><trkpt lat="45.4685274" lon="9.2915578"><ele>109.0</ele><time>2026-05-04T17:17:08.261Z</time></trkpt><trkpt lat="45.4686079" lon="9.2915779"><ele>109.0</ele><time>2026-05-04T17:17:12.267Z</time></trkpt><trkpt lat="45.4686744" lon="9.291601"><ele>109.0</ele><time>2026-05-04T17:17:15.271Z</time></trkpt><trkpt lat="45.4691318" lon="9.2917785"><ele>108.83333333333334</ele><time>2026-05-04T17:19:06.264Z</time></trkpt><trkpt lat="45.4691942" lon="9.2918261"><ele>108.66666666666667</ele><time>2026-05-04T17:19:10.267Z</time></trkpt><trkpt lat="45.4692877" lon="9.2918506"><ele>108.5</ele><time>2026-05-04T17:19:13.266Z</time></trkpt><trkpt lat="45.4693553" lon="9.2918806"><ele>108.33333333333334</ele><time>2026-05-04T17:19:15.269Z</time></trkpt><trkpt lat="45.4694366" lon="9.2919049"><ele>108.16666666666667</ele><time>2026-05-04T17:19:17.264Z</time></trkpt><trkpt lat="45.4695199" lon="9.2919412"><ele>108.0</ele><time>2026-05-04T17:19:19.267Z</time></trkpt><trkpt lat="45.4696074" lon="9.2919769"><ele>108.0</ele><time>2026-05-04T17:19:21.27Z</time></trkpt><trkpt lat="45.469705" lon="9.2920124"><ele>108.00000000000001</ele><time>2026-05-04T17:19:23.264Z</time></trkpt><trkpt lat="45.4698071" lon="9.2920219"><ele>108.00000000000001</ele><time>2026-05-04T17:19:25.275Z</time></trkpt><trkpt lat="45.4699134" lon="9.2920441"><ele>108.0</ele><time>2026-05-04T17:19:27.269Z</time></trkpt><trkpt lat="45.4700218" lon="9.2920977"><ele>108.0</ele><time>2026-05-04T17:19:29.26Z</time></trkpt><trkpt lat="45.4701177" lon="9.2921647"><ele>108.0</ele><time>2026-05-04T17:19:31.27Z</time></trkpt><trkpt lat="45.4702107" lon="9.2922326"><ele>108.00000000000001</ele><time>2026-05-04T17:19:33.266Z</time></trkpt><trkpt lat="45.4702987" lon="9.2923003"><ele>108.00000000000001</ele><time>2026-05-04T17:19:35.264Z</time></trkpt><trkpt lat="45.4703861" lon="9.2923604"><ele>108.0</ele><time>2026-05-04T17:19:37.275Z</time></trkpt><trkpt lat="45.4704758" lon="9.2924033"><ele>108.0</ele><time>2026-05-04T17:19:39.272Z</time></trkpt><trkpt lat="45.4705735" lon="9.2924239"><ele>108.2</ele><time>2026-05-04T17:19:41.264Z</time></trkpt><trkpt lat="45.4706703" lon="9.2924451"><ele>108.4</ele><time>2026-05-04T17:19:43.269Z</time></trkpt><trkpt lat="45.4707663" lon="9.2924626"><ele>108.60000000000001</ele><time>2026-05-04T17:19:45.263Z</time></trkpt><trkpt lat="45.4708609" lon="9.2924921"><ele>108.80000000000001</ele><time>2026-05-04T17:19:47.26Z</time></trkpt><trkpt lat="45.4709499" lon="9.292506"><ele>109.0</ele><time>2026-05-04T17:19:49.268Z</time></trkpt><trkpt lat="45.4710301" lon="9.292513"><ele>109.00000000000001</ele><time>2026-05-04T17:19:51.267Z</time></trkpt><trkpt lat="45.4711163" lon="9.2925513"><ele>109.0</ele><time>2026-05-04T17:19:53.266Z</time></trkpt><trkpt lat="45.4712093" lon="9.2925711"><ele>109.0</ele><time>2026-05-04T17:19:55.272Z</time></trkpt><trkpt lat="45.4712973" lon="9.2925716"><ele>109.0</ele><time>2026-05-04T17:19:57.273Z</time></trkpt><trkpt lat="45.4713792" lon="9.2925927"><ele>109.00000000000001</ele><time>2026-05-04T17:19:59.269Z</time></trkpt><trkpt lat="45.4714624" lon="9.29265"><ele>109.0</ele><time>2026-05-04T17:20:01.275Z</time></trkpt><trkpt lat="45.471538" lon="9.2927023"><ele>109.00000000000001</ele><time>2026-05-04T17:20:03.265Z</time></trkpt><trkpt lat="45.4716202" lon="9.292756"><ele>109.0</ele><time>2026-05-04T17:20:05.27Z</time></trkpt><trkpt lat="45.471703" lon="9.2927799"><ele>109.0</ele><time>2026-05-04T17:20:07.265Z</time></trkpt><trkpt lat="45.4717781" lon="9.2928035"><ele>109.0</ele><time>2026-05-04T17:20:09.263Z</time></trkpt><trkpt lat="45.4718526" lon="9.2928222"><ele>109.00000000000001</ele><time>2026-05-04T17:20:11.262Z</time></trkpt><trkpt lat="45.4719313" lon="9.2928289"><ele>109.0</ele><time>2026-05-04T17:20:13.266Z</time></trkpt><trkpt lat="45.4720016" lon="9.292853"><ele>109.00000000000001</ele><time>2026-05-04T17:20:15.27Z</time></trkpt><trkpt lat="45.4720588" lon="9.292918"><ele>109.0</ele><time>2026-05-04T17:20:17.267Z</time></trkpt><trkpt lat="45.472157" lon="9.2929073"><ele>109.0</ele><time>2026-05-04T17:20:21.268Z</time></trkpt><trkpt lat="45.4722516" lon="9.2928839"><ele>109.0</ele><time>2026-05-04T17:20:23.267Z</time></trkpt><trkpt lat="45.4723351" lon="9.292887"><ele>109.00000000000001</ele><time>2026-05-04T17:20:25.27Z</time></trkpt><trkpt lat="45.4724206" lon="9.2929005"><ele>109.0</ele><time>2026-05-04T17:20:27.262Z</time></trkpt><trkpt lat="45.4725049" lon="9.2929083"><ele>108.83333333333334</ele><time>2026-05-04T17:20:29.263Z</time></trkpt><trkpt lat="45.4725927" lon="9.2929023"><ele>108.66666666666667</ele><time>2026-05-04T17:20:31.269Z</time></trkpt><trkpt lat="45.4726818" lon="9.2929101"><ele>108.5</ele><time>2026-05-04T17:20:33.264Z</time></trkpt><trkpt lat="45.4727673" lon="9.2929132"><ele>108.33333333333334</ele><time>2026-05-04T17:20:35.265Z</time></trkpt><trkpt lat="45.472858" lon="9.2929176"><ele>108.16666666666667</ele><time>2026-05-04T17:20:37.264Z</time></trkpt><trkpt lat="45.472939" lon="9.2929162"><ele>108.0</ele><time>2026-05-04T17:20:39.268Z</time></trkpt><trkpt lat="45.4730229" lon="9.2929131"><ele>108.0</ele><time>2026-05-04T17:20:41.276Z</time></trkpt><trkpt lat="45.4731073" lon="9.2928979"><ele>108.0</ele><time>2026-05-04T17:20:43.267Z</time></trkpt><trkpt lat="45.4731939" lon="9.2929011"><ele>108.0</ele><time>2026-05-04T17:20:45.266Z</time></trkpt><trkpt lat="45.4732765" lon="9.2928922"><ele>108.0</ele><time>2026-05-04T17:20:47.269Z</time></trkpt><trkpt lat="45.4733625" lon="9.2928676"><ele>108.0</ele><time>2026-05-04T17:20:49.265Z</time></trkpt><trkpt lat="45.4734469" lon="9.2928284"><ele>108.0</ele><time>2026-05-04T17:20:51.271Z</time></trkpt><trkpt lat="45.4735336" lon="9.2927855"><ele>108.0</ele><time>2026-05-04T17:20:53.27Z</time></trkpt><trkpt lat="45.4736226" lon="9.2927867"><ele>108.0</ele><time>2026-05-04T17:20:55.27Z</time></trkpt><trkpt lat="45.4737103" lon="9.2928047"><ele>108.0</ele><time>2026-05-04T17:20:57.265Z</time></trkpt><trkpt lat="45.4737909" lon="9.2928145"><ele>108.0</ele><time>2026-05-04T17:20:59.27Z</time></trkpt><trkpt lat="45.4738727" lon="9.2928289"><ele>108.0</ele><time>2026-05-04T17:21:01.271Z</time></trkpt><trkpt lat="45.473955" lon="9.2928416"><ele>108.0</ele><time>2026-05-04T17:21:03.271Z</time></trkpt><trkpt lat="45.4740316" lon="9.2928612"><ele>108.0</ele><time>2026-05-04T17:21:05.262Z</time></trkpt><trkpt lat="45.4741024" lon="9.2928791"><ele>108.0</ele><time>2026-05-04T17:21:07.266Z</time></trkpt><trkpt lat="45.4741848" lon="9.2928876"><ele>108.0</ele><time>2026-05-04T17:21:10.263Z</time></trkpt><trkpt lat="45.4742718" lon="9.2928731"><ele>108.0</ele><time>2026-05-04T17:21:15.267Z</time></trkpt><trkpt lat="45.4743349" lon="9.2928813"><ele>108.0</ele><time>2026-05-04T17:21:17.269Z</time></trkpt><trkpt lat="45.4743981" lon="9.2929102"><ele>108.0</ele><time>2026-05-04T17:21:19.262Z</time></trkpt><trkpt lat="45.4744664" lon="9.2929227"><ele>108.0</ele><time>2026-05-04T17:21:21.266Z</time></trkpt><trkpt lat="45.4745395" lon="9.2929412"><ele>108.16666666666667</ele><time>2026-05-04T17:21:23.266Z</time></trkpt><trkpt lat="45.4746169" lon="9.2929547"><ele>108.33333333333334</ele><time>2026-05-04T17:21:25.264Z</time></trkpt><trkpt lat="45.4746862" lon="9.2929844"><ele>108.5</ele><time>2026-05-04T17:21:27.262Z</time></trkpt><trkpt lat="45.4747051" lon="9.2930892"><ele>108.66666666666667</ele><time>2026-05-04T17:21:29.269Z</time></trkpt><trkpt lat="45.4746962" lon="9.2932239"><ele>108.83333333333334</ele><time>2026-05-04T17:21:32.269Z</time></trkpt><trkpt lat="45.474742" lon="9.2933202"><ele>109.0</ele><time>2026-05-04T17:21:35.274Z</time></trkpt><trkpt lat="45.4748315" lon="9.2933406"><ele>109.28571428571429</ele><time>2026-05-04T17:21:38.263Z</time></trkpt><trkpt lat="45.4749023" lon="9.2933558"><ele>109.57142857142858</ele><time>2026-05-04T17:21:40.259Z</time></trkpt><trkpt lat="45.4749702" lon="9.2933667"><ele>109.85714285714286</ele><time>2026-05-04T17:21:42.263Z</time></trkpt><trkpt lat="45.4750433" lon="9.2933749"><ele>110.14285714285714</ele><time>2026-05-04T17:21:44.267Z</time></trkpt><trkpt lat="45.475111" lon="9.2933931"><ele>110.42857142857143</ele><time>2026-05-04T17:21:46.266Z</time></trkpt><trkpt lat="45.4751787" lon="9.2934132"><ele>110.71428571428571</ele><time>2026-05-04T17:21:48.278Z</time></trkpt><trkpt lat="45.4752488" lon="9.2934259"><ele>111.0</ele><time>2026-05-04T17:21:50.27Z</time></trkpt><trkpt lat="45.4753208" lon="9.2934329"><ele>111.0</ele><time>2026-05-04T17:21:52.268Z</time></trkpt><trkpt lat="45.4753955" lon="9.2934357"><ele>111.0</ele><time>2026-05-04T17:21:54.269Z</time></trkpt><trkpt lat="45.475478" lon="9.293458"><ele>111.0</ele><time>2026-05-04T17:21:56.265Z</time></trkpt><trkpt lat="45.4755456" lon="9.2934829"><ele>111.0</ele><time>2026-05-04T17:21:58.264Z</time></trkpt><trkpt lat="45.475613" lon="9.2935168"><ele>111.0</ele><time>2026-05-04T17:22:00.268Z</time></trkpt><trkpt lat="45.475704" lon="9.2935507"><ele>111.0</ele><time>2026-05-04T17:22:03.266Z</time></trkpt><trkpt lat="45.4757658" lon="9.293581"><ele>111.5</ele><time>2026-05-04T17:22:05.271Z</time></trkpt><trkpt lat="45.4758229" lon="9.293628"><ele>112.0</ele><time>2026-05-04T17:22:07.269Z</time></trkpt><trkpt lat="45.4758768" lon="9.2936858"><ele>112.5</ele><time>2026-05-04T17:22:09.267Z</time></trkpt><trkpt lat="45.4759238" lon="9.2937602"><ele>113.0</ele><time>2026-05-04T17:22:11.278Z</time></trkpt><trkpt lat="45.4759788" lon="9.2938316"><ele>113.5</ele><time>2026-05-04T17:22:13.278Z</time></trkpt><trkpt lat="45.4760736" lon="9.2938288"><ele>114.0</ele><time>2026-05-04T17:22:16.262Z</time></trkpt><trkpt lat="45.4761244" lon="9.2937278"><ele>114.0</ele><time>2026-05-04T17:22:19.268Z</time></trkpt><trkpt lat="45.4761406" lon="9.2936311"><ele>114.0</ele><time>2026-05-04T17:22:21.27Z</time></trkpt><trkpt lat="45.4761403" lon="9.2935252"><ele>114.0</ele><time>2026-05-04T17:22:23.265Z</time></trkpt><trkpt lat="45.4761534" lon="9.2933981"><ele>114.0</ele><time>2026-05-04T17:22:25.273Z</time></trkpt><trkpt lat="45.4761853" lon="9.2932722"><ele>114.0</ele><time>2026-05-04T17:22:27.262Z</time></trkpt><trkpt lat="45.476206" lon="9.2931149"><ele>114.0</ele><time>2026-05-04T17:22:29.269Z</time></trkpt><trkpt lat="45.4762108" lon="9.2929436"><ele>113.33333333333333</ele><time>2026-05-04T17:22:31.266Z</time></trkpt><trkpt lat="45.4762036" lon="9.2928538"><ele>112.66666666666666</ele><time>2026-05-04T17:22:32.272Z</time></trkpt><trkpt lat="45.4761714" lon="9.2926746"><ele>112.0</ele><time>2026-05-04T17:22:34.269Z</time></trkpt><trkpt lat="45.4761455" lon="9.2925784"><ele>111.33333333333333</ele><time>2026-05-04T17:22:35.262Z</time></trkpt><trkpt lat="45.4761187" lon="9.2924829"><ele>110.66666666666666</ele><time>2026-05-04T17:22:36.27Z</time></trkpt><trkpt lat="45.4760874" lon="9.2923887"><ele>110.0</ele><time>2026-05-04T17:22:37.264Z</time></trkpt><trkpt lat="45.4760522" lon="9.2922982"><ele>110.66666666666666</ele><time>2026-05-04T17:22:38.264Z</time></trkpt><trkpt lat="45.4760243" lon="9.2922067"><ele>111.33333333333333</ele><time>2026-05-04T17:22:39.267Z</time></trkpt><trkpt lat="45.4759978" lon="9.2921154"><ele>112.0</ele><time>2026-05-04T17:22:40.263Z</time></trkpt><trkpt lat="45.4759696" lon="9.2920264"><ele>112.66666666666666</ele><time>2026-05-04T17:22:41.268Z</time></trkpt><trkpt lat="45.4759376" lon="9.2919406"><ele>113.33333333333333</ele><time>2026-05-04T17:22:42.269Z</time></trkpt><trkpt lat="45.4758889" lon="9.2917709"><ele>114.0</ele><time>2026-05-04T17:22:44.269Z</time></trkpt><trkpt lat="45.4758659" lon="9.2916796"><ele>114.0</ele><time>2026-05-04T17:22:45.265Z</time></trkpt><trkpt lat="45.4758163" lon="9.2915159"><ele>114.0</ele><time>2026-05-04T17:22:47.26Z</time></trkpt><trkpt lat="45.4757732" lon="9.2913585"><ele>114.0</ele><time>2026-05-04T17:22:49.27Z</time></trkpt><trkpt lat="45.4757233" lon="9.2912009"><ele>114.0</ele><time>2026-05-04T17:22:51.266Z</time></trkpt><trkpt lat="45.4756803" lon="9.2910491"><ele>113.80000000000001</ele><time>2026-05-04T17:22:53.276Z</time></trkpt><trkpt lat="45.4756525" lon="9.2909654"><ele>113.60000000000001</ele><time>2026-05-04T17:22:54.265Z</time></trkpt><trkpt lat="45.475632" lon="9.2908803"><ele>113.4</ele><time>2026-05-04T17:22:55.266Z</time></trkpt><trkpt lat="45.4755913" lon="9.2907202"><ele>113.2</ele><time>2026-05-04T17:22:57.273Z</time></trkpt><trkpt lat="45.4755493" lon="9.2905665"><ele>113.0</ele><time>2026-05-04T17:22:59.27Z</time></trkpt><trkpt lat="45.4755075" lon="9.2904234"><ele>113.0</ele><time>2026-05-04T17:23:01.27Z</time></trkpt><trkpt lat="45.4754697" lon="9.2902851"><ele>113.00000000000001</ele><time>2026-05-04T17:23:03.267Z</time></trkpt><trkpt lat="45.4754244" lon="9.2901535"><ele>113.00000000000001</ele><time>2026-05-04T17:23:05.267Z</time></trkpt><trkpt lat="45.4753904" lon="9.2900057"><ele>113.0</ele><time>2026-05-04T17:23:07.268Z</time></trkpt><trkpt lat="45.4753536" lon="9.2898712"><ele>113.0</ele><time>2026-05-04T17:23:09.268Z</time></trkpt><trkpt lat="45.4753147" lon="9.2897397"><ele>112.4</ele><time>2026-05-04T17:23:11.275Z</time></trkpt><trkpt lat="45.4752731" lon="9.289606"><ele>111.80000000000001</ele><time>2026-05-04T17:23:13.274Z</time></trkpt><trkpt lat="45.4752185" lon="9.2894951"><ele>111.2</ele><time>2026-05-04T17:23:15.263Z</time></trkpt><trkpt lat="45.47515" lon="9.2893948"><ele>110.6</ele><time>2026-05-04T17:23:17.263Z</time></trkpt><trkpt lat="45.4750729" lon="9.2893091"><ele>110.0</ele><time>2026-05-04T17:23:19.267Z</time></trkpt><trkpt lat="45.4749908" lon="9.2892285"><ele>110.0</ele><time>2026-05-04T17:23:21.268Z</time></trkpt><trkpt lat="45.4749057" lon="9.2891621"><ele>110.0</ele><time>2026-05-04T17:23:23.271Z</time></trkpt><trkpt lat="45.4748161" lon="9.2891113"><ele>110.0</ele><time>2026-05-04T17:23:25.266Z</time></trkpt><trkpt lat="45.4747203" lon="9.2890775"><ele>110.0</ele><time>2026-05-04T17:23:27.272Z</time></trkpt><trkpt lat="45.4746227" lon="9.2890439"><ele>110.0</ele><time>2026-05-04T17:23:29.271Z</time></trkpt><trkpt lat="45.4745196" lon="9.2890319"><ele>109.6</ele><time>2026-05-04T17:23:31.273Z</time></trkpt><trkpt lat="45.4744182" lon="9.2890098"><ele>109.2</ele><time>2026-05-04T17:23:33.271Z</time></trkpt><trkpt lat="45.4743192" lon="9.2889911"><ele>108.80000000000001</ele><time>2026-05-04T17:23:35.265Z</time></trkpt><trkpt lat="45.4742156" lon="9.2889725"><ele>108.4</ele><time>2026-05-04T17:23:37.268Z</time></trkpt><trkpt lat="45.4741207" lon="9.2889603"><ele>108.0</ele><time>2026-05-04T17:23:39.269Z</time></trkpt><trkpt lat="45.4740226" lon="9.2889471"><ele>109.0</ele><time>2026-05-04T17:23:41.266Z</time></trkpt><trkpt lat="45.4739359" lon="9.2889066"><ele>110.0</ele><time>2026-05-04T17:23:43.268Z</time></trkpt><trkpt lat="45.4738697" lon="9.2888215"><ele>111.0</ele><time>2026-05-04T17:23:45.276Z</time></trkpt><trkpt lat="45.4738126" lon="9.2887513"><ele>112.0</ele><time>2026-05-04T17:23:47.268Z</time></trkpt><trkpt lat="45.4737603" lon="9.288665"><ele>113.0</ele><time>2026-05-04T17:23:50.262Z</time></trkpt><trkpt lat="45.4736854" lon="9.2885804"><ele>114.0</ele><time>2026-05-04T17:23:53.261Z</time></trkpt><trkpt lat="45.473601" lon="9.2885471"><ele>114.0</ele><time>2026-05-04T17:23:55.265Z</time></trkpt><trkpt lat="45.4735194" lon="9.2885256"><ele>114.0</ele><time>2026-05-04T17:23:57.268Z</time></trkpt><trkpt lat="45.4734241" lon="9.2884874"><ele>114.0</ele><time>2026-05-04T17:23:59.263Z</time></trkpt><trkpt lat="45.4733284" lon="9.2884377"><ele>114.0</ele><time>2026-05-04T17:24:01.263Z</time></trkpt><trkpt lat="45.4732383" lon="9.2884062"><ele>114.0</ele><time>2026-05-04T17:24:03.266Z</time></trkpt><trkpt lat="45.4731448" lon="9.2883935"><ele>114.0</ele><time>2026-05-04T17:24:05.267Z</time></trkpt><trkpt lat="45.4730489" lon="9.2883759"><ele>114.0</ele><time>2026-05-04T17:24:07.269Z</time></trkpt><trkpt lat="45.4729574" lon="9.2883579"><ele>114.0</ele><time>2026-05-04T17:24:09.264Z</time></trkpt><trkpt lat="45.4728639" lon="9.288326"><ele>114.0</ele><time>2026-05-04T17:24:11.268Z</time></trkpt><trkpt lat="45.4727786" lon="9.2883078"><ele>114.0</ele><time>2026-05-04T17:24:13.268Z</time></trkpt><trkpt lat="45.4726943" lon="9.2883307"><ele>114.0</ele><time>2026-05-04T17:24:15.265Z</time></trkpt><trkpt lat="45.4725967" lon="9.288368"><ele>114.0</ele><time>2026-05-04T17:24:17.266Z</time></trkpt><trkpt lat="45.4724872" lon="9.2883965"><ele>114.0</ele><time>2026-05-04T17:24:19.264Z</time></trkpt><trkpt lat="45.4723734" lon="9.2884249"><ele>114.0</ele><time>2026-05-04T17:24:21.263Z</time></trkpt><trkpt lat="45.4722688" lon="9.288464"><ele>114.0</ele><time>2026-05-04T17:24:23.262Z</time></trkpt><trkpt lat="45.4721583" lon="9.2884969"><ele>113.6</ele><time>2026-05-04T17:24:25.267Z</time></trkpt><trkpt lat="45.4720449" lon="9.2885209"><ele>113.2</ele><time>2026-05-04T17:24:27.265Z</time></trkpt><trkpt lat="45.4719297" lon="9.288518"><ele>112.79999999999998</ele><time>2026-05-04T17:24:29.268Z</time></trkpt><trkpt lat="45.4718201" lon="9.2885145"><ele>112.39999999999999</ele><time>2026-05-04T17:24:31.268Z</time></trkpt><trkpt lat="45.4717147" lon="9.2885059"><ele>112.0</ele><time>2026-05-04T17:24:33.266Z</time></trkpt><trkpt lat="45.4716065" lon="9.2885044"><ele>112.0</ele><time>2026-05-04T17:24:35.264Z</time></trkpt><trkpt lat="45.471503" lon="9.2884982"><ele>111.99999999999999</ele><time>2026-05-04T17:24:37.263Z</time></trkpt><trkpt lat="45.4714054" lon="9.2884891"><ele>111.99999999999999</ele><time>2026-05-04T17:24:39.272Z</time></trkpt><trkpt lat="45.4713016" lon="9.2884847"><ele>112.0</ele><time>2026-05-04T17:24:41.27Z</time></trkpt><trkpt lat="45.4712027" lon="9.2884678"><ele>112.0</ele><time>2026-05-04T17:24:43.265Z</time></trkpt><trkpt lat="45.4711" lon="9.2884594"><ele>111.8</ele><time>2026-05-04T17:24:45.266Z</time></trkpt><trkpt lat="45.4710003" lon="9.2884464"><ele>111.6</ele><time>2026-05-04T17:24:47.267Z</time></trkpt><trkpt lat="45.4709109" lon="9.28842"><ele>111.39999999999999</ele><time>2026-05-04T17:24:49.263Z</time></trkpt><trkpt lat="45.4708177" lon="9.2883972"><ele>111.19999999999999</ele><time>2026-05-04T17:24:51.272Z</time></trkpt><trkpt lat="45.4707222" lon="9.2883806"><ele>111.0</ele><time>2026-05-04T17:24:53.266Z</time></trkpt><trkpt lat="45.4706251" lon="9.2883784"><ele>111.0</ele><time>2026-05-04T17:24:55.266Z</time></trkpt><trkpt lat="45.4705302" lon="9.2883542"><ele>111.0</ele><time>2026-05-04T17:24:57.262Z</time></trkpt><trkpt lat="45.4704383" lon="9.2883293"><ele>111.0</ele><time>2026-05-04T17:24:59.263Z</time></trkpt><trkpt lat="45.4703394" lon="9.2883097"><ele>111.0</ele><time>2026-05-04T17:25:01.272Z</time></trkpt><trkpt lat="45.4702457" lon="9.2882992"><ele>111.0</ele><time>2026-05-04T17:25:03.263Z</time></trkpt><trkpt lat="45.4701526" lon="9.2882759"><ele>111.6</ele><time>2026-05-04T17:25:05.27Z</time></trkpt><trkpt lat="45.4700631" lon="9.2882566"><ele>112.19999999999999</ele><time>2026-05-04T17:25:07.27Z</time></trkpt><trkpt lat="45.4699696" lon="9.2882457"><ele>112.80000000000001</ele><time>2026-05-04T17:25:09.265Z</time></trkpt><trkpt lat="45.4698768" lon="9.288231"><ele>113.4</ele><time>2026-05-04T17:25:11.262Z</time></trkpt><trkpt lat="45.4697853" lon="9.288225"><ele>114.0</ele><time>2026-05-04T17:25:13.268Z</time></trkpt><trkpt lat="45.4696991" lon="9.2882072"><ele>113.5</ele><time>2026-05-04T17:25:15.266Z</time></trkpt><trkpt lat="45.4696076" lon="9.2881957"><ele>113.0</ele><time>2026-05-04T17:25:17.265Z</time></trkpt><trkpt lat="45.4695211" lon="9.2881795"><ele>112.5</ele><time>2026-05-04T17:25:19.264Z</time></trkpt><trkpt lat="45.469439" lon="9.2881575"><ele>112.0</ele><time>2026-05-04T17:25:21.265Z</time></trkpt><trkpt lat="45.4693467" lon="9.2881659"><ele>111.5</ele><time>2026-05-04T17:25:23.266Z</time></trkpt><trkpt lat="45.46926" lon="9.2881559"><ele>111.0</ele><time>2026-05-04T17:25:25.263Z</time></trkpt><trkpt lat="45.4691717" lon="9.288132"><ele>111.0</ele><time>2026-05-04T17:25:27.27Z</time></trkpt><trkpt lat="45.4690812" lon="9.2881205"><ele>111.0</ele><time>2026-05-04T17:25:29.269Z</time></trkpt><trkpt lat="45.4689891" lon="9.2881109"><ele>111.0</ele><time>2026-05-04T17:25:31.266Z</time></trkpt><trkpt lat="45.4689007" lon="9.2880921"><ele>111.0</ele><time>2026-05-04T17:25:33.267Z</time></trkpt><trkpt lat="45.4688144" lon="9.2880672"><ele>111.0</ele><time>2026-05-04T17:25:35.264Z</time></trkpt><trkpt lat="45.468735" lon="9.2880397"><ele>111.0</ele><time>2026-05-04T17:25:37.262Z</time></trkpt><trkpt lat="45.4686577" lon="9.288022"><ele>111.83333333333333</ele><time>2026-05-04T17:25:39.267Z</time></trkpt><trkpt lat="45.4685687" lon="9.2880116"><ele>112.66666666666666</ele><time>2026-05-04T17:25:41.272Z</time></trkpt><trkpt lat="45.4684825" lon="9.2879889"><ele>113.5</ele><time>2026-05-04T17:25:43.265Z</time></trkpt><trkpt lat="45.4683999" lon="9.2879727"><ele>114.33333333333333</ele><time>2026-05-04T17:25:45.269Z</time></trkpt><trkpt lat="45.4683116" lon="9.2879529"><ele>115.16666666666666</ele><time>2026-05-04T17:25:47.262Z</time></trkpt><trkpt lat="45.4682179" lon="9.2879347"><ele>116.0</ele><time>2026-05-04T17:25:49.262Z</time></trkpt><trkpt lat="45.4681272" lon="9.2879253"><ele>115.99999999999999</ele><time>2026-05-04T17:25:51.267Z</time></trkpt><trkpt lat="45.4680415" lon="9.2879157"><ele>116.0</ele><time>2026-05-04T17:25:53.264Z</time></trkpt><trkpt lat="45.4679484" lon="9.2878948"><ele>116.0</ele><time>2026-05-04T17:25:55.274Z</time></trkpt><trkpt lat="45.4678634" lon="9.2878827"><ele>116.0</ele><time>2026-05-04T17:25:57.266Z</time></trkpt><trkpt lat="45.4677757" lon="9.2878694"><ele>115.99999999999999</ele><time>2026-05-04T17:25:59.266Z</time></trkpt><trkpt lat="45.4676848" lon="9.2878563"><ele>116.0</ele><time>2026-05-04T17:26:01.269Z</time></trkpt><trkpt lat="45.467603" lon="9.2878359"><ele>115.83333333333333</ele><time>2026-05-04T17:26:03.264Z</time></trkpt><trkpt lat="45.4675186" lon="9.2878203"><ele>115.66666666666666</ele><time>2026-05-04T17:26:05.268Z</time></trkpt><trkpt lat="45.4674311" lon="9.2878199"><ele>115.5</ele><time>2026-05-04T17:26:07.27Z</time></trkpt><trkpt lat="45.4673509" lon="9.2878196"><ele>115.33333333333334</ele><time>2026-05-04T17:26:09.267Z</time></trkpt><trkpt lat="45.4672625" lon="9.2878183"><ele>115.16666666666667</ele><time>2026-05-04T17:26:11.275Z</time></trkpt><trkpt lat="45.4671785" lon="9.2877836"><ele>115.0</ele><time>2026-05-04T17:26:13.263Z</time></trkpt><trkpt lat="45.4670973" lon="9.2877434"><ele>115.00000000000001</ele><time>2026-05-04T17:26:15.267Z</time></trkpt><trkpt lat="45.4670123" lon="9.2877251"><ele>115.0</ele><time>2026-05-04T17:26:17.267Z</time></trkpt><trkpt lat="45.4669246" lon="9.287702"><ele>115.0</ele><time>2026-05-04T17:26:19.261Z</time></trkpt><trkpt lat="45.4668459" lon="9.2877028"><ele>115.0</ele><time>2026-05-04T17:26:21.264Z</time></trkpt><trkpt lat="45.4667577" lon="9.2876904"><ele>115.00000000000001</ele><time>2026-05-04T17:26:23.269Z</time></trkpt><trkpt lat="45.4666703" lon="9.2876736"><ele>115.0</ele><time>2026-05-04T17:26:25.265Z</time></trkpt><trkpt lat="45.4665786" lon="9.2876657"><ele>115.0</ele><time>2026-05-04T17:26:27.268Z</time></trkpt><trkpt lat="45.4664876" lon="9.2876584"><ele>115.0</ele><time>2026-05-04T17:26:29.264Z</time></trkpt><trkpt lat="45.4663958" lon="9.2876471"><ele>115.0</ele><time>2026-05-04T17:26:31.267Z</time></trkpt><trkpt lat="45.4663002" lon="9.2876225"><ele>115.0</ele><time>2026-05-04T17:26:33.263Z</time></trkpt><trkpt lat="45.4662149" lon="9.2875965"><ele>115.0</ele><time>2026-05-04T17:26:35.266Z</time></trkpt><trkpt lat="45.4661224" lon="9.2875916"><ele>114.83333333333334</ele><time>2026-05-04T17:26:37.264Z</time></trkpt><trkpt lat="45.4660326" lon="9.2875912"><ele>114.66666666666667</ele><time>2026-05-04T17:26:39.265Z</time></trkpt><trkpt lat="45.4659408" lon="9.2875667"><ele>114.5</ele><time>2026-05-04T17:26:41.268Z</time></trkpt><trkpt lat="45.4658601" lon="9.2875368"><ele>114.33333333333334</ele><time>2026-05-04T17:26:43.266Z</time></trkpt><trkpt lat="45.4657748" lon="9.2875214"><ele>114.16666666666667</ele><time>2026-05-04T17:26:45.268Z</time></trkpt><trkpt lat="45.4656866" lon="9.2875039"><ele>114.0</ele><time>2026-05-04T17:26:47.259Z</time></trkpt><trkpt lat="45.4655959" lon="9.2874835"><ele>114.0</ele><time>2026-05-04T17:26:49.264Z</time></trkpt><trkpt lat="45.4655024" lon="9.2874845"><ele>114.0</ele><time>2026-05-04T17:26:51.271Z</time></trkpt><trkpt lat="45.4654205" lon="9.2874677"><ele>114.0</ele><time>2026-05-04T17:26:53.262Z</time></trkpt><trkpt lat="45.4653333" lon="9.2874569"><ele>114.0</ele><time>2026-05-04T17:26:55.266Z</time></trkpt><trkpt lat="45.4652492" lon="9.2874405"><ele>114.0</ele><time>2026-05-04T17:26:57.267Z</time></trkpt><trkpt lat="45.4651605" lon="9.2874201"><ele>114.0</ele><time>2026-05-04T17:26:59.265Z</time></trkpt><trkpt lat="45.4650712" lon="9.287405"><ele>113.83333333333333</ele><time>2026-05-04T17:27:01.267Z</time></trkpt><trkpt lat="45.4649875" lon="9.2873913"><ele>113.66666666666666</ele><time>2026-05-04T17:27:03.261Z</time></trkpt><trkpt lat="45.4649036" lon="9.2873793"><ele>113.5</ele><time>2026-05-04T17:27:05.268Z</time></trkpt><trkpt lat="45.4648137" lon="9.2873657"><ele>113.33333333333333</ele><time>2026-05-04T17:27:07.268Z</time></trkpt><trkpt lat="45.4647275" lon="9.28736"><ele>113.16666666666666</ele><time>2026-05-04T17:27:09.267Z</time></trkpt><trkpt lat="45.4646444" lon="9.2873471"><ele>113.0</ele><time>2026-05-04T17:27:11.265Z</time></trkpt><trkpt lat="45.4645643" lon="9.2873209"><ele>113.16666666666666</ele><time>2026-05-04T17:27:13.268Z</time></trkpt><trkpt lat="45.4644904" lon="9.287291"><ele>113.33333333333333</ele><time>2026-05-04T17:27:15.263Z</time></trkpt><trkpt lat="45.4644506" lon="9.2871934"><ele>113.5</ele><time>2026-05-04T17:27:17.268Z</time></trkpt><trkpt lat="45.4644509" lon="9.2871019"><ele>113.66666666666666</ele><time>2026-05-04T17:27:19.259Z</time></trkpt><trkpt lat="45.4644291" lon="9.2869797"><ele>113.83333333333333</ele><time>2026-05-04T17:27:22.264Z</time></trkpt><trkpt lat="45.4644248" lon="9.286858"><ele>114.0</ele><time>2026-05-04T17:27:25.266Z</time></trkpt><trkpt lat="45.4644314" lon="9.2867642"><ele>114.0</ele><time>2026-05-04T17:27:28.265Z</time></trkpt><trkpt lat="45.464441" lon="9.2866725"><ele>114.0</ele><time>2026-05-04T17:27:31.263Z</time></trkpt><trkpt lat="45.4644371" lon="9.2865693"><ele>114.0</ele><time>2026-05-04T17:27:34.274Z</time></trkpt><trkpt lat="45.4644299" lon="9.2864798"><ele>114.0</ele><time>2026-05-04T17:27:37.264Z</time></trkpt><trkpt lat="45.4644166" lon="9.2863752"><ele>114.0</ele><time>2026-05-04T17:27:42.265Z</time></trkpt><trkpt lat="45.4644363" lon="9.2864662"><ele>114.0</ele><time>2026-05-04T17:27:57.268Z</time></trkpt><trkpt lat="45.463387" lon="9.2869953"><ele>114.0</ele><time>2026-05-04T17:33:50.266Z</time></trkpt><trkpt lat="45.463277" lon="9.2869122"><ele>114.0</ele><time>2026-05-04T17:33:53.269Z</time></trkpt><trkpt lat="45.4632127" lon="9.2868429"><ele>114.0</ele><time>2026-05-04T17:33:55.263Z</time></trkpt><trkpt lat="45.4631551" lon="9.2867705"><ele>114.0</ele><time>2026-05-04T17:33:57.264Z</time></trkpt><trkpt lat="45.463112" lon="9.2866894"><ele>114.0</ele><time>2026-05-04T17:33:59.261Z</time></trkpt><trkpt lat="45.4630513" lon="9.2866032"><ele>114.0</ele><time>2026-05-04T17:34:01.261Z</time></trkpt><trkpt lat="45.4629921" lon="9.2865212"><ele>114.0</ele><time>2026-05-04T17:34:03.265Z</time></trkpt><trkpt lat="45.4629415" lon="9.286428"><ele>114.0</ele><time>2026-05-04T17:34:05.262Z</time></trkpt><trkpt lat="45.462867" lon="9.2864052"><ele>114.0</ele><time>2026-05-04T17:34:07.259Z</time></trkpt><trkpt lat="45.462782" lon="9.2863877"><ele>114.0</ele><time>2026-05-04T17:34:09.261Z</time></trkpt><trkpt lat="45.4626859" lon="9.2863694"><ele>114.0</ele><time>2026-05-04T17:34:11.27Z</time></trkpt><trkpt lat="45.4625901" lon="9.2863633"><ele>114.0</ele><time>2026-05-04T17:34:13.267Z</time></trkpt><trkpt lat="45.4625018" lon="9.2863575"><ele>114.5</ele><time>2026-05-04T17:34:15.264Z</time></trkpt><trkpt lat="45.4624245" lon="9.2863592"><ele>115.0</ele><time>2026-05-04T17:34:17.26Z</time></trkpt><trkpt lat="45.4623611" lon="9.2863564"><ele>115.5</ele><time>2026-05-04T17:34:19.263Z</time></trkpt><trkpt lat="45.4622746" lon="9.2863533"><ele>116.0</ele><time>2026-05-04T17:34:22.262Z</time></trkpt><trkpt lat="45.4622044" lon="9.2863462"><ele>116.5</ele><time>2026-05-04T17:34:24.26Z</time></trkpt><trkpt lat="45.4621095" lon="9.2863332"><ele>117.0</ele><time>2026-05-04T17:34:26.265Z</time></trkpt><trkpt lat="45.4620115" lon="9.2863297"><ele>115.83333333333333</ele><time>2026-05-04T17:34:28.265Z</time></trkpt><trkpt lat="45.4619255" lon="9.286314"><ele>114.66666666666666</ele><time>2026-05-04T17:34:30.26Z</time></trkpt><trkpt lat="45.4618508" lon="9.2862941"><ele>113.5</ele><time>2026-05-04T17:34:32.262Z</time></trkpt><trkpt lat="45.4617664" lon="9.2862844"><ele>112.33333333333333</ele><time>2026-05-04T17:34:34.265Z</time></trkpt><trkpt lat="45.4616896" lon="9.2862744"><ele>111.16666666666666</ele><time>2026-05-04T17:34:36.262Z</time></trkpt><trkpt lat="45.4616065" lon="9.286258"><ele>110.0</ele><time>2026-05-04T17:34:38.261Z</time></trkpt><trkpt lat="45.4615323" lon="9.2862473"><ele>109.99999999999999</ele><time>2026-05-04T17:34:40.263Z</time></trkpt><trkpt lat="45.4614587" lon="9.2862363"><ele>110.0</ele><time>2026-05-04T17:34:42.27Z</time></trkpt><trkpt lat="45.4613833" lon="9.2862283"><ele>110.0</ele><time>2026-05-04T17:34:44.265Z</time></trkpt><trkpt lat="45.461298" lon="9.2862146"><ele>110.0</ele><time>2026-05-04T17:34:46.255Z</time></trkpt><trkpt lat="45.4612177" lon="9.2862007"><ele>109.99999999999999</ele><time>2026-05-04T17:34:48.267Z</time></trkpt><trkpt lat="45.4611411" lon="9.2861895"><ele>110.0</ele><time>2026-05-04T17:34:50.264Z</time></trkpt><trkpt lat="45.4610638" lon="9.2861783"><ele>109.49999999999999</ele><time>2026-05-04T17:34:52.266Z</time></trkpt><trkpt lat="45.460979" lon="9.2861659"><ele>109.0</ele><time>2026-05-04T17:34:54.261Z</time></trkpt><trkpt lat="45.4608981" lon="9.2861394"><ele>108.5</ele><time>2026-05-04T17:34:56.265Z</time></trkpt><trkpt lat="45.4608213" lon="9.2861534"><ele>108.0</ele><time>2026-05-04T17:34:58.262Z</time></trkpt><trkpt lat="45.4607451" lon="9.2861814"><ele>107.49999999999999</ele><time>2026-05-04T17:35:00.266Z</time></trkpt><trkpt lat="45.4606728" lon="9.2862138"><ele>107.0</ele><time>2026-05-04T17:35:02.267Z</time></trkpt><trkpt lat="45.4605943" lon="9.2862451"><ele>107.0</ele><time>2026-05-04T17:35:04.267Z</time></trkpt><trkpt lat="45.4605198" lon="9.2862638"><ele>106.99999999999999</ele><time>2026-05-04T17:35:06.259Z</time></trkpt><trkpt lat="45.4604232" lon="9.2862353"><ele>106.99999999999999</ele><time>2026-05-04T17:35:08.269Z</time></trkpt><trkpt lat="45.4603289" lon="9.2862007"><ele>107.0</ele><time>2026-05-04T17:35:10.265Z</time></trkpt><trkpt lat="45.4602292" lon="9.2861679"><ele>107.0</ele><time>2026-05-04T17:35:12.263Z</time></trkpt><trkpt lat="45.4601393" lon="9.2861309"><ele>106.99999999999999</ele><time>2026-05-04T17:35:14.269Z</time></trkpt><trkpt lat="45.460054" lon="9.286086"><ele>107.0</ele><time>2026-05-04T17:35:16.268Z</time></trkpt><trkpt lat="45.4599829" lon="9.2860319"><ele>107.0</ele><time>2026-05-04T17:35:18.277Z</time></trkpt><trkpt lat="45.4599109" lon="9.2859658"><ele>107.0</ele><time>2026-05-04T17:35:21.266Z</time></trkpt><trkpt lat="45.4598278" lon="9.2859093"><ele>106.99999999999999</ele><time>2026-05-04T17:35:24.26Z</time></trkpt><trkpt lat="45.4597444" lon="9.2858506"><ele>107.0</ele><time>2026-05-04T17:35:27.263Z</time></trkpt><trkpt lat="45.45967" lon="9.2857992"><ele>107.49999999999999</ele><time>2026-05-04T17:35:29.264Z</time></trkpt><trkpt lat="45.4595767" lon="9.2857753"><ele>108.0</ele><time>2026-05-04T17:35:31.269Z</time></trkpt><trkpt lat="45.4594974" lon="9.2857933"><ele>108.5</ele><time>2026-05-04T17:35:33.269Z</time></trkpt><trkpt lat="45.4594328" lon="9.2858535"><ele>109.0</ele><time>2026-05-04T17:35:35.262Z</time></trkpt><trkpt lat="45.4593846" lon="9.2859442"><ele>109.49999999999999</ele><time>2026-05-04T17:35:37.266Z</time></trkpt><trkpt lat="45.4593408" lon="9.2860381"><ele>110.0</ele><time>2026-05-04T17:35:39.265Z</time></trkpt><trkpt lat="45.459272" lon="9.2860908"><ele>109.99999999999999</ele><time>2026-05-04T17:35:41.277Z</time></trkpt><trkpt lat="45.4592059" lon="9.2861509"><ele>110.0</ele><time>2026-05-04T17:35:43.267Z</time></trkpt><trkpt lat="45.4591353" lon="9.2861984"><ele>110.0</ele><time>2026-05-04T17:35:45.29Z</time></trkpt><trkpt lat="45.4590579" lon="9.286242"><ele>110.0</ele><time>2026-05-04T17:35:47.266Z</time></trkpt><trkpt lat="45.4589804" lon="9.2862793"><ele>109.99999999999999</ele><time>2026-05-04T17:35:49.266Z</time></trkpt><trkpt lat="45.4589007" lon="9.2862998"><ele>110.0</ele><time>2026-05-04T17:35:51.259Z</time></trkpt><trkpt lat="45.4588159" lon="9.2863115"><ele>110.16666666666666</ele><time>2026-05-04T17:35:53.26Z</time></trkpt><trkpt lat="45.4587335" lon="9.2863182"><ele>110.33333333333333</ele><time>2026-05-04T17:35:55.261Z</time></trkpt><trkpt lat="45.4586468" lon="9.2863293"><ele>110.5</ele><time>2026-05-04T17:35:57.259Z</time></trkpt><trkpt lat="45.4585643" lon="9.2863303"><ele>110.66666666666666</ele><time>2026-05-04T17:35:59.268Z</time></trkpt><trkpt lat="45.4584709" lon="9.286318"><ele>110.83333333333333</ele><time>2026-05-04T17:36:01.269Z</time></trkpt><trkpt lat="45.4583812" lon="9.2863132"><ele>111.0</ele><time>2026-05-04T17:36:03.262Z</time></trkpt><trkpt lat="45.4583015" lon="9.2862963"><ele>111.0</ele><time>2026-05-04T17:36:05.265Z</time></trkpt><trkpt lat="45.4582189" lon="9.2862857"><ele>111.0</ele><time>2026-05-04T17:36:07.264Z</time></trkpt><trkpt lat="45.4581337" lon="9.2862872"><ele>111.0</ele><time>2026-05-04T17:36:09.263Z</time></trkpt><trkpt lat="45.4580585" lon="9.2862724"><ele>111.0</ele><time>2026-05-04T17:36:11.26Z</time></trkpt><trkpt lat="45.4579784" lon="9.2862516"><ele>111.0</ele><time>2026-05-04T17:36:13.26Z</time></trkpt><trkpt lat="45.4578967" lon="9.2862399"><ele>111.0</ele><time>2026-05-04T17:36:15.269Z</time></trkpt><trkpt lat="45.4578066" lon="9.2862187"><ele>110.83333333333333</ele><time>2026-05-04T17:36:17.261Z</time></trkpt><trkpt lat="45.4577157" lon="9.2862125"><ele>110.66666666666666</ele><time>2026-05-04T17:36:19.263Z</time></trkpt><trkpt lat="45.4576383" lon="9.2861923"><ele>110.5</ele><time>2026-05-04T17:36:21.271Z</time></trkpt><trkpt lat="45.4575597" lon="9.2861601"><ele>110.33333333333333</ele><time>2026-05-04T17:36:23.267Z</time></trkpt><trkpt lat="45.4574906" lon="9.2861356"><ele>110.16666666666666</ele><time>2026-05-04T17:36:25.264Z</time></trkpt><trkpt lat="45.4574129" lon="9.2861093"><ele>110.0</ele><time>2026-05-04T17:36:27.265Z</time></trkpt><trkpt lat="45.4573314" lon="9.2861015"><ele>109.99999999999999</ele><time>2026-05-04T17:36:29.264Z</time></trkpt><trkpt lat="45.4572541" lon="9.2860877"><ele>110.0</ele><time>2026-05-04T17:36:31.264Z</time></trkpt><trkpt lat="45.4571655" lon="9.2860729"><ele>110.0</ele><time>2026-05-04T17:36:33.264Z</time></trkpt><trkpt lat="45.4570793" lon="9.2860514"><ele>110.0</ele><time>2026-05-04T17:36:35.264Z</time></trkpt><trkpt lat="45.4569878" lon="9.2860351"><ele>109.99999999999999</ele><time>2026-05-04T17:36:37.263Z</time></trkpt><trkpt lat="45.4569009" lon="9.2860162"><ele>110.0</ele><time>2026-05-04T17:36:39.262Z</time></trkpt><trkpt lat="45.4568183" lon="9.2859983"><ele>109.66666666666666</ele><time>2026-05-04T17:36:41.268Z</time></trkpt><trkpt lat="45.45673" lon="9.2859887"><ele>109.33333333333333</ele><time>2026-05-04T17:36:43.265Z</time></trkpt><trkpt lat="45.456647" lon="9.2859789"><ele>109.0</ele><time>2026-05-04T17:36:45.261Z</time></trkpt><trkpt lat="45.4565583" lon="9.2859644"><ele>108.66666666666666</ele><time>2026-05-04T17:36:47.271Z</time></trkpt><trkpt lat="45.4564721" lon="9.2859356"><ele>108.33333333333333</ele><time>2026-05-04T17:36:49.272Z</time></trkpt><trkpt lat="45.4563834" lon="9.2859223"><ele>108.0</ele><time>2026-05-04T17:36:51.269Z</time></trkpt><trkpt lat="45.4562958" lon="9.285908"><ele>108.0</ele><time>2026-05-04T17:36:53.268Z</time></trkpt><trkpt lat="45.4562081" lon="9.2858894"><ele>108.0</ele><time>2026-05-04T17:36:55.266Z</time></trkpt><trkpt lat="45.4561175" lon="9.2858744"><ele>108.0</ele><time>2026-05-04T17:36:57.261Z</time></trkpt><trkpt lat="45.4560308" lon="9.2858599"><ele>108.0</ele><time>2026-05-04T17:36:59.264Z</time></trkpt><trkpt lat="45.45595" lon="9.2858492"><ele>108.0</ele><time>2026-05-04T17:37:01.264Z</time></trkpt><trkpt lat="45.4558641" lon="9.2858376"><ele>108.0</ele><time>2026-05-04T17:37:03.265Z</time></trkpt><trkpt lat="45.4557768" lon="9.2858195"><ele>108.0</ele><time>2026-05-04T17:37:05.267Z</time></trkpt><trkpt lat="45.4556833" lon="9.2858075"><ele>108.00000000000001</ele><time>2026-05-04T17:37:07.268Z</time></trkpt><trkpt lat="45.4555878" lon="9.2857936"><ele>108.00000000000001</ele><time>2026-05-04T17:37:09.268Z</time></trkpt><trkpt lat="45.4554994" lon="9.2857794"><ele>108.0</ele><time>2026-05-04T17:37:11.263Z</time></trkpt><trkpt lat="45.4554033" lon="9.2857592"><ele>108.0</ele><time>2026-05-04T17:37:13.263Z</time></trkpt><trkpt lat="45.45531" lon="9.2857578"><ele>108.2</ele><time>2026-05-04T17:37:15.262Z</time></trkpt><trkpt lat="45.4552171" lon="9.2857413"><ele>108.4</ele><time>2026-05-04T17:37:17.266Z</time></trkpt><trkpt lat="45.4551223" lon="9.2857263"><ele>108.60000000000001</ele><time>2026-05-04T17:37:19.274Z</time></trkpt><trkpt lat="45.4550332" lon="9.28571"><ele>108.80000000000001</ele><time>2026-05-04T17:37:21.262Z</time></trkpt><trkpt lat="45.4549368" lon="9.2856877"><ele>109.0</ele><time>2026-05-04T17:37:23.267Z</time></trkpt><trkpt lat="45.4548433" lon="9.2856626"><ele>109.0</ele><time>2026-05-04T17:37:25.263Z</time></trkpt><trkpt lat="45.4547496" lon="9.2856456"><ele>109.0</ele><time>2026-05-04T17:37:27.26Z</time></trkpt><trkpt lat="45.454661" lon="9.2856332"><ele>109.0</ele><time>2026-05-04T17:37:29.262Z</time></trkpt><trkpt lat="45.454569" lon="9.2856172"><ele>109.0</ele><time>2026-05-04T17:37:31.263Z</time></trkpt><trkpt lat="45.4544759" lon="9.2856065"><ele>109.0</ele><time>2026-05-04T17:37:33.263Z</time></trkpt><trkpt lat="45.4543828" lon="9.2855921"><ele>108.66666666666667</ele><time>2026-05-04T17:37:35.267Z</time></trkpt><trkpt lat="45.4542971" lon="9.2855871"><ele>108.33333333333334</ele><time>2026-05-04T17:37:37.266Z</time></trkpt><trkpt lat="45.4542113" lon="9.2855755"><ele>108.0</ele><time>2026-05-04T17:37:39.26Z</time></trkpt><trkpt lat="45.4541217" lon="9.28556"><ele>107.66666666666666</ele><time>2026-05-04T17:37:41.27Z</time></trkpt><trkpt lat="45.4540413" lon="9.2855525"><ele>107.33333333333333</ele><time>2026-05-04T17:37:43.262Z</time></trkpt><trkpt lat="45.453948" lon="9.2855332"><ele>107.0</ele><time>2026-05-04T17:37:45.265Z</time></trkpt><trkpt lat="45.4538625" lon="9.2855201"><ele>106.8</ele><time>2026-05-04T17:37:47.269Z</time></trkpt><trkpt lat="45.453784" lon="9.2855064"><ele>106.6</ele><time>2026-05-04T17:37:49.27Z</time></trkpt><trkpt lat="45.4536939" lon="9.2855121"><ele>106.39999999999999</ele><time>2026-05-04T17:37:51.264Z</time></trkpt><trkpt lat="45.4536055" lon="9.2855202"><ele>106.19999999999999</ele><time>2026-05-04T17:37:53.268Z</time></trkpt><trkpt lat="45.4535087" lon="9.2855282"><ele>106.0</ele><time>2026-05-04T17:37:55.268Z</time></trkpt><trkpt lat="45.453411" lon="9.2855521"><ele>106.0</ele><time>2026-05-04T17:37:57.268Z</time></trkpt><trkpt lat="45.4533287" lon="9.2855947"><ele>106.0</ele><time>2026-05-04T17:37:59.266Z</time></trkpt><trkpt lat="45.4532479" lon="9.2856591"><ele>106.0</ele><time>2026-05-04T17:38:01.264Z</time></trkpt><trkpt lat="45.4531763" lon="9.2857248"><ele>106.0</ele><time>2026-05-04T17:38:03.267Z</time></trkpt><trkpt lat="45.4530982" lon="9.2858022"><ele>106.0</ele><time>2026-05-04T17:38:05.265Z</time></trkpt><trkpt lat="45.4530224" lon="9.2858856"><ele>106.4</ele><time>2026-05-04T17:38:07.268Z</time></trkpt><trkpt lat="45.4529565" lon="9.2859644"><ele>106.8</ele><time>2026-05-04T17:38:09.268Z</time></trkpt><trkpt lat="45.4529071" lon="9.2860809"><ele>107.20000000000002</ele><time>2026-05-04T17:38:11.263Z</time></trkpt><trkpt lat="45.4528552" lon="9.286203"><ele>107.60000000000001</ele><time>2026-05-04T17:38:13.269Z</time></trkpt><trkpt lat="45.4528019" lon="9.2863318"><ele>108.0</ele><time>2026-05-04T17:38:15.265Z</time></trkpt><trkpt lat="45.45276" lon="9.2864664"><ele>108.60000000000001</ele><time>2026-05-04T17:38:17.28Z</time></trkpt><trkpt lat="45.452714" lon="9.286597"><ele>109.20000000000002</ele><time>2026-05-04T17:38:19.268Z</time></trkpt><trkpt lat="45.4526931" lon="9.2867293"><ele>109.8</ele><time>2026-05-04T17:38:21.268Z</time></trkpt><trkpt lat="45.4526796" lon="9.286857"><ele>110.4</ele><time>2026-05-04T17:38:23.266Z</time></trkpt><trkpt lat="45.4526682" lon="9.2870019"><ele>111.0</ele><time>2026-05-04T17:38:25.269Z</time></trkpt><trkpt lat="45.4526501" lon="9.2871333"><ele>111.0</ele><time>2026-05-04T17:38:27.26Z</time></trkpt><trkpt lat="45.4526252" lon="9.2872587"><ele>111.0</ele><time>2026-05-04T17:38:29.269Z</time></trkpt><trkpt lat="45.4526091" lon="9.2873978"><ele>111.0</ele><time>2026-05-04T17:38:31.267Z</time></trkpt><trkpt lat="45.4525986" lon="9.2875225"><ele>111.0</ele><time>2026-05-04T17:38:33.263Z</time></trkpt><trkpt lat="45.4525816" lon="9.2876457"><ele>111.0</ele><time>2026-05-04T17:38:35.264Z</time></trkpt><trkpt lat="45.4525773" lon="9.287771"><ele>110.66666666666667</ele><time>2026-05-04T17:38:37.268Z</time></trkpt><trkpt lat="45.4525707" lon="9.2878702"><ele>110.33333333333334</ele><time>2026-05-04T17:38:39.261Z</time></trkpt><trkpt lat="45.4525621" lon="9.2879646"><ele>110.0</ele><time>2026-05-04T17:38:41.27Z</time></trkpt><trkpt lat="45.452548" lon="9.2880591"><ele>109.66666666666667</ele><time>2026-05-04T17:38:43.259Z</time></trkpt><trkpt lat="45.4524687" lon="9.2881326"><ele>109.33333333333334</ele><time>2026-05-04T17:38:46.261Z</time></trkpt><trkpt lat="45.4523511" lon="9.2880932"><ele>109.0</ele><time>2026-05-04T17:38:48.264Z</time></trkpt><trkpt lat="45.4522823" lon="9.2880831"><ele>109.0</ele><time>2026-05-04T17:38:49.266Z</time></trkpt><trkpt lat="45.4522146" lon="9.2880657"><ele>109.0</ele><time>2026-05-04T17:38:50.267Z</time></trkpt><trkpt lat="45.4521489" lon="9.2880408"><ele>109.0</ele><time>2026-05-04T17:38:51.273Z</time></trkpt><trkpt lat="45.4520746" lon="9.2879793"><ele>109.0</ele><time>2026-05-04T17:38:53.262Z</time></trkpt><trkpt lat="45.4520288" lon="9.2878993"><ele>109.0</ele><time>2026-05-04T17:38:55.265Z</time></trkpt><trkpt lat="45.4519979" lon="9.2878081"><ele>109.0</ele><time>2026-05-04T17:38:57.268Z</time></trkpt><trkpt lat="45.4520097" lon="9.2877001"><ele>109.0</ele><time>2026-05-04T17:38:59.269Z</time></trkpt><trkpt lat="45.4520283" lon="9.2875742"><ele>109.00000000000001</ele><time>2026-05-04T17:39:01.265Z</time></trkpt><trkpt lat="45.452036" lon="9.2874646"><ele>109.0</ele><time>2026-05-04T17:39:03.268Z</time></trkpt><trkpt lat="45.4520335" lon="9.2873465"><ele>109.0</ele><time>2026-05-04T17:39:05.259Z</time></trkpt><trkpt lat="45.4520165" lon="9.2872361"><ele>109.0</ele><time>2026-05-04T17:39:07.265Z</time></trkpt><trkpt lat="45.451957" lon="9.2871808"><ele>109.00000000000001</ele><time>2026-05-04T17:39:09.265Z</time></trkpt><trkpt lat="45.4518684" lon="9.287177"><ele>109.0</ele><time>2026-05-04T17:39:11.261Z</time></trkpt><trkpt lat="45.4517916" lon="9.2871726"><ele>109.00000000000001</ele><time>2026-05-04T17:39:13.262Z</time></trkpt><trkpt lat="45.4517194" lon="9.2871656"><ele>109.0</ele><time>2026-05-04T17:39:15.27Z</time></trkpt><trkpt lat="45.451636" lon="9.287158"><ele>109.0</ele><time>2026-05-04T17:39:17.265Z</time></trkpt><trkpt lat="45.4515553" lon="9.2871244"><ele>109.0</ele><time>2026-05-04T17:39:19.267Z</time></trkpt><trkpt lat="45.451479" lon="9.2871103"><ele>109.00000000000001</ele><time>2026-05-04T17:39:21.267Z</time></trkpt><trkpt lat="45.4513971" lon="9.2871014"><ele>109.0</ele><time>2026-05-04T17:39:24.263Z</time></trkpt><trkpt lat="45.4513455" lon="9.287048"><ele>109.0</ele><time>2026-05-04T17:39:27.269Z</time></trkpt><trkpt lat="45.4512704" lon="9.2870272"><ele>109.0</ele><time>2026-05-04T17:39:31.256Z</time></trkpt><trkpt lat="45.451214" lon="9.287111"><ele>109.0</ele><time>2026-05-04T17:39:35.266Z</time></trkpt><trkpt lat="45.4512129" lon="9.2872027"><ele>109.0</ele><time>2026-05-04T17:39:37.268Z</time></trkpt><trkpt lat="45.4512023" lon="9.2873146"><ele>109.0</ele><time>2026-05-04T17:39:39.266Z</time></trkpt><trkpt lat="45.4511925" lon="9.2874169"><ele>109.0</ele><time>2026-05-04T17:39:41.262Z</time></trkpt><trkpt lat="45.4511915" lon="9.2875169"><ele>109.0</ele><time>2026-05-04T17:39:43.256Z</time></trkpt><trkpt lat="45.4511782" lon="9.2876272"><ele>109.0</ele><time>2026-05-04T17:39:45.267Z</time></trkpt><trkpt lat="45.4511309" lon="9.2877364"><ele>109.0</ele><time>2026-05-04T17:39:47.26Z</time></trkpt><trkpt lat="45.4510491" lon="9.2878051"><ele>109.0</ele><time>2026-05-04T17:39:49.264Z</time></trkpt><trkpt lat="45.4509529" lon="9.2878206"><ele>109.0</ele><time>2026-05-04T17:39:51.266Z</time></trkpt><trkpt lat="45.4508587" lon="9.2877762"><ele>109.0</ele><time>2026-05-04T17:39:53.257Z</time></trkpt><trkpt lat="45.4507741" lon="9.287736"><ele>109.00000000000001</ele><time>2026-05-04T17:39:55.275Z</time></trkpt><trkpt lat="45.4506961" lon="9.2876919"><ele>109.0</ele><time>2026-05-04T17:39:57.262Z</time></trkpt><trkpt lat="45.4506182" lon="9.287669"><ele>109.0</ele><time>2026-05-04T17:39:59.261Z</time></trkpt><trkpt lat="45.4505387" lon="9.2876463"><ele>109.0</ele><time>2026-05-04T17:40:01.27Z</time></trkpt><trkpt lat="45.4504513" lon="9.2876553"><ele>109.00000000000001</ele><time>2026-05-04T17:40:03.265Z</time></trkpt><trkpt lat="45.4503659" lon="9.2876766"><ele>109.0</ele><time>2026-05-04T17:40:05.265Z</time></trkpt><trkpt lat="45.4502736" lon="9.2876955"><ele>108.4</ele><time>2026-05-04T17:40:07.263Z</time></trkpt><trkpt lat="45.4501734" lon="9.2877199"><ele>107.80000000000001</ele><time>2026-05-04T17:40:09.267Z</time></trkpt><trkpt lat="45.4500637" lon="9.2877411"><ele>107.19999999999999</ele><time>2026-05-04T17:40:11.268Z</time></trkpt><trkpt lat="45.4499536" lon="9.2877732"><ele>106.6</ele><time>2026-05-04T17:40:13.27Z</time></trkpt><trkpt lat="45.4498566" lon="9.287801"><ele>106.0</ele><time>2026-05-04T17:40:15.269Z</time></trkpt><trkpt lat="45.4497516" lon="9.287832"><ele>106.0</ele><time>2026-05-04T17:40:17.265Z</time></trkpt><trkpt lat="45.4496472" lon="9.287848"><ele>106.0</ele><time>2026-05-04T17:40:19.264Z</time></trkpt><trkpt lat="45.4495478" lon="9.2878703"><ele>106.0</ele><time>2026-05-04T17:40:21.264Z</time></trkpt><trkpt lat="45.4494425" lon="9.2878749"><ele>106.0</ele><time>2026-05-04T17:40:23.268Z</time></trkpt><trkpt lat="45.4493437" lon="9.2878706"><ele>106.0</ele><time>2026-05-04T17:40:25.267Z</time></trkpt><trkpt lat="45.4492426" lon="9.287857"><ele>105.6</ele><time>2026-05-04T17:40:27.264Z</time></trkpt><trkpt lat="45.4491295" lon="9.2878385"><ele>105.19999999999999</ele><time>2026-05-04T17:40:29.267Z</time></trkpt><trkpt lat="45.4490155" lon="9.2878311"><ele>104.80000000000001</ele><time>2026-05-04T17:40:31.271Z</time></trkpt><trkpt lat="45.4489072" lon="9.2878326"><ele>104.4</ele><time>2026-05-04T17:40:33.273Z</time></trkpt><trkpt lat="45.4487987" lon="9.2878276"><ele>104.0</ele><time>2026-05-04T17:40:35.262Z</time></trkpt><trkpt lat="45.4486961" lon="9.2878257"><ele>103.6</ele><time>2026-05-04T17:40:37.264Z</time></trkpt><trkpt lat="45.4485915" lon="9.2878309"><ele>103.2</ele><time>2026-05-04T17:40:39.266Z</time></trkpt><trkpt lat="45.4484806" lon="9.2878223"><ele>102.8</ele><time>2026-05-04T17:40:41.268Z</time></trkpt><trkpt lat="45.4483803" lon="9.2878131"><ele>102.39999999999999</ele><time>2026-05-04T17:40:43.272Z</time></trkpt><trkpt lat="45.4482915" lon="9.2878019"><ele>102.0</ele><time>2026-05-04T17:40:45.261Z</time></trkpt><trkpt lat="45.4481955" lon="9.2877969"><ele>102.0</ele><time>2026-05-04T17:40:47.269Z</time></trkpt><trkpt lat="45.4480937" lon="9.2877855"><ele>102.0</ele><time>2026-05-04T17:40:49.272Z</time></trkpt><trkpt lat="45.4479929" lon="9.2877845"><ele>102.0</ele><time>2026-05-04T17:40:51.268Z</time></trkpt><trkpt lat="45.4478809" lon="9.2877756"><ele>102.0</ele><time>2026-05-04T17:40:53.272Z</time></trkpt><trkpt lat="45.4477803" lon="9.2877747"><ele>102.0</ele><time>2026-05-04T17:40:55.265Z</time></trkpt><trkpt lat="45.4476749" lon="9.2877489"><ele>102.8</ele><time>2026-05-04T17:40:57.272Z</time></trkpt><trkpt lat="45.447579" lon="9.2877142"><ele>103.6</ele><time>2026-05-04T17:40:59.261Z</time></trkpt><trkpt lat="45.4474792" lon="9.2876851"><ele>104.39999999999999</ele><time>2026-05-04T17:41:01.272Z</time></trkpt><trkpt lat="45.4473831" lon="9.2876717"><ele>105.19999999999999</ele><time>2026-05-04T17:41:03.261Z</time></trkpt><trkpt lat="45.4472933" lon="9.2876577"><ele>106.0</ele><time>2026-05-04T17:41:05.268Z</time></trkpt><trkpt lat="45.4471947" lon="9.2876553"><ele>106.19999999999999</ele><time>2026-05-04T17:41:07.26Z</time></trkpt><trkpt lat="45.4470938" lon="9.2876462"><ele>106.39999999999999</ele><time>2026-05-04T17:41:09.267Z</time></trkpt><trkpt lat="45.4469897" lon="9.2876183"><ele>106.6</ele><time>2026-05-04T17:41:11.264Z</time></trkpt><trkpt lat="45.4468949" lon="9.2876017"><ele>106.8</ele><time>2026-05-04T17:41:13.266Z</time></trkpt><trkpt lat="45.4467948" lon="9.2875893"><ele>107.0</ele><time>2026-05-04T17:41:15.268Z</time></trkpt><trkpt lat="45.446698" lon="9.2875823"><ele>107.0</ele><time>2026-05-04T17:41:17.258Z</time></trkpt><trkpt lat="45.4466054" lon="9.2875645"><ele>106.99999999999999</ele><time>2026-05-04T17:41:19.263Z</time></trkpt><trkpt lat="45.4465163" lon="9.2875635"><ele>106.99999999999999</ele><time>2026-05-04T17:41:21.278Z</time></trkpt><trkpt lat="45.4464237" lon="9.2875505"><ele>107.0</ele><time>2026-05-04T17:41:23.262Z</time></trkpt><trkpt lat="45.4463337" lon="9.2875412"><ele>107.0</ele><time>2026-05-04T17:41:25.266Z</time></trkpt><trkpt lat="45.4462446" lon="9.2875456"><ele>106.83333333333333</ele><time>2026-05-04T17:41:27.258Z</time></trkpt><trkpt lat="45.4461558" lon="9.2875346"><ele>106.66666666666666</ele><time>2026-05-04T17:41:29.265Z</time></trkpt><trkpt lat="45.4460668" lon="9.2875176"><ele>106.5</ele><time>2026-05-04T17:41:31.269Z</time></trkpt><trkpt lat="45.4459784" lon="9.2875117"><ele>106.33333333333334</ele><time>2026-05-04T17:41:33.268Z</time></trkpt><trkpt lat="45.4458882" lon="9.2875028"><ele>106.16666666666667</ele><time>2026-05-04T17:41:35.271Z</time></trkpt><trkpt lat="45.4458025" lon="9.287495"><ele>106.0</ele><time>2026-05-04T17:41:37.265Z</time></trkpt><trkpt lat="45.4457154" lon="9.2874854"><ele>106.00000000000001</ele><time>2026-05-04T17:41:39.264Z</time></trkpt><trkpt lat="45.4456226" lon="9.2874778"><ele>106.0</ele><time>2026-05-04T17:41:41.272Z</time></trkpt><trkpt lat="45.4455339" lon="9.2874698"><ele>106.0</ele><time>2026-05-04T17:41:43.264Z</time></trkpt><trkpt lat="45.4454449" lon="9.2874573"><ele>106.0</ele><time>2026-05-04T17:41:45.272Z</time></trkpt><trkpt lat="45.44536" lon="9.2874438"><ele>106.00000000000001</ele><time>2026-05-04T17:41:47.262Z</time></trkpt><trkpt lat="45.4452726" lon="9.2874401"><ele>106.0</ele><time>2026-05-04T17:41:49.265Z</time></trkpt><trkpt lat="45.4451878" lon="9.2874355"><ele>106.00000000000001</ele><time>2026-05-04T17:41:51.275Z</time></trkpt><trkpt lat="45.4451007" lon="9.2874241"><ele>106.0</ele><time>2026-05-04T17:41:53.268Z</time></trkpt><trkpt lat="45.4450111" lon="9.2874113"><ele>106.0</ele><time>2026-05-04T17:41:55.269Z</time></trkpt><trkpt lat="45.4449214" lon="9.2874067"><ele>106.0</ele><time>2026-05-04T17:41:57.262Z</time></trkpt><trkpt lat="45.4448381" lon="9.2874011"><ele>106.00000000000001</ele><time>2026-05-04T17:41:59.256Z</time></trkpt><trkpt lat="45.4447564" lon="9.2873855"><ele>106.0</ele><time>2026-05-04T17:42:01.267Z</time></trkpt><trkpt lat="45.4446789" lon="9.2873749"><ele>105.71428571428572</ele><time>2026-05-04T17:42:03.268Z</time></trkpt><trkpt lat="45.4446039" lon="9.2873698"><ele>105.42857142857142</ele><time>2026-05-04T17:42:05.264Z</time></trkpt><trkpt lat="45.4445218" lon="9.2873766"><ele>105.14285714285714</ele><time>2026-05-04T17:42:07.262Z</time></trkpt><trkpt lat="45.4444504" lon="9.2873778"><ele>104.85714285714286</ele><time>2026-05-04T17:42:09.272Z</time></trkpt><trkpt lat="45.4443861" lon="9.2873633"><ele>104.57142857142858</ele><time>2026-05-04T17:42:11.267Z</time></trkpt><trkpt lat="45.4443251" lon="9.287386"><ele>104.28571428571428</ele><time>2026-05-04T17:42:14.262Z</time></trkpt><trkpt lat="45.4443308" lon="9.2875115"><ele>104.0</ele><time>2026-05-04T17:42:20.267Z</time></trkpt><trkpt lat="45.4442917" lon="9.2876135"><ele>103.99999999999999</ele><time>2026-05-04T17:42:23.267Z</time></trkpt><trkpt lat="45.4442213" lon="9.2877075"><ele>104.0</ele><time>2026-05-04T17:42:26.262Z</time></trkpt><trkpt lat="45.444187" lon="9.2877945"><ele>104.0</ele><time>2026-05-04T17:42:28.267Z</time></trkpt><trkpt lat="45.444145" lon="9.2878618"><ele>104.0</ele><time>2026-05-04T17:42:30.266Z</time></trkpt><trkpt lat="45.4440781" lon="9.2879209"><ele>103.99999999999999</ele><time>2026-05-04T17:42:35.257Z</time></trkpt><trkpt lat="45.4440004" lon="9.2878969"><ele>104.0</ele><time>2026-05-04T17:42:38.269Z</time></trkpt><trkpt lat="45.4439462" lon="9.2878255"><ele>103.99999999999999</ele><time>2026-05-04T17:42:40.275Z</time></trkpt><trkpt lat="45.4438839" lon="9.2877381"><ele>104.0</ele><time>2026-05-04T17:42:42.27Z</time></trkpt><trkpt lat="45.4438255" lon="9.2876537"><ele>104.0</ele><time>2026-05-04T17:42:44.266Z</time></trkpt><trkpt lat="45.4437476" lon="9.2876106"><ele>104.0</ele><time>2026-05-04T17:42:46.268Z</time></trkpt><trkpt lat="45.4436644" lon="9.2876049"><ele>103.99999999999999</ele><time>2026-05-04T17:42:48.26Z</time></trkpt><trkpt lat="45.4435829" lon="9.2876048"><ele>104.0</ele><time>2026-05-04T17:42:50.266Z</time></trkpt><trkpt lat="45.4435108" lon="9.2875947"><ele>103.85714285714285</ele><time>2026-05-04T17:42:52.262Z</time></trkpt><trkpt lat="45.4434443" lon="9.2875934"><ele>103.71428571428572</ele><time>2026-05-04T17:42:54.262Z</time></trkpt><trkpt lat="45.4433751" lon="9.2875995"><ele>103.57142857142857</ele><time>2026-05-04T17:42:56.266Z</time></trkpt><trkpt lat="45.4433042" lon="9.2875984"><ele>103.42857142857142</ele><time>2026-05-04T17:42:58.264Z</time></trkpt><trkpt lat="45.4432349" lon="9.2875969"><ele>103.28571428571428</ele><time>2026-05-04T17:43:00.263Z</time></trkpt><trkpt lat="45.4431526" lon="9.2875862"><ele>103.14285714285714</ele><time>2026-05-04T17:43:02.265Z</time></trkpt><trkpt lat="45.443083" lon="9.2875803"><ele>103.0</ele><time>2026-05-04T17:43:04.268Z</time></trkpt><trkpt lat="45.4430106" lon="9.2875798"><ele>103.16666666666667</ele><time>2026-05-04T17:43:06.261Z</time></trkpt><trkpt lat="45.4429423" lon="9.2875671"><ele>103.33333333333334</ele><time>2026-05-04T17:43:08.257Z</time></trkpt><trkpt lat="45.4428569" lon="9.2875568"><ele>103.5</ele><time>2026-05-04T17:43:11.268Z</time></trkpt><trkpt lat="45.4427801" lon="9.287546"><ele>103.66666666666666</ele><time>2026-05-04T17:43:14.261Z</time></trkpt><trkpt lat="45.4427096" lon="9.2875395"><ele>103.83333333333333</ele><time>2026-05-04T17:43:17.261Z</time></trkpt><trkpt lat="45.4426187" lon="9.2875309"><ele>104.0</ele><time>2026-05-04T17:43:20.26Z</time></trkpt><trkpt lat="45.4425478" lon="9.2875134"><ele>103.99999999999999</ele><time>2026-05-04T17:43:22.262Z</time></trkpt><trkpt lat="45.4424793" lon="9.2875055"><ele>104.0</ele><time>2026-05-04T17:43:24.262Z</time></trkpt><trkpt lat="45.4424087" lon="9.2874993"><ele>104.0</ele><time>2026-05-04T17:43:26.265Z</time></trkpt><trkpt lat="45.4423375" lon="9.2874908"><ele>104.0</ele><time>2026-05-04T17:43:28.263Z</time></trkpt><trkpt lat="45.442253" lon="9.2874908"><ele>103.99999999999999</ele><time>2026-05-04T17:43:30.261Z</time></trkpt><trkpt lat="45.4421707" lon="9.2874992"><ele>104.0</ele><time>2026-05-04T17:43:32.268Z</time></trkpt><trkpt lat="45.4420937" lon="9.2875009"><ele>103.99999999999999</ele><time>2026-05-04T17:43:34.269Z</time></trkpt><trkpt lat="45.4420181" lon="9.2874946"><ele>104.0</ele><time>2026-05-04T17:43:36.26Z</time></trkpt><trkpt lat="45.4419348" lon="9.2875148"><ele>104.0</ele><time>2026-05-04T17:43:38.265Z</time></trkpt><trkpt lat="45.4418644" lon="9.2875153"><ele>104.0</ele><time>2026-05-04T17:43:40.271Z</time></trkpt><trkpt lat="45.4417836" lon="9.2875128"><ele>103.99999999999999</ele><time>2026-05-04T17:43:42.26Z</time></trkpt><trkpt lat="45.441704" lon="9.2875245"><ele>104.0</ele><time>2026-05-04T17:43:44.265Z</time></trkpt><trkpt lat="45.4416248" lon="9.2875348"><ele>103.99999999999999</ele><time>2026-05-04T17:43:46.263Z</time></trkpt><trkpt lat="45.4415533" lon="9.287546"><ele>104.0</ele><time>2026-05-04T17:43:48.263Z</time></trkpt><trkpt lat="45.4414641" lon="9.2875614"><ele>104.0</ele><time>2026-05-04T17:43:50.269Z</time></trkpt><trkpt lat="45.4413911" lon="9.2875761"><ele>104.0</ele><time>2026-05-04T17:43:52.269Z</time></trkpt><trkpt lat="45.4413123" lon="9.2875954"><ele>103.99999999999999</ele><time>2026-05-04T17:43:54.264Z</time></trkpt><trkpt lat="45.4412293" lon="9.2876287"><ele>104.0</ele><time>2026-05-04T17:43:56.263Z</time></trkpt><trkpt lat="45.4411526" lon="9.2876544"><ele>103.99999999999999</ele><time>2026-05-04T17:43:58.259Z</time></trkpt><trkpt lat="45.4410679" lon="9.2876832"><ele>104.0</ele><time>2026-05-04T17:44:00.262Z</time></trkpt><trkpt lat="45.4409841" lon="9.2876991"><ele>104.0</ele><time>2026-05-04T17:44:02.259Z</time></trkpt><trkpt lat="45.4409063" lon="9.2877244"><ele>104.0</ele><time>2026-05-04T17:44:04.261Z</time></trkpt><trkpt lat="45.4408274" lon="9.2877633"><ele>103.99999999999999</ele><time>2026-05-04T17:44:06.26Z</time></trkpt><trkpt lat="45.4407467" lon="9.2877988"><ele>104.0</ele><time>2026-05-04T17:44:08.269Z</time></trkpt><trkpt lat="45.4406609" lon="9.2878257"><ele>104.0</ele><time>2026-05-04T17:44:10.268Z</time></trkpt><trkpt lat="45.4405327" lon="9.2878697"><ele>104.0</ele><time>2026-05-04T17:44:13.274Z</time></trkpt><trkpt lat="45.4404474" lon="9.2878932"><ele>104.0</ele><time>2026-05-04T17:44:15.258Z</time></trkpt><trkpt lat="45.4403714" lon="9.2879191"><ele>104.0</ele><time>2026-05-04T17:44:17.272Z</time></trkpt><trkpt lat="45.4402937" lon="9.2879377"><ele>104.0</ele><time>2026-05-04T17:44:19.264Z</time></trkpt><trkpt lat="45.4402114" lon="9.287967"><ele>103.99999999999999</ele><time>2026-05-04T17:44:21.27Z</time></trkpt><trkpt lat="45.4401352" lon="9.287997"><ele>104.0</ele><time>2026-05-04T17:44:23.273Z</time></trkpt><trkpt lat="45.4400531" lon="9.2880241"><ele>104.0</ele><time>2026-05-04T17:44:25.266Z</time></trkpt><trkpt lat="45.4399759" lon="9.2880525"><ele>104.0</ele><time>2026-05-04T17:44:27.269Z</time></trkpt><trkpt lat="45.4398998" lon="9.2880727"><ele>103.99999999999999</ele><time>2026-05-04T17:44:29.27Z</time></trkpt><trkpt lat="45.4398228" lon="9.2881011"><ele>104.0</ele><time>2026-05-04T17:44:31.268Z</time></trkpt><trkpt lat="45.4397431" lon="9.288127"><ele>103.99999999999999</ele><time>2026-05-04T17:44:33.267Z</time></trkpt><trkpt lat="45.4396658" lon="9.288156"><ele>104.0</ele><time>2026-05-04T17:44:35.266Z</time></trkpt><trkpt lat="45.4395917" lon="9.2882027"><ele>104.0</ele><time>2026-05-04T17:44:37.269Z</time></trkpt><trkpt lat="45.4395214" lon="9.2882586"><ele>104.0</ele><time>2026-05-04T17:44:39.261Z</time></trkpt><trkpt lat="45.4394445" lon="9.2882972"><ele>103.99999999999999</ele><time>2026-05-04T17:44:41.267Z</time></trkpt><trkpt lat="45.4393715" lon="9.2883394"><ele>104.0</ele><time>2026-05-04T17:44:43.269Z</time></trkpt><trkpt lat="45.4392942" lon="9.2883776"><ele>104.16666666666666</ele><time>2026-05-04T17:44:45.266Z</time></trkpt><trkpt lat="45.4392059" lon="9.2884259"><ele>104.33333333333333</ele><time>2026-05-04T17:44:47.262Z</time></trkpt><trkpt lat="45.4391244" lon="9.2884871"><ele>104.5</ele><time>2026-05-04T17:44:49.263Z</time></trkpt><trkpt lat="45.4390515" lon="9.2885315"><ele>104.66666666666666</ele><time>2026-05-04T17:44:51.262Z</time></trkpt><trkpt lat="45.4390113" lon="9.2886262"><ele>104.83333333333333</ele><time>2026-05-04T17:44:54.269Z</time></trkpt><trkpt lat="45.4389832" lon="9.2887106"><ele>105.0</ele><time>2026-05-04T17:44:57.265Z</time></trkpt><trkpt lat="45.4388967" lon="9.2887708"><ele>105.0</ele><time>2026-05-04T17:45:00.262Z</time></trkpt><trkpt lat="45.4388448" lon="9.2888295"><ele>105.0</ele><time>2026-05-04T17:45:02.263Z</time></trkpt><trkpt lat="45.4387863" lon="9.2888954"><ele>105.0</ele><time>2026-05-04T17:45:04.263Z</time></trkpt><trkpt lat="45.4387337" lon="9.2889594"><ele>105.0</ele><time>2026-05-04T17:45:06.262Z</time></trkpt><trkpt lat="45.4386799" lon="9.2890175"><ele>105.0</ele><time>2026-05-04T17:45:08.261Z</time></trkpt><trkpt lat="45.4386249" lon="9.2890847"><ele>105.0</ele><time>2026-05-04T17:45:10.266Z</time></trkpt><trkpt lat="45.4385757" lon="9.2891456"><ele>105.0</ele><time>2026-05-04T17:45:12.268Z</time></trkpt><trkpt lat="45.4385301" lon="9.2892137"><ele>105.0</ele><time>2026-05-04T17:45:14.267Z</time></trkpt><trkpt lat="45.438494" lon="9.289288"><ele>105.0</ele><time>2026-05-04T17:45:16.261Z</time></trkpt><trkpt lat="45.4384491" lon="9.2893619"><ele>105.0</ele><time>2026-05-04T17:45:18.26Z</time></trkpt><trkpt lat="45.4384053" lon="9.2894371"><ele>105.0</ele><time>2026-05-04T17:45:20.271Z</time></trkpt><trkpt lat="45.438367" lon="9.2895215"><ele>105.0</ele><time>2026-05-04T17:45:22.269Z</time></trkpt><trkpt lat="45.4383235" lon="9.2896093"><ele>105.0</ele><time>2026-05-04T17:45:24.266Z</time></trkpt><trkpt lat="45.4382819" lon="9.2896914"><ele>105.0</ele><time>2026-05-04T17:45:26.265Z</time></trkpt><trkpt lat="45.4382357" lon="9.2897598"><ele>105.0</ele><time>2026-05-04T17:45:28.266Z</time></trkpt><trkpt lat="45.4381575" lon="9.2898"><ele>105.0</ele><time>2026-05-04T17:45:30.266Z</time></trkpt><trkpt lat="45.4381103" lon="9.2898618"><ele>105.0</ele><time>2026-05-04T17:45:32.263Z</time></trkpt><trkpt lat="45.4380577" lon="9.2899603"><ele>105.0</ele><time>2026-05-04T17:45:34.263Z</time></trkpt><trkpt lat="45.4380297" lon="9.2900524"><ele>105.0</ele><time>2026-05-04T17:45:36.266Z</time></trkpt><trkpt lat="45.4379473" lon="9.2900656"><ele>105.0</ele><time>2026-05-04T17:45:41.261Z</time></trkpt><trkpt lat="45.4379162" lon="9.2899759"><ele>105.0</ele><time>2026-05-04T17:45:46.26Z</time></trkpt><trkpt lat="45.4379572" lon="9.2898909"><ele>105.0</ele><time>2026-05-04T17:45:49.272Z</time></trkpt><trkpt lat="45.4379911" lon="9.2898038"><ele>105.0</ele><time>2026-05-04T17:45:51.267Z</time></trkpt><trkpt lat="45.4380208" lon="9.2897145"><ele>105.0</ele><time>2026-05-04T17:45:53.261Z</time></trkpt><trkpt lat="45.4380483" lon="9.2896211"><ele>105.0</ele><time>2026-05-04T17:45:55.27Z</time></trkpt><trkpt lat="45.4380691" lon="9.2895286"><ele>105.0</ele><time>2026-05-04T17:45:57.265Z</time></trkpt><trkpt lat="45.4380826" lon="9.2894128"><ele>105.0</ele><time>2026-05-04T17:45:59.263Z</time></trkpt><trkpt lat="45.4381022" lon="9.2893136"><ele>105.0</ele><time>2026-05-04T17:46:01.264Z</time></trkpt><trkpt lat="45.4381052" lon="9.2891853"><ele>105.0</ele><time>2026-05-04T17:46:03.265Z</time></trkpt><trkpt lat="45.4380791" lon="9.2890738"><ele>105.0</ele><time>2026-05-04T17:46:05.266Z</time></trkpt><trkpt lat="45.4380362" lon="9.2889836"><ele>105.0</ele><time>2026-05-04T17:46:07.265Z</time></trkpt><trkpt lat="45.4379814" lon="9.2889074"><ele>105.0</ele><time>2026-05-04T17:46:09.264Z</time></trkpt><trkpt lat="45.4379116" lon="9.2888398"><ele>105.0</ele><time>2026-05-04T17:46:11.266Z</time></trkpt><trkpt lat="45.4378282" lon="9.2887914"><ele>105.0</ele><time>2026-05-04T17:46:13.265Z</time></trkpt><trkpt lat="45.4377504" lon="9.2887841"><ele>105.0</ele><time>2026-05-04T17:46:15.269Z</time></trkpt><trkpt lat="45.4376765" lon="9.2888052"><ele>105.0</ele><time>2026-05-04T17:46:17.265Z</time></trkpt><trkpt lat="45.4375997" lon="9.2888143"><ele>105.0</ele><time>2026-05-04T17:46:19.261Z</time></trkpt><trkpt lat="45.4375192" lon="9.2888229"><ele>105.0</ele><time>2026-05-04T17:46:21.266Z</time></trkpt><trkpt lat="45.4374467" lon="9.2888246"><ele>105.0</ele><time>2026-05-04T17:46:23.26Z</time></trkpt><trkpt lat="45.4373633" lon="9.288828"><ele>105.0</ele><time>2026-05-04T17:46:25.265Z</time></trkpt><trkpt lat="45.437286" lon="9.2888348"><ele>105.0</ele><time>2026-05-04T17:46:27.257Z</time></trkpt><trkpt lat="45.437213" lon="9.2888433"><ele>105.0</ele><time>2026-05-04T17:46:29.265Z</time></trkpt><trkpt lat="45.4371391" lon="9.2888534"><ele>105.0</ele><time>2026-05-04T17:46:31.257Z</time></trkpt><trkpt lat="45.4370455" lon="9.2888636"><ele>105.0</ele><time>2026-05-04T17:46:33.274Z</time></trkpt><trkpt lat="45.4369691" lon="9.2888993"><ele>105.0</ele><time>2026-05-04T17:46:35.262Z</time></trkpt><trkpt lat="45.4368932" lon="9.2889217"><ele>104.83333333333333</ele><time>2026-05-04T17:46:37.269Z</time></trkpt><trkpt lat="45.4368049" lon="9.2889595"><ele>104.66666666666666</ele><time>2026-05-04T17:46:40.264Z</time></trkpt><trkpt lat="45.4367124" lon="9.2889711"><ele>104.5</ele><time>2026-05-04T17:46:43.265Z</time></trkpt><trkpt lat="45.4366494" lon="9.288982"><ele>104.33333333333333</ele><time>2026-05-04T17:46:45.272Z</time></trkpt><trkpt lat="45.4365809" lon="9.2889985"><ele>104.16666666666666</ele><time>2026-05-04T17:46:47.268Z</time></trkpt><trkpt lat="45.4365011" lon="9.289005"><ele>104.0</ele><time>2026-05-04T17:46:49.27Z</time></trkpt><trkpt lat="45.4364386" lon="9.2890175"><ele>103.99999999999999</ele><time>2026-05-04T17:46:51.26Z</time></trkpt><trkpt lat="45.4363701" lon="9.2890351"><ele>104.0</ele><time>2026-05-04T17:46:53.267Z</time></trkpt><trkpt lat="45.4362996" lon="9.2890457"><ele>104.0</ele><time>2026-05-04T17:46:55.268Z</time></trkpt><trkpt lat="45.436211" lon="9.2890672"><ele>104.0</ele><time>2026-05-04T17:46:57.263Z</time></trkpt><trkpt lat="45.4361267" lon="9.2890734"><ele>103.99999999999999</ele><time>2026-05-04T17:46:59.263Z</time></trkpt><trkpt lat="45.4360413" lon="9.2890834"><ele>104.0</ele><time>2026-05-04T17:47:01.268Z</time></trkpt><trkpt lat="45.435964" lon="9.2890951"><ele>104.0</ele><time>2026-05-04T17:47:03.264Z</time></trkpt><trkpt lat="45.435894" lon="9.2891088"><ele>104.0</ele><time>2026-05-04T17:47:05.256Z</time></trkpt><trkpt lat="45.4358116" lon="9.2891039"><ele>104.0</ele><time>2026-05-04T17:47:07.268Z</time></trkpt><trkpt lat="45.4357359" lon="9.2891217"><ele>104.0</ele><time>2026-05-04T17:47:09.27Z</time></trkpt><trkpt lat="45.4356664" lon="9.2891559"><ele>104.0</ele><time>2026-05-04T17:47:11.268Z</time></trkpt><trkpt lat="45.435605" lon="9.2891836"><ele>104.0</ele><time>2026-05-04T17:47:13.258Z</time></trkpt><trkpt lat="45.4355256" lon="9.2892092"><ele>104.0</ele><time>2026-05-04T17:47:15.266Z</time></trkpt><trkpt lat="45.4354267" lon="9.2892361"><ele>104.0</ele><time>2026-05-04T17:47:18.267Z</time></trkpt><trkpt lat="45.4353589" lon="9.2892532"><ele>104.0</ele><time>2026-05-04T17:47:20.262Z</time></trkpt><trkpt lat="45.4352874" lon="9.2892753"><ele>104.0</ele><time>2026-05-04T17:47:22.262Z</time></trkpt><trkpt lat="45.4352146" lon="9.2892922"><ele>104.0</ele><time>2026-05-04T17:47:24.268Z</time></trkpt><trkpt lat="45.4351359" lon="9.2893026"><ele>104.0</ele><time>2026-05-04T17:47:26.27Z</time></trkpt><trkpt lat="45.4350725" lon="9.2893144"><ele>104.0</ele><time>2026-05-04T17:47:28.263Z</time></trkpt><trkpt lat="45.4350044" lon="9.2893245"><ele>104.0</ele><time>2026-05-04T17:47:30.258Z</time></trkpt><trkpt lat="45.4349358" lon="9.2893345"><ele>103.99999999999999</ele><time>2026-05-04T17:47:32.263Z</time></trkpt><trkpt lat="45.4348692" lon="9.2893555"><ele>104.0</ele><time>2026-05-04T17:47:34.261Z</time></trkpt><trkpt lat="45.4347877" lon="9.2893812"><ele>104.0</ele><time>2026-05-04T17:47:36.264Z</time></trkpt><trkpt lat="45.4346979" lon="9.2894158"><ele>104.0</ele><time>2026-05-04T17:47:38.266Z</time></trkpt><trkpt lat="45.4346171" lon="9.2894226"><ele>103.99999999999999</ele><time>2026-05-04T17:47:40.264Z</time></trkpt><trkpt lat="45.4345487" lon="9.2894428"><ele>104.0</ele><time>2026-05-04T17:47:42.267Z</time></trkpt><trkpt lat="45.4344695" lon="9.2894476"><ele>103.99999999999999</ele><time>2026-05-04T17:47:44.262Z</time></trkpt><trkpt lat="45.4343822" lon="9.2894652"><ele>104.0</ele><time>2026-05-04T17:47:46.264Z</time></trkpt><trkpt lat="45.4342961" lon="9.2894723"><ele>104.0</ele><time>2026-05-04T17:47:48.269Z</time></trkpt><trkpt lat="45.4342143" lon="9.2894839"><ele>104.0</ele><time>2026-05-04T17:47:50.266Z</time></trkpt><trkpt lat="45.4341419" lon="9.2894974"><ele>103.99999999999999</ele><time>2026-05-04T17:47:52.266Z</time></trkpt><trkpt lat="45.4340723" lon="9.2895069"><ele>104.0</ele><time>2026-05-04T17:47:54.264Z</time></trkpt><trkpt lat="45.4340066" lon="9.2895177"><ele>103.99999999999999</ele><time>2026-05-04T17:47:56.262Z</time></trkpt><trkpt lat="45.4339306" lon="9.2895205"><ele>104.0</ele><time>2026-05-04T17:47:58.259Z</time></trkpt><trkpt lat="45.4338481" lon="9.2894988"><ele>104.0</ele><time>2026-05-04T17:48:00.265Z</time></trkpt><trkpt lat="45.4337772" lon="9.2895164"><ele>104.0</ele><time>2026-05-04T17:48:02.266Z</time></trkpt><trkpt lat="45.433707" lon="9.2895009"><ele>103.99999999999999</ele><time>2026-05-04T17:48:04.26Z</time></trkpt><trkpt lat="45.4336189" lon="9.2894949"><ele>104.0</ele><time>2026-05-04T17:48:06.259Z</time></trkpt><trkpt lat="45.4335517" lon="9.2894712"><ele>103.83333333333333</ele><time>2026-05-04T17:48:08.263Z</time></trkpt><trkpt lat="45.4334658" lon="9.2894613"><ele>103.66666666666666</ele><time>2026-05-04T17:48:10.268Z</time></trkpt><trkpt lat="45.433385" lon="9.2894658"><ele>103.5</ele><time>2026-05-04T17:48:12.263Z</time></trkpt><trkpt lat="45.4333037" lon="9.289437"><ele>103.33333333333334</ele><time>2026-05-04T17:48:14.262Z</time></trkpt><trkpt lat="45.4332234" lon="9.2894239"><ele>103.16666666666667</ele><time>2026-05-04T17:48:16.26Z</time></trkpt><trkpt lat="45.4331475" lon="9.2894133"><ele>103.0</ele><time>2026-05-04T17:48:18.262Z</time></trkpt><trkpt lat="45.4330786" lon="9.289399"><ele>103.00000000000001</ele><time>2026-05-04T17:48:20.264Z</time></trkpt><trkpt lat="45.4330147" lon="9.2893677"><ele>103.0</ele><time>2026-05-04T17:48:22.261Z</time></trkpt><trkpt lat="45.4329566" lon="9.2893277"><ele>103.0</ele><time>2026-05-04T17:48:24.261Z</time></trkpt><trkpt lat="45.4328703" lon="9.2893242"><ele>103.0</ele><time>2026-05-04T17:48:27.272Z</time></trkpt><trkpt lat="45.432793" lon="9.2893615"><ele>103.00000000000001</ele><time>2026-05-04T17:48:30.265Z</time></trkpt><trkpt lat="45.4327642" lon="9.2894417"><ele>103.0</ele><time>2026-05-04T17:48:32.26Z</time></trkpt><trkpt lat="45.4326767" lon="9.2895096"><ele>102.66666666666667</ele><time>2026-05-04T17:48:35.261Z</time></trkpt><trkpt lat="45.4326003" lon="9.2895043"><ele>102.33333333333334</ele><time>2026-05-04T17:48:37.265Z</time></trkpt><trkpt lat="45.4325417" lon="9.2894438"><ele>102.0</ele><time>2026-05-04T17:48:39.257Z</time></trkpt><trkpt lat="45.4324733" lon="9.2893983"><ele>101.66666666666666</ele><time>2026-05-04T17:48:41.262Z</time></trkpt><trkpt lat="45.4323966" lon="9.289367"><ele>101.33333333333333</ele><time>2026-05-04T17:48:43.26Z</time></trkpt><trkpt lat="45.4323157" lon="9.2893387"><ele>101.0</ele><time>2026-05-04T17:48:45.263Z</time></trkpt><trkpt lat="45.4322452" lon="9.2892995"><ele>100.99999999999999</ele><time>2026-05-04T17:48:47.264Z</time></trkpt><trkpt lat="45.4321616" lon="9.2892573"><ele>101.0</ele><time>2026-05-04T17:48:49.265Z</time></trkpt><trkpt lat="45.4320931" lon="9.2892187"><ele>101.0</ele><time>2026-05-04T17:48:51.269Z</time></trkpt><trkpt lat="45.4320114" lon="9.2892087"><ele>101.0</ele><time>2026-05-04T17:48:53.265Z</time></trkpt><trkpt lat="45.4319302" lon="9.2891835"><ele>100.99999999999999</ele><time>2026-05-04T17:48:55.265Z</time></trkpt><trkpt lat="45.4318528" lon="9.2891492"><ele>101.0</ele><time>2026-05-04T17:48:57.267Z</time></trkpt><trkpt lat="45.4317872" lon="9.2891259"><ele>101.16666666666666</ele><time>2026-05-04T17:48:59.261Z</time></trkpt><trkpt lat="45.4317126" lon="9.2891145"><ele>101.33333333333333</ele><time>2026-05-04T17:49:01.262Z</time></trkpt><trkpt lat="45.4316372" lon="9.289085"><ele>101.5</ele><time>2026-05-04T17:49:03.261Z</time></trkpt><trkpt lat="45.431553" lon="9.2890714"><ele>101.66666666666666</ele><time>2026-05-04T17:49:05.261Z</time></trkpt><trkpt lat="45.4314807" lon="9.2890486"><ele>101.83333333333333</ele><time>2026-05-04T17:49:07.26Z</time></trkpt><trkpt lat="45.4314052" lon="9.2890418"><ele>102.0</ele><time>2026-05-04T17:49:09.265Z</time></trkpt><trkpt lat="45.4313338" lon="9.2890237"><ele>102.0</ele><time>2026-05-04T17:49:11.267Z</time></trkpt><trkpt lat="45.4312599" lon="9.2890021"><ele>102.0</ele><time>2026-05-04T17:49:13.257Z</time></trkpt><trkpt lat="45.4311976" lon="9.288988"><ele>102.0</ele><time>2026-05-04T17:49:15.26Z</time></trkpt><trkpt lat="45.4311107" lon="9.2889736"><ele>102.0</ele><time>2026-05-04T17:49:18.261Z</time></trkpt><trkpt lat="45.431044" lon="9.2889543"><ele>102.0</ele><time>2026-05-04T17:49:20.262Z</time></trkpt><trkpt lat="45.4309607" lon="9.2889023"><ele>102.0</ele><time>2026-05-04T17:49:23.261Z</time></trkpt><trkpt lat="45.430965" lon="9.2887656"><ele>102.14285714285714</ele><time>2026-05-04T17:49:26.261Z</time></trkpt><trkpt lat="45.4309185" lon="9.2886923"><ele>102.28571428571429</ele><time>2026-05-04T17:49:30.258Z</time></trkpt><trkpt lat="45.430844" lon="9.2886925"><ele>102.42857142857142</ele><time>2026-05-04T17:49:33.261Z</time></trkpt><trkpt lat="45.4307785" lon="9.2886941"><ele>102.57142857142857</ele><time>2026-05-04T17:49:35.261Z</time></trkpt><trkpt lat="45.4307066" lon="9.2886549"><ele>102.71428571428571</ele><time>2026-05-04T17:49:37.269Z</time></trkpt><trkpt lat="45.4306411" lon="9.288628"><ele>102.85714285714285</ele><time>2026-05-04T17:49:39.267Z</time></trkpt><trkpt lat="45.4305749" lon="9.2886271"><ele>103.0</ele><time>2026-05-04T17:49:41.259Z</time></trkpt><trkpt lat="45.4304868" lon="9.2885668"><ele>102.85714285714285</ele><time>2026-05-04T17:49:43.263Z</time></trkpt><trkpt lat="45.4303909" lon="9.2885598"><ele>102.71428571428571</ele><time>2026-05-04T17:49:46.255Z</time></trkpt><trkpt lat="45.4302992" lon="9.288539"><ele>102.57142857142857</ele><time>2026-05-04T17:49:49.265Z</time></trkpt><trkpt lat="45.4302345" lon="9.2885316"><ele>102.42857142857142</ele><time>2026-05-04T17:49:51.266Z</time></trkpt><trkpt lat="45.4301684" lon="9.2885265"><ele>102.28571428571429</ele><time>2026-05-04T17:49:53.261Z</time></trkpt><trkpt lat="45.4301049" lon="9.2885201"><ele>102.14285714285714</ele><time>2026-05-04T17:49:55.265Z</time></trkpt><trkpt lat="45.4300397" lon="9.2885068"><ele>102.0</ele><time>2026-05-04T17:49:57.265Z</time></trkpt><trkpt lat="45.429937" lon="9.2885034"><ele>102.0</ele><time>2026-05-04T17:49:59.264Z</time></trkpt><trkpt lat="45.4298675" lon="9.2885176"><ele>102.0</ele><time>2026-05-04T17:50:01.273Z</time></trkpt><trkpt lat="45.4297983" lon="9.2885134"><ele>102.0</ele><time>2026-05-04T17:50:03.266Z</time></trkpt><trkpt lat="45.4297312" lon="9.2885129"><ele>102.0</ele><time>2026-05-04T17:50:05.272Z</time></trkpt><trkpt lat="45.4296476" lon="9.2885105"><ele>102.0</ele><time>2026-05-04T17:50:07.259Z</time></trkpt><trkpt lat="45.4295841" lon="9.2885003"><ele>102.0</ele><time>2026-05-04T17:50:09.265Z</time></trkpt><trkpt lat="45.4295187" lon="9.2884906"><ele>102.0</ele><time>2026-05-04T17:50:11.261Z</time></trkpt><trkpt lat="45.4294288" lon="9.2885118"><ele>102.0</ele><time>2026-05-04T17:50:14.268Z</time></trkpt><trkpt lat="45.429357" lon="9.2885079"><ele>102.0</ele><time>2026-05-04T17:50:16.267Z</time></trkpt><trkpt lat="45.4292778" lon="9.2884988"><ele>102.0</ele><time>2026-05-04T17:50:18.262Z</time></trkpt><trkpt lat="45.4292036" lon="9.2884773"><ele>102.0</ele><time>2026-05-04T17:50:20.262Z</time></trkpt><trkpt lat="45.4291345" lon="9.2884606"><ele>102.0</ele><time>2026-05-04T17:50:22.261Z</time></trkpt><trkpt lat="45.4290676" lon="9.2884741"><ele>102.0</ele><time>2026-05-04T17:50:24.263Z</time></trkpt><trkpt lat="45.4289924" lon="9.2884959"><ele>102.0</ele><time>2026-05-04T17:50:26.267Z</time></trkpt><trkpt lat="45.4289134" lon="9.2885092"><ele>102.0</ele><time>2026-05-04T17:50:28.258Z</time></trkpt><trkpt lat="45.4288316" lon="9.2885181"><ele>102.0</ele><time>2026-05-04T17:50:30.26Z</time></trkpt><trkpt lat="45.4287563" lon="9.2885249"><ele>102.0</ele><time>2026-05-04T17:50:32.264Z</time></trkpt><trkpt lat="45.4286748" lon="9.2885265"><ele>102.0</ele><time>2026-05-04T17:50:34.257Z</time></trkpt><trkpt lat="45.4286024" lon="9.288534"><ele>102.0</ele><time>2026-05-04T17:50:36.263Z</time></trkpt><trkpt lat="45.4285398" lon="9.2885683"><ele>102.0</ele><time>2026-05-04T17:50:38.261Z</time></trkpt><trkpt lat="45.4284504" lon="9.2886046"><ele>102.0</ele><time>2026-05-04T17:50:41.259Z</time></trkpt><trkpt lat="45.4283869" lon="9.2886037"><ele>102.0</ele><time>2026-05-04T17:50:43.266Z</time></trkpt><trkpt lat="45.428317" lon="9.2886121"><ele>102.0</ele><time>2026-05-04T17:50:45.266Z</time></trkpt><trkpt lat="45.4282522" lon="9.2886328"><ele>102.0</ele><time>2026-05-04T17:50:47.267Z</time></trkpt><trkpt lat="45.4282152" lon="9.2887212"><ele>102.0</ele><time>2026-05-04T17:50:49.266Z</time></trkpt><trkpt lat="45.4282022" lon="9.2888165"><ele>102.0</ele><time>2026-05-04T17:50:51.266Z</time></trkpt><trkpt lat="45.4281743" lon="9.2889292"><ele>102.0</ele><time>2026-05-04T17:50:54.264Z</time></trkpt><trkpt lat="45.4280865" lon="9.2889262"><ele>101.85714285714286</ele><time>2026-05-04T17:50:57.26Z</time></trkpt><trkpt lat="45.4280084" lon="9.288914"><ele>101.71428571428572</ele><time>2026-05-04T17:50:59.264Z</time></trkpt><trkpt lat="45.4279489" lon="9.2888797"><ele>101.57142857142857</ele><time>2026-05-04T17:51:01.264Z</time></trkpt><trkpt lat="45.4279187" lon="9.288785"><ele>101.42857142857143</ele><time>2026-05-04T17:51:03.267Z</time></trkpt><trkpt lat="45.4278576" lon="9.2887287"><ele>101.28571428571428</ele><time>2026-05-04T17:51:05.262Z</time></trkpt><trkpt lat="45.4277916" lon="9.2886977"><ele>101.14285714285714</ele><time>2026-05-04T17:51:07.263Z</time></trkpt><trkpt lat="45.4277188" lon="9.288704"><ele>101.0</ele><time>2026-05-04T17:51:13.266Z</time></trkpt><trkpt lat="45.4276491" lon="9.2887466"><ele>100.99999999999999</ele><time>2026-05-04T17:51:19.259Z</time></trkpt><trkpt lat="45.4275644" lon="9.2887628"><ele>101.0</ele><time>2026-05-04T17:51:22.256Z</time></trkpt><trkpt lat="45.4274962" lon="9.2887745"><ele>101.0</ele><time>2026-05-04T17:51:24.267Z</time></trkpt><trkpt lat="45.4274272" lon="9.2887868"><ele>101.0</ele><time>2026-05-04T17:51:26.26Z</time></trkpt><trkpt lat="45.4273537" lon="9.2887968"><ele>100.99999999999999</ele><time>2026-05-04T17:51:28.263Z</time></trkpt><trkpt lat="45.42728" lon="9.2888135"><ele>101.0</ele><time>2026-05-04T17:51:30.263Z</time></trkpt><trkpt lat="45.4271825" lon="9.2888293"><ele>100.66666666666666</ele><time>2026-05-04T17:51:32.267Z</time></trkpt><trkpt lat="45.4270982" lon="9.2888502"><ele>100.33333333333333</ele><time>2026-05-04T17:51:34.262Z</time></trkpt><trkpt lat="45.4270195" lon="9.2888627"><ele>100.0</ele><time>2026-05-04T17:51:36.267Z</time></trkpt><trkpt lat="45.4269411" lon="9.2888836"><ele>99.66666666666666</ele><time>2026-05-04T17:51:38.264Z</time></trkpt><trkpt lat="45.4268684" lon="9.2888943"><ele>99.33333333333333</ele><time>2026-05-04T17:51:40.26Z</time></trkpt><trkpt lat="45.4267599" lon="9.2889198"><ele>99.0</ele><time>2026-05-04T17:51:43.27Z</time></trkpt><trkpt lat="45.426691" lon="9.2889202"><ele>99.16666666666667</ele><time>2026-05-04T17:51:45.267Z</time></trkpt><trkpt lat="45.4266171" lon="9.288935"><ele>99.33333333333334</ele><time>2026-05-04T17:51:47.272Z</time></trkpt><trkpt lat="45.4265517" lon="9.2889597"><ele>99.5</ele><time>2026-05-04T17:51:49.272Z</time></trkpt><trkpt lat="45.4264657" lon="9.2890086"><ele>99.66666666666667</ele><time>2026-05-04T17:51:52.261Z</time></trkpt><trkpt lat="45.4264347" lon="9.2890935"><ele>99.83333333333334</ele><time>2026-05-04T17:51:54.254Z</time></trkpt><trkpt lat="45.4263489" lon="9.2891353"><ele>100.0</ele><time>2026-05-04T17:51:57.267Z</time></trkpt><trkpt lat="45.4262565" lon="9.2891549"><ele>100.00000000000001</ele><time>2026-05-04T17:52:00.258Z</time></trkpt><trkpt lat="45.4261697" lon="9.2891834"><ele>100.0</ele><time>2026-05-04T17:52:03.264Z</time></trkpt><trkpt lat="45.4260879" lon="9.2892004"><ele>100.0</ele><time>2026-05-04T17:52:06.264Z</time></trkpt><trkpt lat="45.4260013" lon="9.2892346"><ele>100.0</ele><time>2026-05-04T17:52:09.264Z</time></trkpt><trkpt lat="45.4259337" lon="9.2892586"><ele>100.00000000000001</ele><time>2026-05-04T17:52:11.26Z</time></trkpt><trkpt lat="45.4258475" lon="9.2892909"><ele>100.0</ele><time>2026-05-04T17:52:13.26Z</time></trkpt><trkpt lat="45.4257718" lon="9.2893278"><ele>100.00000000000001</ele><time>2026-05-04T17:52:15.262Z</time></trkpt><trkpt lat="45.4256983" lon="9.2893725"><ele>100.0</ele><time>2026-05-04T17:52:17.26Z</time></trkpt><trkpt lat="45.4256221" lon="9.2894057"><ele>100.0</ele><time>2026-05-04T17:52:20.26Z</time></trkpt><trkpt lat="45.4255378" lon="9.2894442"><ele>100.0</ele><time>2026-05-04T17:52:23.258Z</time></trkpt><trkpt lat="45.4254642" lon="9.2894843"><ele>100.00000000000001</ele><time>2026-05-04T17:52:26.26Z</time></trkpt><trkpt lat="45.4254007" lon="9.2894895"><ele>100.0</ele><time>2026-05-04T17:52:29.265Z</time></trkpt><trkpt lat="45.4253129" lon="9.2894934"><ele>100.00000000000001</ele><time>2026-05-04T17:52:34.261Z</time></trkpt><trkpt lat="45.4252318" lon="9.2895334"><ele>100.0</ele><time>2026-05-04T17:52:37.263Z</time></trkpt><trkpt lat="45.4251715" lon="9.2895627"><ele>100.0</ele><time>2026-05-04T17:52:39.26Z</time></trkpt><trkpt lat="45.4250927" lon="9.2895951"><ele>100.0</ele><time>2026-05-04T17:52:41.268Z</time></trkpt><trkpt lat="45.42503" lon="9.2896356"><ele>100.00000000000001</ele><time>2026-05-04T17:52:43.264Z</time></trkpt><trkpt lat="45.4249482" lon="9.2896766"><ele>100.0</ele><time>2026-05-04T17:52:45.271Z</time></trkpt><trkpt lat="45.4248863" lon="9.2897233"><ele>100.00000000000001</ele><time>2026-05-04T17:52:47.262Z</time></trkpt><trkpt lat="45.4248215" lon="9.2897655"><ele>100.0</ele><time>2026-05-04T17:52:49.256Z</time></trkpt><trkpt lat="45.4247422" lon="9.2898323"><ele>100.0</ele><time>2026-05-04T17:52:51.265Z</time></trkpt><trkpt lat="45.4246675" lon="9.289873"><ele>100.0</ele><time>2026-05-04T17:52:53.266Z</time></trkpt><trkpt lat="45.424593" lon="9.2899186"><ele>100.00000000000001</ele><time>2026-05-04T17:52:55.263Z</time></trkpt><trkpt lat="45.4245246" lon="9.2899503"><ele>100.0</ele><time>2026-05-04T17:52:57.262Z</time></trkpt><trkpt lat="45.4244575" lon="9.2899747"><ele>100.16666666666667</ele><time>2026-05-04T17:52:59.26Z</time></trkpt><trkpt lat="45.424401" lon="9.2900349"><ele>100.33333333333334</ele><time>2026-05-04T17:53:01.265Z</time></trkpt><trkpt lat="45.424332" lon="9.2901196"><ele>100.5</ele><time>2026-05-04T17:53:04.259Z</time></trkpt><trkpt lat="45.4242805" lon="9.2901825"><ele>100.66666666666666</ele><time>2026-05-04T17:53:06.261Z</time></trkpt><trkpt lat="45.4242301" lon="9.290249"><ele>100.83333333333333</ele><time>2026-05-04T17:53:08.261Z</time></trkpt><trkpt lat="45.4241777" lon="9.290327"><ele>101.0</ele><time>2026-05-04T17:53:10.262Z</time></trkpt><trkpt lat="45.4241148" lon="9.2904216"><ele>100.99999999999999</ele><time>2026-05-04T17:53:12.26Z</time></trkpt><trkpt lat="45.4240639" lon="9.2905017"><ele>101.0</ele><time>2026-05-04T17:53:14.257Z</time></trkpt><trkpt lat="45.4240231" lon="9.2906045"><ele>101.0</ele><time>2026-05-04T17:53:16.262Z</time></trkpt><trkpt lat="45.4239968" lon="9.290708"><ele>101.0</ele><time>2026-05-04T17:53:18.262Z</time></trkpt><trkpt lat="45.4239891" lon="9.2908129"><ele>100.99999999999999</ele><time>2026-05-04T17:53:20.257Z</time></trkpt><trkpt lat="45.4240022" lon="9.290916"><ele>101.0</ele><time>2026-05-04T17:53:23.256Z</time></trkpt><trkpt lat="45.4239331" lon="9.2909109"><ele>101.16666666666666</ele><time>2026-05-04T17:53:26.262Z</time></trkpt><trkpt lat="45.4238863" lon="9.2908311"><ele>101.33333333333333</ele><time>2026-05-04T17:53:28.265Z</time></trkpt><trkpt lat="45.4238134" lon="9.2907599"><ele>101.5</ele><time>2026-05-04T17:53:30.263Z</time></trkpt><trkpt lat="45.4237409" lon="9.2907217"><ele>101.66666666666666</ele><time>2026-05-04T17:53:32.258Z</time></trkpt><trkpt lat="45.4236556" lon="9.2907275"><ele>101.83333333333333</ele><time>2026-05-04T17:53:34.252Z</time></trkpt><trkpt lat="45.4235807" lon="9.2907435"><ele>102.0</ele><time>2026-05-04T17:53:36.258Z</time></trkpt><trkpt lat="45.423518" lon="9.2907566"><ele>102.0</ele><time>2026-05-04T17:53:38.256Z</time></trkpt><trkpt lat="45.4234321" lon="9.2907053"><ele>102.0</ele><time>2026-05-04T17:53:41.26Z</time></trkpt><trkpt lat="45.4233535" lon="9.2906389"><ele>102.0</ele><time>2026-05-04T17:53:44.269Z</time></trkpt><trkpt lat="45.4233069" lon="9.2907062"><ele>102.0</ele><time>2026-05-04T17:53:47.261Z</time></trkpt><trkpt lat="45.4232252" lon="9.2907153"><ele>102.0</ele><time>2026-05-04T17:53:51.266Z</time></trkpt><trkpt lat="45.4231331" lon="9.2907083"><ele>102.0</ele><time>2026-05-04T17:53:54.27Z</time></trkpt><trkpt lat="45.4230419" lon="9.2907238"><ele>101.42857142857143</ele><time>2026-05-04T17:53:57.26Z</time></trkpt><trkpt lat="45.4229807" lon="9.2907647"><ele>100.85714285714286</ele><time>2026-05-04T17:53:59.26Z</time></trkpt><trkpt lat="45.4229222" lon="9.2908113"><ele>100.28571428571428</ele><time>2026-05-04T17:54:01.268Z</time></trkpt><trkpt lat="45.422861" lon="9.2908529"><ele>99.71428571428572</ele><time>2026-05-04T17:54:03.266Z</time></trkpt><trkpt lat="45.4227925" lon="9.2909005"><ele>99.14285714285714</ele><time>2026-05-04T17:54:05.262Z</time></trkpt><trkpt lat="45.4227266" lon="9.2909037"><ele>98.57142857142857</ele><time>2026-05-04T17:54:07.26Z</time></trkpt><trkpt lat="45.422678" lon="9.2908399"><ele>98.0</ele><time>2026-05-04T17:54:09.26Z</time></trkpt><trkpt lat="45.422663" lon="9.2907368"><ele>98.0</ele><time>2026-05-04T17:54:12.266Z</time></trkpt><trkpt lat="45.4226629" lon="9.2906434"><ele>98.0</ele><time>2026-05-04T17:54:15.263Z</time></trkpt><trkpt lat="45.4227307" lon="9.2906017"><ele>98.0</ele><time>2026-05-04T17:54:18.262Z</time></trkpt><trkpt lat="45.4227947" lon="9.2905618"><ele>98.0</ele><time>2026-05-04T17:54:20.263Z</time></trkpt><trkpt lat="45.4228525" lon="9.2905223"><ele>98.0</ele><time>2026-05-04T17:54:22.264Z</time></trkpt><trkpt lat="45.4229143" lon="9.2904702"><ele>98.0</ele><time>2026-05-04T17:54:24.259Z</time></trkpt><trkpt lat="45.4229796" lon="9.2904215"><ele>98.0</ele><time>2026-05-04T17:54:26.262Z</time></trkpt><trkpt lat="45.4230344" lon="9.2903597"><ele>98.42857142857143</ele><time>2026-05-04T17:54:28.266Z</time></trkpt><trkpt lat="45.4230841" lon="9.2902927"><ele>98.85714285714286</ele><time>2026-05-04T17:54:30.26Z</time></trkpt><trkpt lat="45.4231228" lon="9.2902145"><ele>99.28571428571428</ele><time>2026-05-04T17:54:32.26Z</time></trkpt><trkpt lat="45.42316" lon="9.2901271"><ele>99.71428571428572</ele><time>2026-05-04T17:54:34.253Z</time></trkpt><trkpt lat="45.4231926" lon="9.2900371"><ele>100.14285714285714</ele><time>2026-05-04T17:54:36.273Z</time></trkpt><trkpt lat="45.4232136" lon="9.2899264"><ele>100.57142857142857</ele><time>2026-05-04T17:54:38.265Z</time></trkpt><trkpt lat="45.4232204" lon="9.2898275"><ele>101.0</ele><time>2026-05-04T17:54:40.257Z</time></trkpt><trkpt lat="45.4232164" lon="9.289725"><ele>101.14285714285714</ele><time>2026-05-04T17:54:42.257Z</time></trkpt><trkpt lat="45.423205" lon="9.2896257"><ele>101.28571428571428</ele><time>2026-05-04T17:54:44.261Z</time></trkpt><trkpt lat="45.4231953" lon="9.2895289"><ele>101.42857142857143</ele><time>2026-05-04T17:54:46.261Z</time></trkpt><trkpt lat="45.4231819" lon="9.2894387"><ele>101.57142857142857</ele><time>2026-05-04T17:54:48.259Z</time></trkpt><trkpt lat="45.4231691" lon="9.2893453"><ele>101.71428571428572</ele><time>2026-05-04T17:54:50.258Z</time></trkpt><trkpt lat="45.4231592" lon="9.2892124"><ele>101.85714285714286</ele><time>2026-05-04T17:54:53.261Z</time></trkpt><trkpt lat="45.4231502" lon="9.2891135"><ele>102.0</ele><time>2026-05-04T17:54:55.263Z</time></trkpt><trkpt lat="45.4231368" lon="9.2890217"><ele>101.71428571428572</ele><time>2026-05-04T17:54:57.262Z</time></trkpt><trkpt lat="45.4231284" lon="9.2889188"><ele>101.42857142857143</ele><time>2026-05-04T17:54:59.269Z</time></trkpt><trkpt lat="45.4231162" lon="9.2888133"><ele>101.14285714285714</ele><time>2026-05-04T17:55:01.259Z</time></trkpt><trkpt lat="45.4231026" lon="9.2887162"><ele>100.85714285714286</ele><time>2026-05-04T17:55:03.258Z</time></trkpt><trkpt lat="45.4230943" lon="9.2886173"><ele>100.57142857142857</ele><time>2026-05-04T17:55:05.259Z</time></trkpt><trkpt lat="45.4230898" lon="9.2885143"><ele>100.28571428571429</ele><time>2026-05-04T17:55:07.259Z</time></trkpt><trkpt lat="45.423077" lon="9.2884145"><ele>100.0</ele><time>2026-05-04T17:55:09.264Z</time></trkpt><trkpt lat="45.4230604" lon="9.2883151"><ele>100.00000000000001</ele><time>2026-05-04T17:55:11.265Z</time></trkpt><trkpt lat="45.4230466" lon="9.2882125"><ele>100.0</ele><time>2026-05-04T17:55:13.261Z</time></trkpt><trkpt lat="45.4230272" lon="9.2881105"><ele>100.0</ele><time>2026-05-04T17:55:15.259Z</time></trkpt><trkpt lat="45.4230018" lon="9.2880046"><ele>100.0</ele><time>2026-05-04T17:55:17.264Z</time></trkpt><trkpt lat="45.4229824" lon="9.2878976"><ele>100.00000000000001</ele><time>2026-05-04T17:55:19.262Z</time></trkpt><trkpt lat="45.42296" lon="9.2877805"><ele>100.0</ele><time>2026-05-04T17:55:21.271Z</time></trkpt><trkpt lat="45.4229389" lon="9.2876714"><ele>100.0</ele><time>2026-05-04T17:55:23.257Z</time></trkpt><trkpt lat="45.4229234" lon="9.2875496"><ele>100.0</ele><time>2026-05-04T17:55:25.265Z</time></trkpt><trkpt lat="45.422901" lon="9.287423"><ele>100.0</ele><time>2026-05-04T17:55:27.259Z</time></trkpt><trkpt lat="45.4228704" lon="9.2872839"><ele>100.0</ele><time>2026-05-04T17:55:29.263Z</time></trkpt><trkpt lat="45.4228438" lon="9.2871401"><ele>100.0</ele><time>2026-05-04T17:55:31.259Z</time></trkpt><trkpt lat="45.4228199" lon="9.2870051"><ele>100.0</ele><time>2026-05-04T17:55:33.268Z</time></trkpt><trkpt lat="45.4228013" lon="9.2868581"><ele>100.0</ele><time>2026-05-04T17:55:35.256Z</time></trkpt><trkpt lat="45.4227822" lon="9.2867085"><ele>100.0</ele><time>2026-05-04T17:55:37.261Z</time></trkpt><trkpt lat="45.4227689" lon="9.2865705"><ele>100.0</ele><time>2026-05-04T17:55:39.26Z</time></trkpt><trkpt lat="45.422757" lon="9.2864276"><ele>100.0</ele><time>2026-05-04T17:55:41.26Z</time></trkpt><trkpt lat="45.422735" lon="9.2862883"><ele>99.6</ele><time>2026-05-04T17:55:43.263Z</time></trkpt><trkpt lat="45.4227091" lon="9.2861434"><ele>99.2</ele><time>2026-05-04T17:55:45.257Z</time></trkpt><trkpt lat="45.42269" lon="9.285989"><ele>98.80000000000001</ele><time>2026-05-04T17:55:47.263Z</time></trkpt><trkpt lat="45.422647" lon="9.2858605"><ele>98.4</ele><time>2026-05-04T17:55:49.267Z</time></trkpt><trkpt lat="45.4225452" lon="9.285784"><ele>98.0</ele><time>2026-05-04T17:55:51.271Z</time></trkpt><trkpt lat="45.4224748" lon="9.2857857"><ele>97.99999999999999</ele><time>2026-05-04T17:55:52.257Z</time></trkpt><trkpt lat="45.4224054" lon="9.2858107"><ele>98.0</ele><time>2026-05-04T17:55:53.261Z</time></trkpt><trkpt lat="45.42234" lon="9.2858325"><ele>98.0</ele><time>2026-05-04T17:55:54.265Z</time></trkpt><trkpt lat="45.4222727" lon="9.2858633"><ele>98.0</ele><time>2026-05-04T17:55:55.264Z</time></trkpt><trkpt lat="45.4222104" lon="9.2858835"><ele>97.99999999999999</ele><time>2026-05-04T17:55:56.256Z</time></trkpt><trkpt lat="45.4220952" lon="9.2859219"><ele>98.0</ele><time>2026-05-04T17:55:58.259Z</time></trkpt><trkpt lat="45.4219793" lon="9.2859617"><ele>98.0</ele><time>2026-05-04T17:56:00.263Z</time></trkpt><trkpt lat="45.4218827" lon="9.2860027"><ele>98.0</ele><time>2026-05-04T17:56:02.257Z</time></trkpt><trkpt lat="45.4217863" lon="9.2860418"><ele>98.0</ele><time>2026-05-04T17:56:04.265Z</time></trkpt><trkpt lat="45.4216908" lon="9.2860892"><ele>98.0</ele><time>2026-05-04T17:56:06.259Z</time></trkpt><trkpt lat="45.4215973" lon="9.2861373"><ele>98.0</ele><time>2026-05-04T17:56:08.259Z</time></trkpt><trkpt lat="45.4215036" lon="9.2861827"><ele>98.0</ele><time>2026-05-04T17:56:10.259Z</time></trkpt><trkpt lat="45.4214027" lon="9.2862257"><ele>98.0</ele><time>2026-05-04T17:56:12.266Z</time></trkpt><trkpt lat="45.4213049" lon="9.2862562"><ele>98.0</ele><time>2026-05-04T17:56:14.262Z</time></trkpt><trkpt lat="45.4212112" lon="9.286258"><ele>98.0</ele><time>2026-05-04T17:56:16.256Z</time></trkpt><trkpt lat="45.4211163" lon="9.2862126"><ele>98.0</ele><time>2026-05-04T17:56:18.266Z</time></trkpt><trkpt lat="45.421028" lon="9.2861296"><ele>98.60000000000001</ele><time>2026-05-04T17:56:20.263Z</time></trkpt><trkpt lat="45.4209683" lon="9.2860068"><ele>99.2</ele><time>2026-05-04T17:56:22.261Z</time></trkpt><trkpt lat="45.420919" lon="9.2858801"><ele>99.8</ele><time>2026-05-04T17:56:24.266Z</time></trkpt><trkpt lat="45.4208859" lon="9.2857313"><ele>100.4</ele><time>2026-05-04T17:56:26.259Z</time></trkpt><trkpt lat="45.4208527" lon="9.2855868"><ele>101.0</ele><time>2026-05-04T17:56:28.263Z</time></trkpt><trkpt lat="45.4208296" lon="9.2854582"><ele>101.19999999999999</ele><time>2026-05-04T17:56:30.265Z</time></trkpt><trkpt lat="45.4208098" lon="9.2853363"><ele>101.39999999999999</ele><time>2026-05-04T17:56:32.268Z</time></trkpt><trkpt lat="45.4207894" lon="9.2852184"><ele>101.6</ele><time>2026-05-04T17:56:34.267Z</time></trkpt><trkpt lat="45.4207365" lon="9.2851045"><ele>101.8</ele><time>2026-05-04T17:56:36.267Z</time></trkpt><trkpt lat="45.4206726" lon="9.2850114"><ele>102.0</ele><time>2026-05-04T17:56:38.262Z</time></trkpt><trkpt lat="45.4206063" lon="9.2849254"><ele>102.0</ele><time>2026-05-04T17:56:40.261Z</time></trkpt><trkpt lat="45.4205332" lon="9.2848763"><ele>102.0</ele><time>2026-05-04T17:56:42.262Z</time></trkpt><trkpt lat="45.4204715" lon="9.2849412"><ele>102.0</ele><time>2026-05-04T17:56:44.26Z</time></trkpt><trkpt lat="45.4204134" lon="9.2849837"><ele>102.0</ele><time>2026-05-04T17:56:46.262Z</time></trkpt><trkpt lat="45.4203515" lon="9.2850293"><ele>102.0</ele><time>2026-05-04T17:56:48.256Z</time></trkpt><trkpt lat="45.4202891" lon="9.2850699"><ele>102.0</ele><time>2026-05-04T17:56:50.269Z</time></trkpt><trkpt lat="45.4202163" lon="9.2850982"><ele>102.0</ele><time>2026-05-04T17:56:52.264Z</time></trkpt><trkpt lat="45.420141" lon="9.2851099"><ele>101.71428571428572</ele><time>2026-05-04T17:56:54.264Z</time></trkpt><trkpt lat="45.4200792" lon="9.2850252"><ele>101.42857142857143</ele><time>2026-05-04T17:56:56.26Z</time></trkpt><trkpt lat="45.4200432" lon="9.2849299"><ele>101.14285714285714</ele><time>2026-05-04T17:56:58.26Z</time></trkpt><trkpt lat="45.4200036" lon="9.2848532"><ele>100.85714285714286</ele><time>2026-05-04T17:57:00.259Z</time></trkpt><trkpt lat="45.4199405" lon="9.2848149"><ele>100.57142857142857</ele><time>2026-05-04T17:57:02.259Z</time></trkpt><trkpt lat="45.4198782" lon="9.2847756"><ele>100.28571428571429</ele><time>2026-05-04T17:57:04.259Z</time></trkpt><trkpt lat="45.4198082" lon="9.2847234"><ele>100.0</ele><time>2026-05-04T17:57:06.259Z</time></trkpt><trkpt lat="45.4197846" lon="9.2846072"><ele>100.00000000000001</ele><time>2026-05-04T17:57:08.266Z</time></trkpt><trkpt lat="45.4197872" lon="9.284486"><ele>100.0</ele><time>2026-05-04T17:57:10.26Z</time></trkpt><trkpt lat="45.419769" lon="9.2843616"><ele>100.0</ele><time>2026-05-04T17:57:12.264Z</time></trkpt><trkpt lat="45.4197549" lon="9.2842382"><ele>100.0</ele><time>2026-05-04T17:57:14.256Z</time></trkpt><trkpt lat="45.4197538" lon="9.2841113"><ele>100.00000000000001</ele><time>2026-05-04T17:57:16.256Z</time></trkpt><trkpt lat="45.4197543" lon="9.2839811"><ele>100.0</ele><time>2026-05-04T17:57:18.253Z</time></trkpt><trkpt lat="45.4197457" lon="9.2838341"><ele>100.00000000000001</ele><time>2026-05-04T17:57:20.255Z</time></trkpt><trkpt lat="45.4197395" lon="9.2837057"><ele>100.0</ele><time>2026-05-04T17:57:22.269Z</time></trkpt><trkpt lat="45.4197304" lon="9.283571"><ele>100.0</ele><time>2026-05-04T17:57:24.267Z</time></trkpt><trkpt lat="45.4197152" lon="9.2834527"><ele>100.0</ele><time>2026-05-04T17:57:26.253Z</time></trkpt><trkpt lat="45.4197118" lon="9.2833277"><ele>100.00000000000001</ele><time>2026-05-04T17:57:28.254Z</time></trkpt><trkpt lat="45.419688" lon="9.2832032"><ele>100.0</ele><time>2026-05-04T17:57:30.265Z</time></trkpt><trkpt lat="45.4196053" lon="9.2831574"><ele>100.00000000000001</ele><time>2026-05-04T17:57:32.257Z</time></trkpt><trkpt lat="45.4195228" lon="9.2831251"><ele>100.0</ele><time>2026-05-04T17:57:34.27Z</time></trkpt><trkpt lat="45.4194352" lon="9.2830882"><ele>100.0</ele><time>2026-05-04T17:57:36.264Z</time></trkpt><trkpt lat="45.4193485" lon="9.2830658"><ele>100.0</ele><time>2026-05-04T17:57:38.263Z</time></trkpt><trkpt lat="45.4192649" lon="9.2830139"><ele>100.00000000000001</ele><time>2026-05-04T17:57:40.263Z</time></trkpt><trkpt lat="45.4191835" lon="9.2829642"><ele>100.0</ele><time>2026-05-04T17:57:42.261Z</time></trkpt><trkpt lat="45.4190986" lon="9.2829022"><ele>100.16666666666667</ele><time>2026-05-04T17:57:44.269Z</time></trkpt><trkpt lat="45.4190224" lon="9.2828572"><ele>100.33333333333334</ele><time>2026-05-04T17:57:46.259Z</time></trkpt><trkpt lat="45.4189422" lon="9.2827924"><ele>100.5</ele><time>2026-05-04T17:57:48.258Z</time></trkpt><trkpt lat="45.4188679" lon="9.2827271"><ele>100.66666666666666</ele><time>2026-05-04T17:57:50.26Z</time></trkpt><trkpt lat="45.4187895" lon="9.2826615"><ele>100.83333333333333</ele><time>2026-05-04T17:57:52.26Z</time></trkpt><trkpt lat="45.4187178" lon="9.2825929"><ele>101.0</ele><time>2026-05-04T17:57:54.262Z</time></trkpt><trkpt lat="45.4186439" lon="9.2825325"><ele>100.49999999999999</ele><time>2026-05-04T17:57:56.263Z</time></trkpt><trkpt lat="45.4185516" lon="9.2824807"><ele>100.0</ele><time>2026-05-04T17:57:58.265Z</time></trkpt><trkpt lat="45.4184754" lon="9.2824575"><ele>99.5</ele><time>2026-05-04T17:58:00.26Z</time></trkpt><trkpt lat="45.4183915" lon="9.2824569"><ele>99.0</ele><time>2026-05-04T17:58:02.27Z</time></trkpt><trkpt lat="45.4183024" lon="9.2824635"><ele>98.49999999999999</ele><time>2026-05-04T17:58:04.255Z</time></trkpt><trkpt lat="45.4182164" lon="9.2824181"><ele>98.0</ele><time>2026-05-04T17:58:06.269Z</time></trkpt><trkpt lat="45.4181314" lon="9.2823596"><ele>98.0</ele><time>2026-05-04T17:58:08.263Z</time></trkpt><trkpt lat="45.4180438" lon="9.2823062"><ele>98.0</ele><time>2026-05-04T17:58:10.259Z</time></trkpt><trkpt lat="45.4179579" lon="9.2822626"><ele>98.0</ele><time>2026-05-04T17:58:12.258Z</time></trkpt><trkpt lat="45.4178654" lon="9.2822265"><ele>98.0</ele><time>2026-05-04T17:58:14.267Z</time></trkpt><trkpt lat="45.4177758" lon="9.2821787"><ele>98.0</ele><time>2026-05-04T17:58:16.264Z</time></trkpt><trkpt lat="45.4176854" lon="9.2821179"><ele>99.0</ele><time>2026-05-04T17:58:18.265Z</time></trkpt><trkpt lat="45.4175936" lon="9.2820478"><ele>100.0</ele><time>2026-05-04T17:58:20.257Z</time></trkpt><trkpt lat="45.4174949" lon="9.2819704"><ele>101.0</ele><time>2026-05-04T17:58:22.268Z</time></trkpt><trkpt lat="45.41739" lon="9.2818963"><ele>102.0</ele><time>2026-05-04T17:58:24.263Z</time></trkpt><trkpt lat="45.4172961" lon="9.2818239"><ele>103.0</ele><time>2026-05-04T17:58:26.26Z</time></trkpt><trkpt lat="45.4172109" lon="9.2817628"><ele>102.66666666666667</ele><time>2026-05-04T17:58:28.255Z</time></trkpt><trkpt lat="45.4171283" lon="9.281688"><ele>102.33333333333334</ele><time>2026-05-04T17:58:30.259Z</time></trkpt><trkpt lat="45.417057" lon="9.2816157"><ele>102.0</ele><time>2026-05-04T17:58:32.256Z</time></trkpt><trkpt lat="45.4169973" lon="9.2815267"><ele>101.66666666666666</ele><time>2026-05-04T17:58:34.253Z</time></trkpt><trkpt lat="45.4169378" lon="9.281435"><ele>101.33333333333333</ele><time>2026-05-04T17:58:36.253Z</time></trkpt><trkpt lat="45.4168932" lon="9.2813407"><ele>101.0</ele><time>2026-05-04T17:58:38.265Z</time></trkpt><trkpt lat="45.4168551" lon="9.2812391"><ele>101.83333333333333</ele><time>2026-05-04T17:58:40.262Z</time></trkpt><trkpt lat="45.4168149" lon="9.2811456"><ele>102.66666666666666</ele><time>2026-05-04T17:58:42.26Z</time></trkpt><trkpt lat="45.4167886" lon="9.2810319"><ele>103.5</ele><time>2026-05-04T17:58:44.261Z</time></trkpt><trkpt lat="45.4167598" lon="9.2809231"><ele>104.33333333333334</ele><time>2026-05-04T17:58:46.269Z</time></trkpt><trkpt lat="45.4167281" lon="9.2808258"><ele>105.16666666666667</ele><time>2026-05-04T17:58:48.254Z</time></trkpt><trkpt lat="45.4166938" lon="9.2807322"><ele>106.0</ele><time>2026-05-04T17:58:50.264Z</time></trkpt><trkpt lat="45.4166548" lon="9.2806394"><ele>105.66666666666667</ele><time>2026-05-04T17:58:52.263Z</time></trkpt><trkpt lat="45.4166136" lon="9.280549"><ele>105.33333333333334</ele><time>2026-05-04T17:58:54.272Z</time></trkpt><trkpt lat="45.4165662" lon="9.2804621"><ele>105.0</ele><time>2026-05-04T17:58:56.261Z</time></trkpt><trkpt lat="45.4165342" lon="9.2803713"><ele>104.66666666666666</ele><time>2026-05-04T17:58:58.259Z</time></trkpt><trkpt lat="45.4165233" lon="9.2802655"><ele>104.33333333333333</ele><time>2026-05-04T17:59:00.256Z</time></trkpt><trkpt lat="45.4165465" lon="9.2801607"><ele>104.0</ele><time>2026-05-04T17:59:02.263Z</time></trkpt><trkpt lat="45.416618" lon="9.2800628"><ele>103.99999999999999</ele><time>2026-05-04T17:59:06.266Z</time></trkpt><trkpt lat="45.4165879" lon="9.2799831"><ele>104.0</ele><time>2026-05-04T17:59:09.269Z</time></trkpt><trkpt lat="45.4165116" lon="9.2799356"><ele>104.0</ele><time>2026-05-04T17:59:11.258Z</time></trkpt><trkpt lat="45.4164356" lon="9.2798827"><ele>104.0</ele><time>2026-05-04T17:59:13.259Z</time></trkpt><trkpt lat="45.4163573" lon="9.2798158"><ele>103.99999999999999</ele><time>2026-05-04T17:59:15.269Z</time></trkpt><trkpt lat="45.4162829" lon="9.2797321"><ele>104.0</ele><time>2026-05-04T17:59:17.259Z</time></trkpt><trkpt lat="45.4162075" lon="9.2796488"><ele>103.4</ele><time>2026-05-04T17:59:19.26Z</time></trkpt><trkpt lat="45.416136" lon="9.2795659"><ele>102.80000000000001</ele><time>2026-05-04T17:59:21.265Z</time></trkpt><trkpt lat="45.4160678" lon="9.2794842"><ele>102.19999999999999</ele><time>2026-05-04T17:59:23.268Z</time></trkpt><trkpt lat="45.4159926" lon="9.2794028"><ele>101.6</ele><time>2026-05-04T17:59:25.261Z</time></trkpt><trkpt lat="45.4159238" lon="9.2793118"><ele>101.0</ele><time>2026-05-04T17:59:27.259Z</time></trkpt><trkpt lat="45.4158474" lon="9.2792351"><ele>101.0</ele><time>2026-05-04T17:59:29.265Z</time></trkpt><trkpt lat="45.4157691" lon="9.2791442"><ele>101.0</ele><time>2026-05-04T17:59:31.267Z</time></trkpt><trkpt lat="45.4157009" lon="9.2790451"><ele>101.0</ele><time>2026-05-04T17:59:33.273Z</time></trkpt><trkpt lat="45.4156242" lon="9.2789607"><ele>101.0</ele><time>2026-05-04T17:59:35.263Z</time></trkpt><trkpt lat="45.4155544" lon="9.2788837"><ele>101.0</ele><time>2026-05-04T17:59:37.257Z</time></trkpt><trkpt lat="45.4154817" lon="9.278809"><ele>100.19999999999999</ele><time>2026-05-04T17:59:39.261Z</time></trkpt><trkpt lat="45.4154297" lon="9.2787054"><ele>99.39999999999999</ele><time>2026-05-04T17:59:41.277Z</time></trkpt><trkpt lat="45.4153606" lon="9.2786718"><ele>98.6</ele><time>2026-05-04T17:59:43.256Z</time></trkpt><trkpt lat="45.4152713" lon="9.278621"><ele>97.8</ele><time>2026-05-04T17:59:45.265Z</time></trkpt><trkpt lat="45.4151921" lon="9.2785421"><ele>97.0</ele><time>2026-05-04T17:59:47.268Z</time></trkpt><trkpt lat="45.4151103" lon="9.2784541"><ele>97.0</ele><time>2026-05-04T17:59:49.272Z</time></trkpt><trkpt lat="45.4150299" lon="9.2783586"><ele>97.0</ele><time>2026-05-04T17:59:51.261Z</time></trkpt><trkpt lat="45.4149549" lon="9.2782683"><ele>97.0</ele><time>2026-05-04T17:59:53.257Z</time></trkpt><trkpt lat="45.4148824" lon="9.27819"><ele>97.0</ele><time>2026-05-04T17:59:55.261Z</time></trkpt><trkpt lat="45.4148092" lon="9.2781098"><ele>97.0</ele><time>2026-05-04T17:59:57.27Z</time></trkpt><trkpt lat="45.4147348" lon="9.2780286"><ele>97.6</ele><time>2026-05-04T17:59:59.261Z</time></trkpt><trkpt lat="45.4146625" lon="9.2779301"><ele>98.19999999999999</ele><time>2026-05-04T18:00:01.269Z</time></trkpt><trkpt lat="45.4145953" lon="9.277827"><ele>98.8</ele><time>2026-05-04T18:00:03.261Z</time></trkpt><trkpt lat="45.414516" lon="9.2777433"><ele>99.4</ele><time>2026-05-04T18:00:05.261Z</time></trkpt><trkpt lat="45.4144401" lon="9.2776539"><ele>100.0</ele><time>2026-05-04T18:00:07.259Z</time></trkpt><trkpt lat="45.4143642" lon="9.2775695"><ele>100.0</ele><time>2026-05-04T18:00:09.259Z</time></trkpt><trkpt lat="45.4142831" lon="9.277502"><ele>100.0</ele><time>2026-05-04T18:00:11.26Z</time></trkpt><trkpt lat="45.4142167" lon="9.2774128"><ele>100.0</ele><time>2026-05-04T18:00:13.257Z</time></trkpt><trkpt lat="45.4141482" lon="9.2773141"><ele>100.0</ele><time>2026-05-04T18:00:15.266Z</time></trkpt><trkpt lat="45.4140781" lon="9.277242"><ele>100.0</ele><time>2026-05-04T18:00:17.263Z</time></trkpt><trkpt lat="45.4140024" lon="9.2771547"><ele>100.00000000000001</ele><time>2026-05-04T18:00:19.264Z</time></trkpt><trkpt lat="45.4139311" lon="9.2770829"><ele>100.0</ele><time>2026-05-04T18:00:21.265Z</time></trkpt><trkpt lat="45.4138566" lon="9.2770099"><ele>100.0</ele><time>2026-05-04T18:00:23.262Z</time></trkpt><trkpt lat="45.4137901" lon="9.2769256"><ele>100.0</ele><time>2026-05-04T18:00:25.262Z</time></trkpt><trkpt lat="45.4137142" lon="9.2768505"><ele>100.00000000000001</ele><time>2026-05-04T18:00:27.258Z</time></trkpt><trkpt lat="45.413647" lon="9.2767691"><ele>100.0</ele><time>2026-05-04T18:00:29.266Z</time></trkpt><trkpt lat="45.4135816" lon="9.2766826"><ele>100.00000000000001</ele><time>2026-05-04T18:00:31.26Z</time></trkpt><trkpt lat="45.4135104" lon="9.2766013"><ele>100.0</ele><time>2026-05-04T18:00:33.256Z</time></trkpt><trkpt lat="45.4134382" lon="9.276525"><ele>100.0</ele><time>2026-05-04T18:00:35.261Z</time></trkpt><trkpt lat="45.413368" lon="9.2764461"><ele>100.0</ele><time>2026-05-04T18:00:37.261Z</time></trkpt><trkpt lat="45.4132964" lon="9.2763692"><ele>100.00000000000001</ele><time>2026-05-04T18:00:39.261Z</time></trkpt><trkpt lat="45.4132346" lon="9.2762868"><ele>100.0</ele><time>2026-05-04T18:00:41.278Z</time></trkpt><trkpt lat="45.4131745" lon="9.2762014"><ele>100.33333333333334</ele><time>2026-05-04T18:00:43.258Z</time></trkpt><trkpt lat="45.413116" lon="9.276131"><ele>100.66666666666667</ele><time>2026-05-04T18:00:45.266Z</time></trkpt><trkpt lat="45.4130542" lon="9.2760482"><ele>101.0</ele><time>2026-05-04T18:00:47.258Z</time></trkpt><trkpt lat="45.4130074" lon="9.2759585"><ele>101.33333333333334</ele><time>2026-05-04T18:00:49.26Z</time></trkpt><trkpt lat="45.4129545" lon="9.2758563"><ele>101.66666666666667</ele><time>2026-05-04T18:00:51.266Z</time></trkpt><trkpt lat="45.4129383" lon="9.2757632"><ele>102.0</ele><time>2026-05-04T18:00:53.26Z</time></trkpt><trkpt lat="45.4129454" lon="9.2756591"><ele>102.16666666666667</ele><time>2026-05-04T18:00:55.265Z</time></trkpt><trkpt lat="45.4129564" lon="9.2755627"><ele>102.33333333333334</ele><time>2026-05-04T18:00:57.265Z</time></trkpt><trkpt lat="45.4129331" lon="9.2754744"><ele>102.5</ele><time>2026-05-04T18:00:59.259Z</time></trkpt><trkpt lat="45.4128472" lon="9.2754275"><ele>102.66666666666667</ele><time>2026-05-04T18:01:02.261Z</time></trkpt><trkpt lat="45.4127511" lon="9.275405"><ele>102.83333333333334</ele><time>2026-05-04T18:01:05.259Z</time></trkpt><trkpt lat="45.4126854" lon="9.2753426"><ele>103.0</ele><time>2026-05-04T18:01:07.264Z</time></trkpt><trkpt lat="45.4126472" lon="9.2752709"><ele>103.00000000000001</ele><time>2026-05-04T18:01:09.263Z</time></trkpt><trkpt lat="45.4126129" lon="9.2751783"><ele>103.0</ele><time>2026-05-04T18:01:11.265Z</time></trkpt><trkpt lat="45.4125788" lon="9.2750904"><ele>103.0</ele><time>2026-05-04T18:01:13.265Z</time></trkpt><trkpt lat="45.4125351" lon="9.274981"><ele>103.0</ele><time>2026-05-04T18:01:16.266Z</time></trkpt><trkpt lat="45.4124792" lon="9.2748784"><ele>103.00000000000001</ele><time>2026-05-04T18:01:19.258Z</time></trkpt><trkpt lat="45.4124391" lon="9.2748034"><ele>103.0</ele><time>2026-05-04T18:01:21.262Z</time></trkpt><trkpt lat="45.4124044" lon="9.2747067"><ele>102.83333333333334</ele><time>2026-05-04T18:01:23.261Z</time></trkpt><trkpt lat="45.4123721" lon="9.2746213"><ele>102.66666666666667</ele><time>2026-05-04T18:01:25.26Z</time></trkpt><trkpt lat="45.4123373" lon="9.2745334"><ele>102.5</ele><time>2026-05-04T18:01:27.267Z</time></trkpt><trkpt lat="45.41229" lon="9.2744302"><ele>102.33333333333334</ele><time>2026-05-04T18:01:30.258Z</time></trkpt><trkpt lat="45.4122572" lon="9.2743415"><ele>102.16666666666667</ele><time>2026-05-04T18:01:32.262Z</time></trkpt><trkpt lat="45.4122113" lon="9.2742559"><ele>102.0</ele><time>2026-05-04T18:01:34.259Z</time></trkpt><trkpt lat="45.4121555" lon="9.274175"><ele>101.85714285714286</ele><time>2026-05-04T18:01:36.261Z</time></trkpt><trkpt lat="45.4121148" lon="9.2740882"><ele>101.71428571428572</ele><time>2026-05-04T18:01:38.258Z</time></trkpt><trkpt lat="45.4120833" lon="9.2740084"><ele>101.57142857142857</ele><time>2026-05-04T18:01:40.263Z</time></trkpt><trkpt lat="45.4120405" lon="9.2739139"><ele>101.42857142857143</ele><time>2026-05-04T18:01:42.263Z</time></trkpt><trkpt lat="45.4120115" lon="9.2738253"><ele>101.28571428571428</ele><time>2026-05-04T18:01:44.265Z</time></trkpt><trkpt lat="45.4119728" lon="9.2737452"><ele>101.14285714285714</ele><time>2026-05-04T18:01:46.257Z</time></trkpt><trkpt lat="45.4119208" lon="9.2736806"><ele>101.0</ele><time>2026-05-04T18:01:48.261Z</time></trkpt><trkpt lat="45.411862" lon="9.2736054"><ele>101.16666666666666</ele><time>2026-05-04T18:01:50.26Z</time></trkpt><trkpt lat="45.4118078" lon="9.2735133"><ele>101.33333333333333</ele><time>2026-05-04T18:01:52.26Z</time></trkpt><trkpt lat="45.4117492" lon="9.2734254"><ele>101.5</ele><time>2026-05-04T18:01:54.257Z</time></trkpt><trkpt lat="45.4116937" lon="9.273322"><ele>101.66666666666666</ele><time>2026-05-04T18:01:56.259Z</time></trkpt><trkpt lat="45.4116564" lon="9.2732203"><ele>101.83333333333333</ele><time>2026-05-04T18:01:58.258Z</time></trkpt><trkpt lat="45.411619" lon="9.2731213"><ele>102.0</ele><time>2026-05-04T18:02:00.259Z</time></trkpt><trkpt lat="45.4115785" lon="9.2730497"><ele>102.0</ele><time>2026-05-04T18:02:02.26Z</time></trkpt><trkpt lat="45.4115361" lon="9.272974"><ele>102.0</ele><time>2026-05-04T18:02:04.263Z</time></trkpt><trkpt lat="45.4114954" lon="9.2728752"><ele>102.0</ele><time>2026-05-04T18:02:07.266Z</time></trkpt><trkpt lat="45.4114573" lon="9.2727971"><ele>102.0</ele><time>2026-05-04T18:02:09.266Z</time></trkpt><trkpt lat="45.411422" lon="9.2727156"><ele>102.0</ele><time>2026-05-04T18:02:11.262Z</time></trkpt><trkpt lat="45.4113946" lon="9.2726206"><ele>102.0</ele><time>2026-05-04T18:02:13.261Z</time></trkpt><trkpt lat="45.4113732" lon="9.2725238"><ele>102.0</ele><time>2026-05-04T18:02:16.258Z</time></trkpt><trkpt lat="45.4113299" lon="9.2724416"><ele>101.83333333333333</ele><time>2026-05-04T18:02:19.255Z</time></trkpt><trkpt lat="45.4112766" lon="9.2723418"><ele>101.66666666666666</ele><time>2026-05-04T18:02:22.257Z</time></trkpt><trkpt lat="45.4112265" lon="9.272239"><ele>101.5</ele><time>2026-05-04T18:02:25.258Z</time></trkpt><trkpt lat="45.411188" lon="9.2721674"><ele>101.33333333333333</ele><time>2026-05-04T18:02:27.26Z</time></trkpt><trkpt lat="45.4111441" lon="9.2720574"><ele>101.16666666666666</ele><time>2026-05-04T18:02:30.275Z</time></trkpt><trkpt lat="45.4111097" lon="9.2719772"><ele>101.0</ele><time>2026-05-04T18:02:32.26Z</time></trkpt><trkpt lat="45.4110584" lon="9.271867"><ele>100.99999999999999</ele><time>2026-05-04T18:02:35.259Z</time></trkpt><trkpt lat="45.4110188" lon="9.271786"><ele>101.0</ele><time>2026-05-04T18:02:37.261Z</time></trkpt><trkpt lat="45.4109791" lon="9.2717037"><ele>101.0</ele><time>2026-05-04T18:02:39.261Z</time></trkpt><trkpt lat="45.4109095" lon="9.2716101"><ele>101.0</ele><time>2026-05-04T18:02:42.257Z</time></trkpt><trkpt lat="45.4108645" lon="9.2714887"><ele>100.99999999999999</ele><time>2026-05-04T18:02:45.259Z</time></trkpt><trkpt lat="45.4108276" lon="9.2714044"><ele>101.0</ele><time>2026-05-04T18:02:47.252Z</time></trkpt><trkpt lat="45.4107851" lon="9.2713138"><ele>100.99999999999999</ele><time>2026-05-04T18:02:49.258Z</time></trkpt><trkpt lat="45.4107603" lon="9.271223"><ele>101.0</ele><time>2026-05-04T18:02:51.253Z</time></trkpt><trkpt lat="45.4107252" lon="9.2711412"><ele>101.0</ele><time>2026-05-04T18:02:53.256Z</time></trkpt><trkpt lat="45.4106814" lon="9.2710722"><ele>101.0</ele><time>2026-05-04T18:02:55.263Z</time></trkpt><trkpt lat="45.4106172" lon="9.2711359"><ele>100.99999999999999</ele><time>2026-05-04T18:02:57.26Z</time></trkpt><trkpt lat="45.4105392" lon="9.2711362"><ele>101.0</ele><time>2026-05-04T18:03:00.262Z</time></trkpt><trkpt lat="45.4104784" lon="9.2710249"><ele>101.0</ele><time>2026-05-04T18:03:02.257Z</time></trkpt><trkpt lat="45.4104491" lon="9.2709405"><ele>101.0</ele><time>2026-05-04T18:03:04.262Z</time></trkpt><trkpt lat="45.4104131" lon="9.2708651"><ele>101.0</ele><time>2026-05-04T18:03:06.263Z</time></trkpt><trkpt lat="45.4103439" lon="9.2708449"><ele>101.0</ele><time>2026-05-04T18:03:09.257Z</time></trkpt><trkpt lat="45.4102921" lon="9.270909"><ele>101.0</ele><time>2026-05-04T18:03:12.259Z</time></trkpt><trkpt lat="45.4102365" lon="9.2708535"><ele>101.0</ele><time>2026-05-04T18:03:15.269Z</time></trkpt><trkpt lat="45.4101767" lon="9.2707676"><ele>101.0</ele><time>2026-05-04T18:03:18.261Z</time></trkpt><trkpt lat="45.4100792" lon="9.2707817"><ele>100.99999999999999</ele><time>2026-05-04T18:03:21.26Z</time></trkpt><trkpt lat="45.4100019" lon="9.27084"><ele>101.0</ele><time>2026-05-04T18:03:23.263Z</time></trkpt><trkpt lat="45.4099347" lon="9.2709133"><ele>101.0</ele><time>2026-05-04T18:03:25.261Z</time></trkpt><trkpt lat="45.4098721" lon="9.2709657"><ele>101.0</ele><time>2026-05-04T18:03:27.255Z</time></trkpt><trkpt lat="45.409806" lon="9.2710299"><ele>100.99999999999999</ele><time>2026-05-04T18:03:29.266Z</time></trkpt><trkpt lat="45.4097404" lon="9.2710812"><ele>101.0</ele><time>2026-05-04T18:03:31.262Z</time></trkpt><trkpt lat="45.4096824" lon="9.2711392"><ele>100.85714285714286</ele><time>2026-05-04T18:03:33.255Z</time></trkpt><trkpt lat="45.409626" lon="9.2711908"><ele>100.71428571428571</ele><time>2026-05-04T18:03:35.26Z</time></trkpt><trkpt lat="45.4095629" lon="9.2712363"><ele>100.57142857142858</ele><time>2026-05-04T18:03:37.256Z</time></trkpt><trkpt lat="45.4094928" lon="9.2712473"><ele>100.42857142857143</ele><time>2026-05-04T18:03:39.262Z</time></trkpt><trkpt lat="45.4094271" lon="9.271198"><ele>100.28571428571429</ele><time>2026-05-04T18:03:41.253Z</time></trkpt><trkpt lat="45.409379" lon="9.2711226"><ele>100.14285714285715</ele><time>2026-05-04T18:03:43.254Z</time></trkpt><trkpt lat="45.4093381" lon="9.2710263"><ele>100.0</ele><time>2026-05-04T18:03:45.256Z</time></trkpt><trkpt lat="45.4092897" lon="9.2709233"><ele>100.0</ele><time>2026-05-04T18:03:47.261Z</time></trkpt><trkpt lat="45.4092489" lon="9.2708205"><ele>100.0</ele><time>2026-05-04T18:03:49.261Z</time></trkpt></trkseg></trk></gpx>